[[{"header":{"parameterUnit":"m.s-1","parameterCategory":1,"la1":31.0,"la2":29.5877,"lo1":-88.7671,"lo2":-86.6584,"dx":0.0162,"dy":0.0185,"nx":115,"ny":88,"refTime":"2022-12-17T06:00:00:Z","depth":0,"parameterNumber":2,"parameterNumberName":"U-component_of_WINDS"},"data":[0.0,0.0,0.0,0.0,0.0,0.0,0.0,0.0,0.0,0.0,0.0,0.0,0.0,0.0,0.0,0.0,0.0,0.0,0.0,0.0,0.0,0.0,0.0,0.0,0.0,0.0,0.0,0.0,0.0,0.0,0.0,0.0,0.0,0.0,0.0,0.0,0.0,0.0,0.0,0.0,0.0,0.0,0.0,0.0,0.0,0.0,0.0,0.0,0.0,0.0,0.0,0.0,0.0,0.0,0.0,0.0,0.0,0.0,0.0,0.0,0.0,0.0,0.0,0.0,0.0,0.0,0.0,0.0,0.0,0.0,0.0,0.0,0.0,0.0,0.0,0.0,0.0,0.0,0.0,0.0,0.0,0.0,0.0,0.0,0.0,0.0,0.0,0.0,0.0,0.0,0.0,0.0,0.0,0.0,0.0,0.0,0.0,0.0,0.0,0.0,0.0,0.0,0.0,0.0,0.0,0.0,0.0,0.0,0.0,0.0,0.0,0.0,0.0,0.0,0.0,0.0,0.0,0.0,0.0,0.0,0.0,0.0,0.0,0.0,0.0,0.0,0.0,0.0,0.0,0.0,0.0,0.0,0.0,0.0,0.0,0.0,0.0,0.0,0.0,0.0,0.0,0.0,0.0,0.0,0.0,0.0,0.0,0.0,0.0,0.0,0.0,0.0,0.0,0.0,0.0,0.0,0.0,0.0,0.0,0.0,0.0,0.0,0.0,0.0,0.0,0.0,0.0,0.0,0.0,0.0,0.0,0.0,0.0,0.0,0.0,0.0,0.0,0.0,0.0,0.0,0.0,0.0,0.0,0.0,0.0,0.0,0.0,0.0,0.0,0.0,0.0,0.0,0.0,0.0,0.0,0.0,0.0,0.0,0.0,0.0,0.0,0.0,0.0,0.0,0.0,0.0,0.0,0.0,0.0,0.0,0.0,0.0,0.0,0.0,0.0,0.0,0.0,0.0,0.0,0.0,0.0,0.0,0.0,0.0,0.0,0.0,0.0,0.0,0.0,0.0,0.0,0.0,0.0,0.0,0.0,0.0,0.0,0.0,0.0,0.0,0.0,0.0,0.0,0.0,0.0,0.0,0.0,0.0,0.0,0.0,0.0,0.0,0.0,0.0,0.0,0.0,0.0,0.0,0.0,0.0,0.0,0.0,0.0,0.0,0.0,0.0,0.0,0.0,0.0,0.0,0.0,0.0,0.0,0.0,0.0,0.0,0.0,0.0,0.0,0.0,0.0,0.0,0.0,0.0,0.0,0.0,0.0,0.0,0.0,0.0,0.0,0.0,0.0,0.0,0.0,0.0,0.0,0.0,0.0,0.0,0.0,0.0,0.0,0.0,0.0,0.0,0.0,0.0,0.0,0.0,0.0,0.0,0.0,0.0,0.0,0.0,0.0,0.0,0.0,0.0,0.0,0.0,0.0,0.0,0.0,0.0,0.0,0.0,0.0,0.0,0.0,0.0,0.0,0.0,0.0,0.0,0.0,0.0,0.0,0.0,0.0,0.0,0.0,0.0,0.0,0.0,0.0,0.0,0.0,0.0,0.0,0.0,0.0,0.0,0.0,0.0,0.0,0.0,0.0,0.0,0.0,0.0,0.0,0.0,0.0,0.0,0.0,0.0,0.0,0.0,0.0,0.0,0.0,0.0,0.0,0.0,0.0,0.0,0.0,0.0,0.0,0.0,0.0,0.0,0.0,0.0,0.0,0.0,0.0,0.0,0.0,0.0,0.0,0.0,0.0,0.0,0.0,0.0,0.0,0.0,0.0,0.0,0.0,0.0,0.0,0.0,0.0,0.0,0.0,0.0,0.0,0.0,0.0,0.0,0.0,0.0,0.0,0.0,0.0,0.0,0.0,0.0,0.0,0.0,0.0,0.0,0.0,0.0,0.0,0.0,0.0,0.0,0.0,0.0,0.0,0.0,0.0,0.0,0.0,0.0,0.0,0.0,0.0,0.0,0.0,0.0,0.0,0.0,0.0,0.0,0.0,0.0,0.0,0.0,0.0,0.0,0.0,0.0,0.0,0.0,0.0,0.0,0.0,0.0,0.0,0.0,0.0,0.0,0.0,0.0,0.0,0.0,0.0,0.0,0.0,0.0,0.0,0.0,0.0,0.0,0.0,0.0,0.0,0.0,0.0,0.0,0.0,0.0,0.0,0.0,0.0,0.0,0.0,0.0,0.0,0.0,0.0,0.0,0.0,0.0,0.0,0.0,0.0,0.0,0.0,0.0,0.0,0.0,0.0,0.0,0.0,0.0,0.0,0.0,0.0,0.0,0.0,0.0,0.0,0.0,0.0,0.0,0.0,0.0,0.0,0.0,0.0,0.0,0.0,0.0,0.0,0.0,0.0,0.0,0.0,0.0,0.0,0.0,0.0,0.0,0.0,0.0,0.0,0.0,0.0,0.0,0.0,0.0,0.0,0.0,0.0,0.0,0.0,0.0,0.0,0.0,0.0,0.0,0.0,0.0,0.0,0.0,0.0,0.0,0.0,0.0,0.0,0.0,0.0,0.0,0.0,0.0,0.0,0.0,0.0,0.0,0.0,0.0,0.0,0.0,0.0,0.0,0.0,0.0,0.0,0.0,0.0,0.0,0.0,0.0,0.0,0.0,0.0,0.0,0.0,0.0,0.0,0.0,0.0,0.0,0.0,0.0,0.0,0.0,0.0,0.0,0.0,0.0,0.0,0.0,0.0,0.0,0.0,0.0,0.0,0.0,0.0,0.0,0.0,0.0,0.0,0.0,0.0,0.0,0.0,0.0,0.0,0.0,0.0,0.0,0.0,0.0,0.0,0.0,0.0,0.0,0.0,0.0,0.0,0.0,0.0,0.0,0.0,0.0,0.0,0.0,0.0,0.0,0.0,0.0,0.0,0.0,0.0,0.0,0.0,0.0,0.0,0.0,0.0,0.0,0.0,0.0,0.0,0.0,0.0,0.0,0.0,0.0,0.0,0.0,0.0,0.0,0.0,0.0,0.0,0.0,0.0,0.0,0.0,0.0,0.0,0.0,0.0,0.0,0.0,0.0,0.0,0.0,0.0,0.0,0.0,0.0,0.0,0.0,0.0,0.0,0.0,0.0,0.0,0.0,0.0,0.0,0.0,0.0,0.0,0.0,0.0,0.0,0.0,0.0,0.0,0.0,0.0,0.0,0.0,0.0,0.0,0.0,0.0,0.0,0.0,0.0,0.0,0.0,0.0,0.0,0.0,0.0,0.0,0.0,0.0,0.0,0.0,0.0,0.0,0.0,0.0,0.0,0.0,0.0,0.0,0.0,0.0,0.0,0.0,0.0,0.0,0.0,0.0,0.0,0.0,0.0,0.0,0.0,0.0,0.0,0.0,0.0,0.0,0.0,0.0,0.0,0.0,0.0,0.0,0.0,0.0,0.0,0.0,0.0,0.0,0.0,0.0,0.0,0.0,0.0,0.0,0.0,0.0,0.0,0.0,0.0,0.0,0.0,0.0,0.0,0.0,0.0,0.0,0.0,0.0,0.0,0.0,0.0,0.0,0.0,0.0,0.0,0.0,0.0,0.0,0.0,0.0,0.0,0.0,0.0,0.0,0.0,0.0,0.0,0.0,0.0,0.0,0.0,0.0,0.0,0.0,0.0,0.0,0.0,0.0,0.0,0.0,0.0,0.0,0.0,0.0,0.0,0.0,0.0,0.0,0.0,0.0,0.0,0.0,0.0,0.0,0.0,0.0,0.0,0.0,0.0,0.0,0.0,0.0,0.0,0.0,0.0,0.0,0.0,0.0,0.0,0.0,0.0,0.0,0.0,0.0,0.0,0.0,0.0,0.0,0.0,0.0,0.0,0.0,0.0,0.0,0.0,0.0,0.0,0.0,0.0,0.0,0.0,0.0,0.0,0.0,0.0,0.0,0.0,0.0,0.0,0.0,0.0,0.0,0.0,0.0,0.0,0.0,0.0,0.0,0.0,0.0,0.0,0.0,0.0,0.0,0.0,0.0,0.0,0.0,0.0,0.0,0.0,0.0,0.0,0.0,0.0,0.0,0.0,0.0,0.0,0.0,0.0,0.0,0.0,0.0,0.0,0.0,0.0,0.0,0.0,0.0,0.0,0.0,0.0,0.0,0.0,0.0,0.0,0.0,0.0,0.0,0.0,0.0,0.0,0.0,0.0,0.0,0.0,0.0,0.0,0.0,0.0,0.0,0.0,0.0,0.0,0.0,0.0,0.0,0.0,0.0,0.0,0.0,0.0,0.0,0.0,0.0,0.0,0.0,0.0,2.8534,0.0,0.0,0.0,2.7035,0.0,0.0,0.0,0.0,0.0,0.0,0.0,0.0,0.0,0.0,0.0,0.0,0.0,0.0,0.0,0.0,0.0,0.0,0.0,0.0,0.0,0.0,0.0,0.0,0.0,0.0,0.0,0.0,0.0,0.0,0.0,0.0,0.0,0.0,0.0,0.0,0.0,0.0,0.0,0.0,0.0,0.0,0.0,0.0,0.0,0.0,0.0,0.0,0.0,0.0,0.0,0.0,0.0,0.0,0.0,0.0,0.0,0.0,0.0,0.0,0.0,0.0,0.0,0.0,0.0,0.0,0.0,0.0,0.0,0.0,0.0,0.0,0.0,0.0,0.0,0.0,0.0,0.0,0.0,0.0,0.0,0.0,0.0,0.0,0.0,0.0,0.0,0.0,0.0,0.0,0.0,0.0,0.0,0.0,0.0,0.0,0.0,0.0,0.0,0.0,0.0,0.0,0.0,0.0,0.0,0.0,0.0,0.0,0.0,0.0,2.9004,2.9292,2.8581,2.7983,2.7496,0.0,0.0,0.0,0.0,0.0,0.0,0.0,0.0,0.0,0.0,0.0,0.0,0.0,0.0,0.0,0.0,0.0,0.0,0.0,0.0,0.0,0.0,0.0,0.0,0.0,0.0,0.0,0.0,0.0,0.0,0.0,0.0,0.0,0.0,0.0,0.0,0.0,0.0,0.0,0.0,0.0,0.0,0.0,0.0,0.0,0.0,0.0,0.0,0.0,0.0,0.0,0.0,0.0,0.0,0.0,0.0,0.0,0.0,0.0,0.0,0.0,0.0,0.0,0.0,0.0,0.0,0.0,0.0,0.0,0.0,0.0,0.0,0.0,0.0,0.0,0.0,0.0,0.0,0.0,0.0,0.0,0.0,0.0,0.0,0.0,0.0,0.0,0.0,0.0,0.0,0.0,0.0,0.0,0.0,0.0,0.0,0.0,0.0,0.0,0.0,0.0,0.0,0.0,0.0,0.0,0.0,0.0,0.0,0.0,0.0,0.0,0.0,2.8683,2.8033,2.7849,0.0,0.0,0.0,0.0,0.0,0.0,0.0,0.0,0.0,0.0,0.0,0.0,0.0,0.0,0.0,0.0,0.0,0.0,0.0,0.0,0.0,0.0,0.0,0.0,0.0,0.0,0.0,0.0,0.0,0.0,0.0,0.0,0.0,0.0,0.0,0.0,0.0,0.0,0.0,0.0,0.0,0.0,0.0,0.0,0.0,0.0,0.0,0.0,0.0,0.0,0.0,0.0,0.0,0.0,0.0,0.0,0.0,0.0,0.0,0.0,0.0,0.0,0.0,0.0,0.0,0.0,0.0,0.0,0.0,0.0,0.0,0.0,0.0,0.0,0.0,0.0,0.0,0.0,0.0,0.0,0.0,0.0,0.0,0.0,0.0,0.0,0.0,0.0,0.0,0.0,0.0,0.0,0.0,0.0,0.0,0.0,0.0,0.0,0.0,0.0,0.0,0.0,0.0,0.0,0.0,0.0,0.0,0.0,0.0,0.0,2.9712,3.1472,2.9415,0.0,2.7497,0.0,0.0,0.0,0.0,0.0,0.0,0.0,0.0,0.0,0.0,0.0,0.0,0.0,0.0,0.0,0.0,0.0,0.0,0.0,0.0,0.0,0.0,0.0,0.0,0.0,0.0,0.0,0.0,0.0,0.0,0.0,0.0,0.0,0.0,0.0,0.0,0.0,0.0,0.0,0.0,0.0,0.0,0.0,0.0,0.0,0.0,0.0,0.0,0.0,0.0,0.0,0.0,0.0,0.0,0.0,0.0,0.0,0.0,0.0,0.0,0.0,0.0,0.0,0.0,0.0,0.0,0.0,0.0,0.0,0.0,0.0,0.0,0.0,0.0,0.0,0.0,0.0,0.0,0.0,0.0,0.0,0.0,0.0,0.0,0.0,0.0,0.0,0.0,0.0,0.0,0.0,0.0,0.0,0.0,0.0,0.0,0.0,0.0,0.0,0.0,0.0,0.0,0.0,0.0,0.0,0.0,0.0,0.0,0.0,0.0,2.9632,3.0254,2.8824,2.7575,0.0,0.0,0.0,0.0,0.0,0.0,0.0,0.0,0.0,0.0,0.0,0.0,0.0,0.0,0.0,0.0,0.0,0.0,0.0,0.0,0.0,0.0,0.0,0.0,0.0,0.0,0.0,0.0,0.0,0.0,0.0,0.0,0.0,0.0,0.0,0.0,0.0,0.0,0.0,0.0,0.0,0.0,0.0,0.0,0.0,0.0,0.0,0.0,0.0,0.0,0.0,0.0,0.0,0.0,0.0,0.0,0.0,0.0,0.0,0.0,0.0,0.0,0.0,0.0,0.0,0.0,0.0,0.0,0.0,0.0,0.0,0.0,0.0,0.0,0.0,0.0,0.0,0.0,0.0,0.0,0.0,0.0,0.0,0.0,0.0,0.0,0.0,0.0,0.0,0.0,0.0,0.0,0.0,0.0,0.0,0.0,0.0,0.0,0.0,0.0,0.0,0.0,0.0,0.0,0.0,0.0,0.0,0.0,0.0,0.0,2.9888,2.9322,2.8902,2.8366,2.7503,2.6236,0.0,0.0,0.0,0.0,0.0,0.0,0.0,0.0,0.0,0.0,0.0,0.0,0.0,0.0,0.0,0.0,0.0,0.0,0.0,0.0,0.0,0.0,0.0,0.0,0.0,0.0,0.0,0.0,0.0,0.0,0.0,0.0,0.0,0.0,0.0,0.0,0.0,0.0,0.0,0.0,0.0,0.0,0.0,0.0,0.0,0.0,0.0,0.0,0.0,0.0,0.0,0.0,0.0,0.0,0.0,0.0,0.0,0.0,0.0,0.0,0.0,0.0,0.0,0.0,0.0,0.0,0.0,0.0,0.0,0.0,0.0,0.0,0.0,0.0,0.0,0.0,0.0,0.0,0.0,0.0,0.0,0.0,0.0,0.0,0.0,0.0,0.0,0.0,0.0,0.0,0.0,0.0,0.0,0.0,0.0,0.0,0.0,0.0,0.0,0.0,0.0,0.0,0.0,0.0,0.0,0.0,0.0,0.0,3.2377,3.0361,2.8822,2.8097,2.8361,2.8048,0.0,0.0,0.0,0.0,0.0,0.0,0.0,0.0,0.0,0.0,0.0,0.0,0.0,0.0,0.0,0.0,0.0,0.0,0.0,0.0,0.0,0.0,0.0,0.0,0.0,0.0,0.0,0.0,0.0,0.0,0.0,0.0,0.0,0.0,0.0,0.0,0.0,0.0,0.0,0.0,0.0,0.0,0.0,0.0,0.0,0.0,0.0,0.0,0.0,0.0,0.0,0.0,0.0,0.0,0.0,0.0,0.0,0.0,0.0,0.0,0.0,0.0,0.0,0.0,0.0,0.0,0.0,0.0,0.0,0.0,0.0,0.0,0.0,0.0,0.0,0.0,0.0,0.0,0.0,0.0,0.0,0.0,0.0,0.0,0.0,0.0,0.0,0.0,0.0,0.0,0.0,0.0,0.0,0.0,0.0,0.0,0.0,0.0,0.0,0.0,0.0,0.0,0.0,0.0,0.0,0.0,0.0,0.0,0.0,3.0391,2.9124,2.8165,2.7589,2.7988,2.7833,0.0,0.0,0.0,0.0,0.0,0.0,0.0,0.0,0.0,0.0,0.0,0.0,0.0,0.0,0.0,0.0,0.0,0.0,0.0,0.0,0.0,0.0,0.0,0.0,0.0,0.0,0.0,0.0,0.0,0.0,0.0,0.0,0.0,0.0,0.0,0.0,0.0,0.0,0.0,0.0,0.0,0.0,0.0,0.0,0.0,0.0,0.0,0.0,0.0,0.0,0.0,0.0,0.0,0.0,0.0,0.0,0.0,0.0,0.0,0.0,0.0,0.0,0.0,0.0,0.0,0.0,0.0,0.0,0.0,0.0,0.0,0.0,0.0,0.0,0.0,0.0,0.0,0.0,0.0,0.0,0.0,0.0,0.0,0.0,0.0,0.0,0.0,0.0,0.0,0.0,0.0,0.0,0.0,0.0,0.0,0.0,0.0,0.0,0.0,0.0,0.0,0.0,0.0,0.0,0.0,0.0,0.0,0.0,0.0,2.9468,2.9421,2.9025,2.8287,2.8395,2.8173,0.0,0.0,0.0,0.0,0.0,0.0,0.0,0.0,0.0,0.0,0.0,0.0,0.0,0.0,0.0,0.0,0.0,0.0,0.0,0.0,0.0,0.0,0.0,0.0,0.0,0.0,0.0,0.0,0.0,0.0,0.0,0.0,0.0,0.0,0.0,0.0,0.0,0.0,0.0,0.0,0.0,0.0,0.0,0.0,0.0,0.0,0.0,0.0,0.0,0.0,0.0,0.0,0.0,0.0,0.0,0.0,0.0,0.0,0.0,0.0,0.0,0.0,0.0,0.0,0.0,0.0,0.0,0.0,0.0,0.0,0.0,0.0,0.0,0.0,0.0,0.0,0.0,0.0,0.0,0.0,0.0,0.0,0.0,0.0,0.0,0.0,0.0,0.0,0.0,0.0,0.0,0.0,0.0,0.0,0.0,0.0,0.0,0.0,0.0,0.0,0.0,0.0,0.0,0.0,0.0,0.0,0.0,0.0,2.9969,3.0057,3.1426,3.1444,3.0234,2.9685,2.913,0.0,0.0,0.0,0.0,0.0,0.0,0.0,0.0,0.0,0.0,0.0,0.0,0.0,0.0,0.0,0.0,0.0,0.0,0.0,0.0,0.0,0.0,0.0,0.0,0.0,0.0,0.0,0.0,0.0,0.0,0.0,0.0,0.0,0.0,0.0,0.0,0.0,0.0,0.0,0.0,0.0,0.0,0.0,0.0,0.0,0.0,0.0,0.0,0.0,0.0,0.0,0.0,0.0,0.0,0.0,0.0,0.0,0.0,0.0,0.0,0.0,0.0,0.0,0.0,0.0,0.0,0.0,0.0,0.0,0.0,0.0,0.0,0.0,0.0,0.0,0.0,0.0,0.0,0.0,0.0,0.0,0.0,0.0,0.0,0.0,0.0,0.0,0.0,0.0,0.0,0.0,0.0,0.0,0.0,0.0,0.0,0.0,0.0,0.0,0.0,0.0,0.0,0.0,0.0,0.0,0.0,0.0,0.0,0.0,2.9739,3.1066,3.1296,3.0253,3.0057,2.9652,0.0,0.0,0.0,0.0,0.0,0.0,0.0,0.0,0.0,0.0,0.0,0.0,0.0,0.0,0.0,0.0,0.0,0.0,0.0,0.0,0.0,0.0,0.0,0.0,0.0,0.0,0.0,0.0,0.0,0.0,0.0,0.0,0.0,0.0,0.0,0.0,0.0,0.0,0.0,0.0,0.0,0.0,0.0,0.0,0.0,0.0,0.0,0.0,0.0,0.0,0.0,0.0,0.0,0.0,0.0,0.0,0.0,0.0,0.0,0.0,0.0,0.0,0.0,0.0,0.0,0.0,0.0,0.0,0.0,0.0,0.0,0.0,0.0,0.0,0.0,0.0,0.0,0.0,0.0,0.0,0.0,0.0,0.0,0.0,0.0,0.0,0.0,0.0,0.0,0.0,0.0,0.0,0.0,0.0,0.0,0.0,0.0,0.0,0.0,0.0,0.0,0.0,0.0,0.0,0.0,0.0,0.0,0.0,0.0,3.1214,3.2154,3.2237,3.1302,3.0756,3.0267,2.977,0.0,0.0,0.0,0.0,0.0,0.0,0.0,0.0,0.0,0.0,0.0,0.0,0.0,0.0,0.0,0.0,0.0,0.0,0.0,0.0,0.0,0.0,0.0,0.0,0.0,0.0,0.0,0.0,0.0,0.0,0.0,0.0,0.0,0.0,0.0,0.0,0.0,0.0,0.0,0.0,0.0,0.0,0.0,0.0,0.0,0.0,0.0,0.0,0.0,0.0,0.0,0.0,0.0,0.0,0.0,0.0,0.0,0.0,0.0,0.0,0.0,0.0,0.0,0.0,0.0,0.0,0.0,0.0,0.0,0.0,0.0,0.0,0.0,0.0,0.0,0.0,0.0,0.0,0.0,0.0,0.0,0.0,0.0,0.0,0.0,0.0,0.0,0.0,0.0,0.0,0.0,0.0,0.0,0.0,0.0,0.0,0.0,0.0,0.0,0.0,0.0,0.0,0.0,0.0,0.0,0.0,0.0,0.0,3.383,3.4332,3.4141,3.3093,3.176,3.0974,0.0,0.0,0.0,0.0,0.0,0.0,0.0,0.0,0.0,0.0,0.0,0.0,0.0,0.0,0.0,0.0,0.0,0.0,0.0,0.0,0.0,0.0,0.0,0.0,0.0,0.0,0.0,0.0,0.0,0.0,0.0,0.0,0.0,0.0,0.0,0.0,0.0,0.0,0.0,0.0,0.0,0.0,0.0,0.0,0.0,0.0,0.0,0.0,0.0,0.0,0.0,0.0,0.0,0.0,0.0,0.0,0.0,0.0,0.0,0.0,0.0,0.0,0.0,0.0,0.0,0.0,0.0,0.0,0.0,0.0,0.0,0.0,0.0,0.0,0.0,0.0,0.0,0.0,0.0,0.0,0.0,0.0,0.0,0.0,0.0,0.0,0.0,0.0,0.0,0.0,0.0,0.0,0.0,0.0,0.0,0.0,0.0,0.0,0.0,0.0,0.0,0.0,0.0,0.0,0.0,0.0,0.0,0.0,0.0,3.4019,3.5352,3.5206,3.3333,3.2768,3.1923,0.0,0.0,0.0,0.0,0.0,0.0,0.0,0.0,0.0,0.0,0.0,0.0,0.0,0.0,0.0,0.0,0.0,0.0,0.0,0.0,0.0,0.0,0.0,0.0,0.0,0.0,0.0,0.0,0.0,0.0,0.0,0.0,0.0,0.0,0.0,0.0,0.0,0.0,0.0,0.0,0.0,0.0,0.0,0.0,0.0,0.0,0.0,0.0,0.0,0.0,0.0,0.0,0.0,0.0,0.0,0.0,0.0,0.0,0.0,0.0,0.0,0.0,0.0,0.0,0.0,0.0,0.0,0.0,0.0,0.0,0.0,0.0,0.0,0.0,0.0,0.0,0.0,0.0,0.0,0.0,0.0,0.0,0.0,0.0,0.0,0.0,0.0,0.0,0.0,0.0,0.0,0.0,0.0,0.0,0.0,0.0,0.0,0.0,0.0,0.0,0.0,0.0,0.0,0.0,0.0,0.0,0.0,0.0,3.5438,3.5339,3.6656,3.6432,3.4452,3.3785,3.2771,0.0,0.0,0.0,0.0,0.0,0.0,0.0,0.0,0.0,0.0,0.0,0.0,0.0,0.0,0.0,0.0,0.0,0.0,0.0,0.0,0.0,0.0,0.0,0.0,0.0,0.0,0.0,0.0,0.0,0.0,0.0,0.0,0.0,0.0,0.0,0.0,0.0,0.0,0.0,0.0,0.0,0.0,0.0,0.0,0.0,0.0,0.0,0.0,0.0,0.0,0.0,0.0,0.0,0.0,0.0,0.0,0.0,0.0,0.0,0.0,0.0,0.0,0.0,0.0,0.0,0.0,0.0,0.0,0.0,0.0,0.0,0.0,0.0,0.0,0.0,0.0,0.0,0.0,0.0,0.0,0.0,0.0,0.0,0.0,0.0,0.0,0.0,0.0,0.0,0.0,0.0,0.0,0.0,0.0,0.0,0.0,0.0,0.0,0.0,0.0,0.0,0.0,0.0,0.0,0.0,0.0,0.0,0.0,3.6924,3.7126,3.7845,3.7527,3.6089,3.4915,3.3611,0.0,0.0,0.0,0.0,0.0,0.0,0.0,0.0,0.0,0.0,0.0,0.0,0.0,0.0,0.0,0.0,0.0,0.0,0.0,0.0,0.0,0.0,0.0,0.0,0.0,0.0,0.0,0.0,0.0,0.0,0.0,0.0,0.0,0.0,0.0,0.0,0.0,0.0,0.0,0.0,0.0,0.0,0.0,0.0,0.0,0.0,0.0,0.0,0.0,0.0,0.0,0.0,0.0,0.0,0.0,0.0,0.0,0.0,0.0,0.0,0.0,0.0,0.0,0.0,0.0,0.0,0.0,0.0,0.0,0.0,0.0,0.0,0.0,0.0,0.0,0.0,0.0,0.0,0.0,0.0,0.0,0.0,0.0,0.0,0.0,0.0,0.0,0.0,0.0,0.0,0.0,0.0,0.0,0.0,0.0,0.0,0.0,0.0,0.0,0.0,0.0,0.0,0.0,0.0,0.0,0.0,0.0,0.0,3.6734,3.7245,3.7689,3.7615,3.7023,3.6545,3.4874,0.0,0.0,0.0,0.0,0.0,0.0,0.0,0.0,0.0,0.0,0.0,0.0,0.0,0.0,0.0,0.0,0.0,0.0,0.0,0.0,0.0,0.0,0.0,0.0,0.0,0.0,0.0,0.0,0.0,0.0,0.0,0.0,0.0,0.0,0.0,0.0,0.0,0.0,0.0,0.0,0.0,0.0,0.0,0.0,0.0,0.0,0.0,0.0,2.8979,0.0,0.0,0.0,0.0,0.0,0.0,0.0,0.0,0.0,0.0,0.0,0.0,0.0,0.0,0.0,0.0,0.0,0.0,0.0,0.0,0.0,0.0,0.0,0.0,0.0,0.0,0.0,0.0,0.0,0.0,0.0,0.0,0.0,0.0,0.0,0.0,0.0,0.0,0.0,0.0,0.0,0.0,0.0,0.0,0.0,0.0,0.0,0.0,0.0,0.0,0.0,0.0,0.0,0.0,0.0,0.0,0.0,0.0,0.0,3.6876,3.7719,3.8474,3.8507,3.7761,3.7974,3.6314,0.0,0.0,0.0,0.0,0.0,0.0,0.0,0.0,0.0,0.0,0.0,0.0,0.0,0.0,0.0,0.0,0.0,0.0,0.0,0.0,0.0,0.0,0.0,0.0,0.0,0.0,0.0,0.0,0.0,0.0,0.0,0.0,0.0,0.0,0.0,0.0,0.0,0.0,0.0,0.0,0.0,0.0,0.0,0.0,0.0,0.0,0.0,0.0,0.0,0.0,0.0,0.0,0.0,0.0,0.0,0.0,0.0,0.0,0.0,0.0,0.0,0.0,0.0,0.0,0.0,0.0,0.0,0.0,0.0,0.0,0.0,0.0,0.0,0.0,0.0,0.0,0.0,0.0,0.0,0.0,0.0,0.0,0.0,0.0,0.0,0.0,0.0,0.0,0.0,0.0,0.0,0.0,0.0,0.0,0.0,0.0,0.0,0.0,0.0,0.0,0.0,0.0,0.0,0.0,0.0,0.0,0.0,3.632,3.7385,3.8287,3.9471,3.9555,3.8419,3.8992,3.7543,3.3874,0.0,0.0,0.0,0.0,0.0,0.0,0.0,0.0,0.0,0.0,0.0,0.0,0.0,0.0,0.0,0.0,0.0,0.0,0.0,0.0,0.0,0.0,0.0,0.0,0.0,0.0,0.0,0.0,0.0,0.0,0.0,0.0,0.0,0.0,0.0,0.0,0.0,0.0,2.9208,2.9624,0.0,0.0,0.0,0.0,0.0,0.0,0.0,0.0,2.9219,0.0,0.0,0.0,0.0,0.0,0.0,0.0,0.0,0.0,0.0,0.0,0.0,0.0,0.0,0.0,0.0,0.0,0.0,0.0,0.0,0.0,0.0,0.0,0.0,0.0,0.0,0.0,0.0,0.0,0.0,0.0,0.0,0.0,0.0,0.0,0.0,0.0,0.0,0.0,0.0,0.0,0.0,0.0,0.0,0.0,0.0,0.0,0.0,0.0,0.0,0.0,0.0,0.0,0.0,0.0,0.0,3.5894,3.79,3.8837,3.8716,3.9675,3.9903,3.9296,3.9053,3.7686,3.5201,0.0,0.0,0.0,0.0,0.0,0.0,0.0,0.0,0.0,0.0,0.0,0.0,0.0,0.0,0.0,0.0,0.0,0.0,0.0,0.0,0.0,0.0,0.0,0.0,0.0,0.0,0.0,0.0,0.0,0.0,0.0,0.0,0.0,0.0,0.0,0.0,0.0,0.0,0.0,3.1804,3.1896,0.0,0.0,0.0,0.0,0.0,0.0,0.0,0.0,2.8694,0.0,0.0,0.0,0.0,0.0,0.0,0.0,0.0,0.0,0.0,0.0,0.0,0.0,0.0,0.0,0.0,0.0,0.0,0.0,0.0,0.0,0.0,0.0,0.0,0.0,0.0,0.0,0.0,0.0,0.0,0.0,0.0,0.0,0.0,0.0,0.0,0.0,0.0,0.0,0.0,0.0,0.0,0.0,0.0,0.0,0.0,0.0,0.0,0.0,0.0,0.0,0.0,0.0,0.0,0.0,3.6081,3.8291,3.9501,3.9544,4.0448,4.0489,3.9564,3.973,3.8481,0.0,0.0,0.0,0.0,0.0,0.0,0.0,0.0,0.0,0.0,0.0,0.0,0.0,0.0,0.0,0.0,0.0,0.0,0.0,0.0,0.0,0.0,0.0,0.0,0.0,0.0,0.0,0.0,0.0,0.0,0.0,0.0,0.0,0.0,0.0,0.0,0.0,0.0,0.0,0.0,3.2104,3.1887,3.3981,0.0,0.0,0.0,0.0,0.0,0.0,2.9355,2.7537,0.0,0.0,0.0,0.0,0.0,0.0,0.0,0.0,0.0,0.0,0.0,0.0,0.0,0.0,0.0,0.0,0.0,0.0,0.0,0.0,0.0,0.0,0.0,0.0,0.0,0.0,0.0,0.0,0.0,0.0,0.0,0.0,0.0,0.0,0.0,0.0,0.0,0.0,0.0,0.0,0.0,0.0,0.0,0.0,0.0,0.0,0.0,0.0,0.0,0.0,0.0,0.0,0.0,0.0,0.0,3.629,3.8628,4.0027,4.0365,4.1187,4.1007,3.9833,4.0406,3.9206,0.0,0.0,0.0,0.0,0.0,0.0,0.0,0.0,0.0,0.0,0.0,0.0,0.0,0.0,0.0,0.0,0.0,0.0,0.0,0.0,0.0,0.0,0.0,0.0,0.0,0.0,0.0,0.0,0.0,0.0,0.0,0.0,0.0,0.0,0.0,0.0,0.0,0.0,0.0,0.0,0.0,3.1929,3.3647,3.3218,0.0,0.0,0.0,0.0,3.1182,2.8854,0.0,0.0,0.0,0.0,0.0,0.0,0.0,0.0,0.0,0.0,0.0,0.0,0.0,0.0,0.0,0.0,0.0,0.0,0.0,0.0,0.0,0.0,0.0,0.0,0.0,0.0,0.0,0.0,0.0,0.0,0.0,0.0,0.0,0.0,0.0,0.0,0.0,0.0,0.0,0.0,0.0,0.0,0.0,0.0,0.0,0.0,0.0,0.0,0.0,0.0,0.0,0.0,0.0,0.0,0.0,0.0,3.742,3.9847,4.1078,4.0856,4.1332,4.1332,4.0773,4.0448,3.9351,0.0,0.0,0.0,0.0,0.0,0.0,0.0,0.0,0.0,0.0,0.0,0.0,0.0,0.0,0.0,0.0,0.0,0.0,0.0,0.0,0.0,0.0,0.0,0.0,0.0,0.0,0.0,0.0,0.0,0.0,0.0,0.0,0.0,0.0,0.0,0.0,0.0,0.0,0.0,0.0,0.0,3.3317,3.4132,3.3166,3.2543,0.0,0.0,3.1158,3.0641,2.9309,0.0,0.0,0.0,0.0,0.0,0.0,0.0,0.0,0.0,0.0,0.0,0.0,0.0,0.0,0.0,0.0,0.0,0.0,0.0,0.0,0.0,0.0,0.0,0.0,0.0,0.0,0.0,0.0,0.0,0.0,0.0,0.0,0.0,0.0,0.0,0.0,0.0,0.0,0.0,0.0,0.0,0.0,0.0,0.0,0.0,0.0,0.0,0.0,0.0,0.0,0.0,0.0,0.0,0.0,0.0,3.7844,3.8316,4.0381,4.158,4.1685,4.1892,4.1767,4.1312,4.1374,4.0282,0.0,0.0,0.0,0.0,0.0,0.0,0.0,0.0,0.0,0.0,0.0,0.0,0.0,0.0,0.0,0.0,0.0,0.0,0.0,0.0,0.0,0.0,0.0,0.0,0.0,0.0,0.0,0.0,0.0,0.0,0.0,0.0,0.0,0.0,0.0,0.0,0.0,0.0,0.0,0.0,0.0,0.0,3.3702,3.2803,0.0,0.0,0.0,3.1684,3.1254,0.0,0.0,0.0,0.0,0.0,0.0,0.0,0.0,0.0,0.0,0.0,0.0,0.0,0.0,0.0,0.0,0.0,0.0,0.0,0.0,0.0,0.0,0.0,0.0,0.0,0.0,0.0,0.0,0.0,0.0,0.0,0.0,0.0,0.0,0.0,0.0,0.0,0.0,0.0,0.0,0.0,0.0,0.0,0.0,0.0,0.0,0.0,0.0,0.0,0.0,0.0,0.0,0.0,0.0,0.0,0.0,0.0,3.9171,4.1089,4.2249,4.2617,4.2638,4.241,4.1975,4.2265,0.0,0.0,0.0,0.0,0.0,0.0,0.0,0.0,0.0,0.0,0.0,0.0,0.0,0.0,0.0,0.0,0.0,0.0,0.0,0.0,0.0,0.0,0.0,0.0,0.0,0.0,0.0,2.9141,0.0,0.0,0.0,0.0,0.0,0.0,0.0,0.0,0.0,0.0,0.0,0.0,0.0,0.0,3.1717,3.2973,3.2114,3.1383,0.0,0.0,3.1861,3.1512,3.0266,2.912,0.0,0.0,0.0,0.0,0.0,0.0,0.0,0.0,0.0,0.0,0.0,0.0,0.0,0.0,0.0,0.0,0.0,0.0,0.0,0.0,0.0,0.0,0.0,0.0,0.0,0.0,0.0,0.0,0.0,0.0,0.0,0.0,0.0,0.0,0.0,0.0,0.0,0.0,0.0,0.0,0.0,0.0,0.0,0.0,0.0,0.0,0.0,0.0,0.0,0.0,0.0,0.0,0.0,0.0,0.0,4.0164,4.2294,4.347,4.3511,4.3511,4.3304,4.2849,4.287,4.2,0.0,0.0,0.0,0.0,0.0,0.0,0.0,0.0,0.0,0.0,0.0,0.0,0.0,0.0,0.0,0.0,0.0,0.0,0.0,0.0,0.0,0.0,0.0,0.0,0.0,0.0,0.0,0.0,0.0,0.0,0.0,0.0,0.0,0.0,0.0,0.0,0.0,0.0,0.0,0.0,0.0,3.1003,3.1946,3.0957,3.0445,0.0,0.0,3.1018,3.089,3.056,3.0082,2.9467,0.0,0.0,0.0,0.0,0.0,0.0,0.0,0.0,0.0,0.0,0.0,0.0,0.0,0.0,0.0,0.0,0.0,0.0,0.0,0.0,0.0,0.0,0.0,0.0,0.0,0.0,0.0,0.0,0.0,0.0,0.0,0.0,0.0,0.0,0.0,0.0,0.0,0.0,0.0,0.0,0.0,0.0,0.0,0.0,0.0,0.0,0.0,0.0,0.0,0.0,0.0,0.0,0.0,4.0323,4.1069,4.3014,4.4319,4.4857,4.4608,4.4505,4.4629,4.407,4.318,0.0,0.0,0.0,0.0,0.0,0.0,0.0,0.0,0.0,0.0,0.0,0.0,0.0,0.0,0.0,0.0,0.0,0.0,0.0,0.0,0.0,0.0,0.0,0.0,0.0,0.0,0.0,0.0,3.2685,3.2863,3.2875,0.0,0.0,0.0,0.0,0.0,0.0,0.0,0.0,0.0,0.0,3.1924,3.2353,3.1684,0.0,0.0,3.1431,3.1512,3.1458,3.1315,3.1154,3.0905,3.0302,0.0,0.0,0.0,0.0,0.0,0.0,0.0,0.0,0.0,0.0,0.0,0.0,0.0,0.0,0.0,0.0,0.0,0.0,0.0,0.0,0.0,0.0,0.0,0.0,0.0,0.0,0.0,0.0,0.0,0.0,0.0,0.0,0.0,0.0,0.0,0.0,0.0,0.0,0.0,0.0,0.0,0.0,0.0,0.0,0.0,0.0,0.0,0.0,0.0,0.0,0.0,0.0,4.1151,4.1809,4.3987,4.5374,4.5871,4.583,4.5892,4.6057,4.5333,4.4422,0.0,0.0,0.0,0.0,0.0,0.0,0.0,0.0,0.0,0.0,0.0,0.0,0.0,0.0,0.0,0.0,0.0,0.0,0.0,0.0,0.0,0.0,0.0,0.0,0.0,0.0,0.0,0.0,3.395,3.425,3.3934,0.0,0.0,0.0,0.0,0.0,0.0,0.0,0.0,0.0,0.0,3.2082,3.2245,3.2058,3.1817,3.1753,3.2027,3.226,3.2236,3.2149,3.209,3.209,0.0,0.0,0.0,0.0,0.0,0.0,0.0,0.0,0.0,0.0,0.0,0.0,0.0,0.0,0.0,0.0,0.0,0.0,0.0,0.0,0.0,0.0,0.0,0.0,0.0,0.0,0.0,3.5961,0.0,0.0,3.5889,0.0,0.0,0.0,0.0,0.0,0.0,0.0,0.0,0.0,0.0,0.0,0.0,0.0,0.0,0.0,0.0,0.0,0.0,0.0,0.0,0.0,0.0,4.2285,4.2327,4.5374,4.672,4.6369,4.7196,4.7444,4.6989,4.6513,4.5645,4.4298,0.0,0.0,0.0,0.0,0.0,0.0,0.0,0.0,0.0,0.0,0.0,0.0,0.0,0.0,0.0,0.0,0.0,0.0,0.0,0.0,0.0,0.0,0.0,0.0,0.0,0.0,3.3135,3.4672,3.5645,0.0,0.0,0.0,0.0,0.0,0.0,0.0,0.0,0.0,0.0,3.1663,3.1037,3.1339,3.1635,3.2119,3.272,3.2997,3.3202,3.3172,3.2968,3.2808,0.0,0.0,0.0,0.0,0.0,0.0,0.0,0.0,0.0,0.0,0.0,0.0,0.0,0.0,0.0,0.0,0.0,0.0,0.0,0.0,0.0,0.0,0.0,0.0,0.0,0.0,0.0,3.8948,3.898,0.0,0.0,0.0,0.0,0.0,0.0,0.0,0.0,0.0,0.0,0.0,4.3351,4.4411,0.0,0.0,0.0,0.0,0.0,0.0,0.0,0.0,0.0,0.0,0.0,0.0,4.4109,4.4233,4.6616,4.8003,4.8169,4.8791,4.8852,4.8396,4.7941,4.6761,4.4815,0.0,0.0,0.0,0.0,0.0,0.0,0.0,0.0,0.0,0.0,0.0,0.0,0.0,0.0,0.0,0.0,0.0,0.0,0.0,0.0,0.0,0.0,0.0,0.0,0.0,3.5138,0.0,0.0,0.0,0.0,0.0,0.0,0.0,0.0,0.0,0.0,0.0,3.24,3.1846,3.2357,3.2764,3.2895,3.3378,3.3817,0.0,0.0,0.0,0.0,0.0,0.0,0.0,0.0,0.0,0.0,0.0,0.0,0.0,0.0,3.0848,3.053,3.0246,3.0045,3.0305,0.0,0.0,0.0,0.0,0.0,0.0,0.0,0.0,0.0,0.0,0.0,0.0,0.0,0.0,4.154,0.0,4.1721,0.0,0.0,0.0,0.0,0.0,0.0,0.0,0.0,4.5306,4.6016,4.5788,4.6803,4.6968,0.0,4.6099,4.4712,0.0,0.0,0.0,0.0,0.0,0.0,0.0,0.0,4.5705,4.5788,4.7775,4.906,4.935,4.9785,4.9845,4.9535,4.8977,4.7879,4.6263,4.5561,4.467,0.0,0.0,0.0,0.0,0.0,0.0,0.0,0.0,0.0,0.0,0.0,0.0,0.0,0.0,0.0,0.0,0.0,0.0,0.0,0.0,0.0,0.0,0.0,3.6871,0.0,0.0,0.0,0.0,0.0,0.0,0.0,0.0,0.0,3.0904,3.2079,3.2741,3.2073,3.3276,3.4154,3.3888,0.0,0.0,0.0,0.0,0.0,0.0,0.0,3.5163,3.5046,3.4592,3.4197,3.4095,3.368,3.3296,3.3209,0.0,0.0,3.1845,3.1382,3.1138,3.1224,3.1051,3.0822,3.0723,3.0809,3.1009,0.0,0.0,0.0,0.0,0.0,0.0,0.0,0.0,4.344,4.3679,0.0,4.4066,0.0,0.0,0.0,0.0,0.0,4.4639,0.0,0.0,4.8003,4.8977,4.9744,4.9412,4.9226,4.9226,4.9205,4.8708,4.7693,4.5188,0.0,0.0,0.0,0.0,0.0,0.0,4.7093,4.7175,4.8976,4.991,4.993,5.0322,5.0484,5.0443,4.9618,4.8957,4.8396,4.6802,4.5788,4.5685,4.3573,0.0,0.0,0.0,0.0,0.0,0.0,0.0,0.0,0.0,0.0,0.0,0.0,0.0,0.0,0.0,0.0,0.0,0.0,0.0,0.0,3.8608,0.0,0.0,0.0,0.0,0.0,0.0,0.0,0.0,0.0,0.0,3.1577,3.2295,3.2954,3.3231,0.0,0.0,0.0,0.0,3.5939,3.5401,3.6339,3.6773,3.5899,3.5968,3.6056,3.5811,0.0,0.0,3.5617,3.4948,3.4388,3.4687,3.4329,3.3667,3.264,3.2101,3.1659,3.1394,3.1578,3.1533,3.1028,3.1229,3.1497,4.7722,0.0,0.0,0.0,0.0,4.546,4.5612,4.5875,4.5875,4.5969,4.6151,4.613,0.0,0.0,0.0,0.0,0.0,0.0,4.8149,4.8541,4.9742,5.0653,5.1212,5.1419,5.1688,5.1978,5.1667,5.1377,5.1067,5.0011,4.8459,4.6554,0.0,0.0,0.0,0.0,4.9452,4.9556,5.1274,5.204,5.1708,5.2454,5.2557,5.1915,5.1005,5.0301,4.9845,4.8749,4.7651,4.6638,4.5078,0.0,0.0,0.0,0.0,0.0,0.0,0.0,0.0,0.0,0.0,0.0,0.0,0.0,0.0,0.0,0.0,0.0,0.0,0.0,3.7409,3.743,3.7212,0.0,0.0,0.0,0.0,0.0,0.0,0.0,0.0,0.0,3.4068,3.411,3.4344,0.0,0.0,3.6466,3.629,3.6773,3.7095,3.6919,3.7197,0.0,3.7116,3.7095,3.7124,3.7086,3.646,3.6024,3.6111,3.5508,3.4942,3.4682,3.4553,3.427,3.3505,3.3164,3.2896,3.2664,3.2636,3.2594,3.2341,3.2398,3.2557,5.0777,4.9238,4.8241,4.7816,4.7802,4.7823,4.7978,4.8296,4.8296,4.842,4.8602,4.8602,4.8726,4.8893,4.8396,0.0,0.0,0.0,5.0342,5.078,5.1729,5.2433,5.2888,5.3178,5.3447,5.3696,5.324,5.3116,5.3302,5.2826,5.1874,5.0404,0.0,0.0,4.9618,5.0322,5.0777,5.1025,5.2247,5.2868,5.2785,5.3302,5.3323,5.2785,5.2226,5.1626,5.0984,5.0259,4.9242,4.7874,4.67,4.5821,0.0,0.0,0.0,0.0,0.0,0.0,0.0,0.0,0.0,0.0,0.0,3.7821,3.6807,0.0,0.0,0.0,3.787,3.8221,3.6979,3.74,0.0,0.0,0.0,0.0,0.0,0.0,0.0,3.6052,3.5456,3.5207,3.5836,3.588,3.5939,3.6236,3.6998,3.7431,3.73,0.0,3.787,3.7672,3.7797,3.787,3.7622,3.7527,3.7316,3.6982,3.6506,3.6175,3.6124,3.5767,3.5318,3.5005,3.4898,3.4717,3.4243,3.41,3.377,3.3202,3.3065,3.2996,3.2775,3.2818,3.2873,5.3632,5.3167,5.145,5.0651,5.0621,5.0642,5.0654,5.0632,5.0588,5.086,5.1274,5.1274,5.1522,5.1874,5.1543,0.0,5.1357,5.1652,5.2332,5.3364,5.3611,5.4065,5.4641,5.4641,5.4662,5.4704,5.4086,5.3991,5.4314,5.3692,5.3644,5.402,5.197,5.0833,5.0753,5.1212,5.1626,5.2019,5.2536,5.295,5.3323,5.3302,5.3302,5.3235,5.3235,5.2796,5.1924,5.1408,5.0525,4.9264,4.8283,4.7176,4.599,0.0,0.0,0.0,0.0,0.0,0.0,0.0,0.0,0.0,0.0,0.0,0.0,0.0,0.0,0.0,3.6979,0.0,3.6524,3.7947,0.0,0.0,0.0,3.6004,3.497,3.4827,3.5061,3.5738,0.0,0.0,3.708,3.7446,3.7548,3.7241,3.779,3.8068,3.7746,3.8178,3.8353,3.7782,3.8097,3.8206,3.7673,3.7351,3.6974,3.6285,3.593,3.5893,3.5921,3.5731,3.5532,3.5453,3.5372,3.5164,3.4936,3.4815,3.4482,3.3424,3.3196,3.3102,3.2964,3.2897,3.2978,5.4308,5.4151,5.3696,5.314,5.2554,5.2554,5.2524,5.2516,5.2516,5.2578,5.2681,5.2702,5.2743,5.2888,5.3468,5.3483,5.3147,5.2259,5.2912,5.4587,5.343,5.4039,5.6076,5.6076,5.6262,5.6383,5.4382,5.3381,5.341,5.134,5.0372,5.0428,4.9606,5.0638,5.3452,5.3985,5.411,5.3835,5.4668,5.4958,5.471,5.4379,5.4024,5.3692,5.3624,5.3284,5.2681,5.1885,5.1313,5.0932,4.9167,4.8322,4.8619,4.6852,0.0,0.0,0.0,0.0,0.0,0.0,0.0,0.0,0.0,4.0681,3.8463,0.0,4.014,0.0,3.5366,3.5423,3.6245,3.6236,0.0,0.0,3.5697,3.5952,3.6119,3.5939,3.6027,3.667,3.6817,3.7109,3.7804,3.8104,3.828,3.8207,3.8543,3.8675,3.8382,3.8594,3.8711,3.8308,3.8025,3.7846,3.7694,3.7263,3.6903,3.6701,3.6298,3.5985,3.5985,3.5758,3.5577,3.559,3.5778,3.5725,3.5431,3.5418,3.5205,3.4776,3.4496,3.4374,3.4293,3.4267,3.4226,5.5676,5.5696,5.5696,5.5434,5.4938,5.4337,5.424,5.4331,5.3338,5.3501,5.4426,5.4379,5.3835,5.2995,5.3411,5.2938,5.1718,5.1206,5.1662,5.2796,5.2226,5.2731,5.4152,5.4298,5.4514,5.4678,5.3191,5.2509,5.2387,5.0974,5.0261,5.0243,4.9765,5.0624,5.2726,5.3199,5.3853,5.4834,5.5069,5.454,5.3138,5.2622,5.2482,5.2633,5.239,5.2633,5.3496,5.2887,5.2407,5.2128,5.0768,5.008,5.008,4.8604,4.7357,0.0,0.0,0.0,0.0,0.0,0.0,0.0,0.0,0.0,0.0,0.0,4.0668,3.7524,3.6041,3.5513,3.614,3.5955,3.588,3.6104,3.6119,3.6275,3.6773,3.6656,3.6861,3.7636,3.7739,3.7987,3.8617,3.8865,3.8915,3.8982,3.9377,3.9286,3.8391,3.8338,3.8306,3.8015,3.7814,3.7709,3.7735,3.7524,3.7202,3.6934,3.6611,3.6396,3.641,3.6261,3.6152,3.6165,3.5454,3.4739,3.4532,3.3498,3.2804,3.2792,3.2671,3.3177,3.4663,3.4909,3.471,5.6476,5.6456,5.6476,5.6456,5.6374,5.5213,5.5083,5.5496,5.3609,5.3698,5.5262,5.5262,5.4224,5.2518,5.2467,5.1391,4.9563,4.9671,4.9817,5.013,5.0579,5.0888,5.117,5.1464,5.1629,5.1576,5.131,5.1203,5.115,5.083,5.0616,5.0616,5.0063,4.9884,5.017,5.0424,5.1855,5.4325,5.4098,5.2826,5.0519,5.0128,5.0307,5.0976,5.0408,5.1042,5.3268,5.2945,5.2503,5.2059,5.1562,5.094,5.0117,4.932,4.7686,0.0,4.4321,0.0,0.0,0.0,0.0,0.0,0.0,0.0,0.0,3.9724,4.0636,3.8969,3.7523,3.6597,3.6261,3.6568,3.6817,3.6846,3.689,3.7036,3.7358,3.7402,3.7724,3.8521,3.8608,3.8895,3.9392,3.9514,3.9466,3.9451,3.9824,3.9538,3.8133,3.7976,3.8052,3.7528,3.7619,3.7698,3.7661,3.766,3.7426,3.7011,3.646,3.6429,3.6252,3.5972,3.5844,3.5622,3.406,3.2851,3.2807,3.1037,2.98,3.0111,3.0179,3.0992,3.3405,3.3957,3.4123,5.2676,5.2676,5.2676,5.2676,5.2638,5.238,5.3036,5.4248,5.3843,5.3032,5.203,5.1997,5.1906,5.1803,5.1803,5.154,5.1032,4.9371,4.9566,5.1194,4.96,4.9778,5.1466,5.1592,5.1629,5.1469,4.9776,4.8932,4.8878,4.6615,4.5536,4.5481,4.4932,4.5504,4.724,0.0,0.0,0.0,5.1006,5.1305,5.0855,5.0729,5.056,5.0284,4.8754,0.0,4.8043,4.7992,4.7906,4.7785,4.7032,0.0,0.0,0.0,0.0,0.0,0.0,0.0,0.0,0.0,0.0,0.0,4.0675,4.0335,3.9035,3.8614,3.8224,3.7888,3.756,3.7256,3.6948,3.7446,3.79,3.8097,3.8345,3.869,3.9012,3.9041,3.9143,3.929,3.928,3.9377,3.95,3.9516,3.9407,3.9235,3.9296,3.8916,3.7894,3.8675,3.9171,3.851,3.7798,3.7537,3.7135,3.6939,3.6741,3.6719,3.5126,3.4104,3.3885,3.2429,3.1261,3.1341,3.0892,3.0806,3.0748,3.0335,2.9743,3.0053,3.0006,3.0281,3.072,3.0656,3.0421,5.1629,5.1629,5.1629,5.1629,0.0,5.1629,5.141,5.1149,5.1149,5.0573,4.9797,5.0842,5.0862,4.9991,4.9991,4.9346,4.8284,4.716,4.7269,4.823,4.736,4.7499,4.8574,4.895,4.8956,4.8625,4.766,4.7088,4.6695,4.5319,4.4655,4.464,4.4031,4.4284,4.5369,4.4915,4.6102,4.8824,4.9415,4.9007,4.7705,4.7426,4.7409,4.7583,4.6475,0.0,0.0,0.0,0.0,0.0,0.0,0.0,0.0,0.0,0.0,4.3826,4.3378,4.2673,4.1652,4.1356,4.0802,3.9861,4.0215,4.0078,3.9024,3.8417,3.8119,3.828,3.8573,3.8573,3.8119,3.8631,3.9026,3.9041,3.9173,3.9334,3.948,3.9509,3.9641,3.988,3.9722,3.9592,3.9925,3.9732,3.9542,3.9319,3.8344,3.7433,3.6936,3.7929,3.8335,3.6686,3.6293,3.5668,3.4475,3.4178,3.4284,3.4103,3.3257,3.2559,3.2443,3.1492,3.0757,3.065,2.9908,2.9089,2.897,2.8087,2.7201,2.7201,2.7201,2.7172,2.7091,2.8346,2.9576,5.0759,5.0813,5.083,5.083,5.0813,5.0813,4.9765,4.8092,0.0,0.0,0.0,4.9721,4.954,4.7923,4.7974,4.6983,4.5305,4.5313,4.5345,4.54,4.5647,4.5774,4.5821,4.6441,4.6456,4.5825,4.609,4.5882,4.53,4.5153,4.505,4.4976,4.4452,4.4088,4.4013,4.3297,4.4501,4.7655,4.7897,4.6843,4.4646,4.4165,4.4318,4.5118,4.4284,4.489,4.7127,4.6838,4.6639,4.673,4.6393,4.6173,4.6173,4.5873,4.4744,4.267,4.2245,4.1367,3.9557,3.9451,3.9421,3.9377,4.0168,4.0153,3.8915,3.893,3.9091,3.9348,3.986,3.9948,3.9436,3.989,4.0182,3.9948,3.9977,3.9967,3.9801,3.983,3.9998,4.0249,3.9869,3.9764,4.0191,3.9363,3.8894,3.8551,3.6724,3.5283,3.5014,3.5686,3.58,3.4123,3.3898,3.3454,3.2064,3.1662,3.1492,3.1967,3.1439,3.1029,3.0968,3.0665,3.0372,2.9845,2.8545,2.7427,2.7087,2.5712,2.4188,2.4126,2.4126,2.4126,2.4368,2.6575,2.8442,4.7511,4.7714,4.7714,4.7714,4.7714,4.7714,4.7543,4.7177,4.5989,4.5619,4.5924,4.6241,4.6363,4.6334,4.6711,4.6686,4.6377,4.6648,4.6832,4.6832,4.6822,4.6854,4.687,4.7267,4.7093,4.651,4.6573,4.6296,4.5621,4.4836,4.4394,4.4351,4.3826,4.3401,4.3064,4.2962,4.3058,4.3354,4.5197,4.6006,4.5614,4.5225,4.5123,4.5154,4.3033,4.1966,4.2341,4.2411,4.23,4.23,4.2255,4.2225,4.2225,4.2221,4.1969,4.1607,4.1563,4.1381,4.1104,4.1049,4.0987,4.0753,4.109,4.1002,4.0314,4.0724,4.0888,4.0738,4.0812,4.0812,4.0724,4.1016,4.1309,4.1499,4.1792,4.1696,4.0869,4.0929,4.0647,3.9743,3.9869,3.9685,3.9218,3.7435,3.6044,3.5767,3.3958,3.2097,3.2038,3.2254,3.2247,3.2087,3.2065,3.1939,3.1148,3.1592,3.1261,3.1685,2.9733,2.8481,2.8481,2.7029,2.5931,2.5351,2.5262,2.4945,2.4813,2.4426,2.4158,2.4167,2.4167,2.4158,2.4167,2.4829,2.5043,4.6933,4.7118,4.7061,4.7061,4.7061,4.7061,4.7061,4.7071,4.6393,4.6203,4.6346,4.6346,4.6441,4.66,4.6832,4.6838,4.6911,4.6997,4.6983,4.6808,4.6824,4.6743,4.6596,4.6937,4.6737,4.6143,4.6326,4.6118,4.5488,4.4891,4.4609,4.455,4.415,4.3797,4.3665,4.3665,4.3592,4.3416,4.375,4.3944,4.3944,4.3792,4.3716,4.3716,4.2521,4.1865,4.169,4.169,4.1616,4.1399,4.1602,4.169,4.169,4.185,4.1953,4.1953,4.1968,4.1953,4.1968,4.1953,4.1894,4.1763,4.2041,4.2099,4.1807,4.1719,4.1704,4.1733,4.1951,4.198,4.1819,4.2026,4.2202,4.2158,4.2304,4.209,4.1417,4.1303,4.0542,3.8633,3.8032,3.7406,3.6034,3.443,3.3456,3.3337,3.1261,2.9273,2.8132,2.7838,2.827,2.9306,2.9642,2.897,2.8024,2.7693,2.7739,2.7832,2.693,2.6193,2.6069,2.4964,2.4528,2.4348,2.4348,2.4348,2.4348,2.4348,2.4348,2.4348,2.4348,2.4348,2.4348,2.4283,2.4056,4.7235,4.7315,4.7299,4.7299,4.7357,4.7299,4.7315,4.7299,4.7299,4.7315,4.7283,4.7198,4.7061,4.7134,4.7235,4.7241,4.7141,4.7299,4.7095,4.6742,4.6757,4.6616,4.6401,4.6736,4.6586,4.6012,4.619,4.6004,4.5424,4.507,4.4909,4.488,4.4587,4.4397,4.4323,4.4236,4.4177,4.4045,4.3124,4.267,4.2816,4.2758,4.2714,4.2714,4.2641,4.248,4.2246,4.2216,4.2114,4.1909,4.2099,4.2231,4.2246,4.2465,4.2597,4.2611,4.2611,4.2597,4.2611,4.2597,4.2597,4.2611,4.2904,4.3124,4.3153,4.2743,4.2465,4.2626,4.2802,4.2875,4.2772,4.2759,4.2832,4.2672,4.2469,4.2093,4.1413,4.0902,3.9628,3.7199,3.5931,3.4598,3.2972,3.1658,3.0792,2.9991,2.866,2.6742,2.5141,2.4714,2.5512,2.6557,2.7209,2.6627,2.4677,2.4577,2.4697,2.4584,2.4702,2.4803,2.4749,2.4639,2.4584,2.456,2.4576,2.456,2.4584,2.4584,2.4568,2.4551,2.4551,2.4568,2.4551,2.4381,2.4162,4.7744,4.7998,4.803,4.803,4.803,4.803,4.803,4.803,4.803,4.803,4.7966,4.7362,4.7108,4.7214,4.7685,4.7676,4.7177,4.7785,4.7704,4.7192,4.7162,4.7117,4.7041,4.7422,4.7222,4.6654,4.6638,4.636,4.5775,4.5406,4.5245,4.5216,4.4923,4.4631,4.4338,4.4045,4.3767,4.346,4.3402,4.3548,4.4089,4.3781,4.3635,4.3694,4.3402,4.3255,4.3226,4.3284,4.3211,4.324,4.324,4.327,4.327,4.3314,4.3328,4.3328,4.3328,4.3328,4.3343,4.3328,4.3343,4.3343,4.3592,4.3825,4.4074,4.4059,4.3841,4.3416,4.3328,4.3431,4.3606,4.3192,4.3011,4.3109,4.2734,4.2048,4.0944,3.9231,3.7506,3.6189,3.4003,3.271,3.1764,2.9973,2.7988,2.6547,2.6288,2.5772,2.52,2.4974,2.4966,2.5224,2.5083,2.4976,2.4551,2.4568,2.456,2.4592,2.4592,2.4592,2.4592,2.4592,2.4592,2.4592,2.4592,2.4592,2.4592,2.4592,2.4592,2.4592,2.4592,2.4592,2.4551,2.4356,2.4097,4.8602,4.8745,4.8745,4.8745,4.8745,4.8745,4.8745,4.8745,4.8745,4.8745,4.8653,4.8027,4.7672,4.7456,4.7569,4.7428,4.7203,4.748,4.7346,4.6917,4.6917,4.6839,4.6678,4.6798,4.6686,4.65,4.65,4.6376,4.6068,4.5743,4.5494,4.5304,4.5158,4.5026,4.4894,4.4762,4.4631,4.4514,4.4499,4.4631,4.4748,4.4002,4.3548,4.3533,4.3431,4.3416,4.3416,4.3416,4.3416,4.3431,4.3533,4.3636,4.3636,4.3826,4.3928,4.3928,4.3928,4.4002,4.4206,4.4206,4.4294,4.4484,4.4616,4.4581,4.4334,4.4287,4.4108,4.3658,4.3487,4.3466,4.3477,4.3096,4.2905,4.2985,4.2958,4.201,3.9551,3.8521,3.6625,3.2652,3.1093,2.985,2.8488,2.7292,2.6245,2.5306,2.5331,2.5364,2.5299,2.5209,2.5071,2.4892,2.4714,2.4608,2.4592,2.4592,2.4592,2.4592,2.4592,2.4592,2.4592,2.4592,2.4592,2.4592,2.4592,2.4592,2.4592,2.4592,2.4592,2.4592,2.4592,2.4592,2.4592,2.4397,2.4218,4.9313,4.9218,4.9218,4.9282,4.9361,4.9361,4.9304,4.9201,4.9201,4.908,4.8853,4.8338,4.7956,4.7695,4.7422,4.7254,4.7071,4.7162,4.7022,4.6689,4.6718,4.6647,4.6567,4.6533,4.6533,4.6533,4.6533,4.6533,4.6504,4.6314,4.605,4.5831,4.5728,4.5699,4.5684,4.5611,4.5567,4.5553,4.5567,4.5567,4.5436,4.4645,4.4134,4.3973,4.3884,4.3944,4.3944,4.3899,4.3944,4.3958,4.4104,4.4236,4.4191,4.4455,4.4587,4.4587,4.4587,4.4733,4.5055,4.507,4.5216,4.5509,4.5444,4.5104,4.4729,4.4439,4.4229,4.3976,4.36,4.3361,4.3543,4.3177,4.2935,4.2887,4.2463,4.0726,3.8498,3.715,3.4102,3.008,2.8894,2.761,2.5967,2.5592,2.5518,2.5534,2.5477,2.5477,2.5453,2.5331,2.5169,2.5031,2.4828,2.4665,2.4608,2.4592,2.4592,2.4592,2.4592,2.4592,2.4592,2.4592,2.4592,2.4592,2.4592,2.4592,2.4592,2.4592,2.4616,2.46,2.46,2.4608,2.4592,2.4413,2.4235,4.9536,4.9266,4.9234,4.9428,4.9682,4.9637,4.9506,4.9174,4.9174,4.8865,4.8308,4.7959,4.7719,4.7691,4.7647,4.7313,4.6865,4.7073,4.706,4.6776,4.6742,4.6855,4.7113,4.7192,4.7162,4.7089,4.7089,4.7118,4.7133,4.7133,4.7099,4.7089,4.6767,4.665,4.6592,4.6343,4.6288,4.6226,4.6288,4.6226,4.6226,4.6138,4.5772,4.5275,4.5187,4.5158,4.5172,4.5201,4.5187,4.5201,4.5187,4.5216,4.5216,4.5231,4.5245,4.5245,4.5245,4.5392,4.5684,4.5728,4.5813,4.6043,4.5587,4.5263,4.5274,4.4663,4.4285,4.4501,4.3717,4.3447,4.3915,4.3469,4.298,4.2602,4.0085,3.8443,3.7676,3.3494,3.0652,2.9337,2.7679,2.6389,2.5754,2.5664,2.5672,2.5672,2.5664,2.5656,2.5615,2.5485,2.5372,2.529,2.5079,2.4803,2.4649,2.4592,2.4592,2.4633,2.4649,2.4616,2.46,2.4592,2.4608,2.4616,2.4665,2.4665,2.4616,2.4616,2.4649,2.4657,2.4641,2.4641,2.4665,2.4308,2.4183,5.0682,5.0508,5.0013,4.9905,4.9937,4.9563,4.9328,4.917,4.9186,4.906,4.8761,4.8252,4.8045,4.7966,4.7554,4.7276,4.7024,4.7142,4.7133,4.7045,4.7045,4.7055,4.7206,4.7221,4.7221,4.7221,4.7221,4.7221,4.7221,4.7221,4.7221,4.7221,4.7118,4.6982,4.6967,4.6943,4.6884,4.6884,4.6884,4.6884,4.687,4.6884,4.6753,4.6518,4.6123,4.5918,4.5918,4.5918,4.5918,4.5918,4.5918,4.5918,4.598,4.5918,4.5918,4.5918,4.5918,4.605,4.6266,4.5963,4.5841,4.6144,4.5538,4.4979,4.4708,4.4347,4.4068,4.3823,4.3643,4.3657,4.3789,4.3386,4.2116,4.0313,3.9088,3.6838,3.3756,3.1261,2.9529,2.7891,2.6571,2.6145,2.6013,2.6013,2.5965,2.5859,2.5835,2.5786,2.5672,2.5518,2.5437,2.5396,2.5299,2.5193,2.5136,2.4779,2.4624,2.473,2.4779,2.4795,2.4787,2.4892,2.4933,2.4852,2.4844,2.4876,2.4868,2.4876,2.4876,2.4884,2.486,2.4771,2.4834,2.4484,2.4248,5.1318,5.1192,5.05,5.0263,5.0293,4.966,4.9276,4.9225,4.9176,4.9113,4.8793,4.8395,4.8203,4.8154,4.7706,4.7528,4.7499,4.7323,4.7279,4.7382,4.7382,4.744,4.7528,4.7528,4.7528,4.7528,4.7528,4.7528,4.7528,4.7528,4.7528,4.7528,4.7528,4.7528,4.7528,4.7528,4.7528,4.7528,4.7528,4.7528,4.7528,4.7528,4.7528,4.747,4.7104,4.6767,4.6592,4.6577,4.6577,4.6577,4.6577,4.6577,4.6577,4.6577,4.6577,4.6562,4.6272,4.6233,4.6368,4.5833,4.5538,4.5772,4.5224,4.4582,4.4145,4.3887,4.3271,4.2417,4.2065,4.1959,4.1067,4.0429,3.9725,3.8571,3.7384,3.4885,3.1163,2.9707,2.8277,2.6905,2.6424,2.6241,2.6143,2.6111,2.6013,2.5875,2.5883,2.5875,2.5761,2.5721,2.5664,2.5656,2.5623,2.5583,2.5518,2.5266,2.5104,2.5177,2.5152,2.5112,2.5096,2.5201,2.5201,2.5104,2.5079,2.5055,2.508,2.508,2.508,2.5088,2.4991,2.4941,2.4787,2.4606,2.4411,5.1287,5.113,5.0516,5.0323,5.0444,4.9806,4.9411,4.9171,4.9136,4.8782,4.8364,4.8243,4.8185,4.8178,4.812,4.8113,4.7996,4.7557,4.747,4.7689,4.7718,4.785,4.807,4.807,4.8055,4.807,4.8128,4.8128,4.8084,4.807,4.807,4.8193,4.8084,4.804,4.8128,4.807,4.8113,4.8084,4.807,4.8164,4.8157,4.8084,4.8084,4.8099,4.804,4.7762,4.725,4.7221,4.7235,4.7235,4.7235,4.7235,4.7235,4.7172,4.7157,4.7,4.6259,4.5927,4.6035,4.529,4.4908,4.5026,4.4568,4.4131,4.4003,4.3216,4.1857,4.0026,3.9047,3.8132,3.602,3.5318,3.6076,3.8379,3.4729,3.1722,3.0426,2.8388,2.6655,2.6468,2.6403,2.6306,2.6062,2.6021,2.5989,2.5891,2.5916,2.5981,2.5956,2.6013,2.6151,2.6135,2.6021,2.594,2.5875,2.5802,2.5737,2.5688,2.5623,2.5567,2.5526,2.5567,2.5485,2.5396,2.5282,2.5315,2.5315,2.5315,2.5217,2.5201,2.5169,2.5112,2.4957,2.4763,2.4543,5.0517,5.0438,4.9797,4.96,4.9642,4.8982,4.8603,4.8547,4.8497,4.8432,4.8237,4.8172,4.8172,4.8172,4.8172,4.8172,4.8143,4.7952,4.7923,4.8011,4.8011,4.807,4.8143,4.8172,4.8172,4.8172,4.8172,4.8172,4.8172,4.8172,4.8172,4.8172,4.8172,4.8172,4.8172,4.8172,4.8172,4.8172,4.8172,4.8172,4.8172,4.8172,4.8172,4.8172,4.8157,4.8055,4.7879,4.7865,4.7879,4.7865,4.7879,4.7879,4.78,4.7412,4.7153,4.7074,4.6434,4.5889,4.5712,4.5098,4.4573,4.4403,4.386,4.3487,4.3151,4.1495,4.0041,3.8726,3.7353,3.5581,3.4714,3.2942,3.2462,3.3259,3.1755,2.9793,2.8271,2.6996,2.6414,2.6306,2.6289,2.6273,2.6298,2.6281,2.6241,2.6192,2.6233,2.6249,2.6168,2.6184,2.62,2.6192,2.62,2.6273,2.6224,2.6216,2.6233,2.6127,2.6038,2.5973,2.594,2.5875,2.5794,2.564,2.5542,2.5477,2.5477,2.5469,2.5437,2.5429,2.5396,2.5323,2.5225,2.5039,2.4803,5.0181,5.0116,4.947,4.9211,4.9146,4.8497,4.8172,4.8172,4.8172,4.8172,4.8172,4.8172,4.8172,4.8172,4.8172,4.8172,4.8172,4.8172,4.8172,4.8172,4.8172,4.8172,4.8172,4.8172,4.8172,4.8172,4.8172,4.8172,4.8172,4.8172,4.8172,4.8172,4.8172,4.8172,4.8172,4.8172,4.8172,4.8172,4.8172,4.8172,4.8172,4.8172,4.8172,4.8172,4.8172,4.8172,4.8172,4.8172,4.8172,4.8172,4.8172,4.8092,4.7832,4.7362,4.6985,4.6644,4.6023,4.5437,4.5029,4.4319,4.3796,4.341,4.3022,4.2766,4.2304,4.0284,3.8449,3.6945,3.4575,3.2499,3.1314,2.9938,2.8765,2.8765,2.8851,2.8111,2.6469,2.6208,2.6257,2.6289,2.6314,2.6362,2.6427,2.646,2.6427,2.6395,2.6427,2.6444,2.6346,2.6371,2.6379,2.6403,2.6476,2.6533,2.6566,2.6614,2.6695,2.6505,2.636,2.6362,2.6314,2.6241,2.6151,2.5851,2.5688,2.5599,2.5583,2.5607,2.5599,2.5607,2.5567,2.5477,2.5364,2.5258,2.5055,5.0052,4.9987,4.9405,4.9081,4.9016,4.8432,4.8172,4.8172,4.8172,4.8172,4.8172,4.8172,4.8172,4.8172,4.8172,4.8172,4.8172,4.8172,4.8172,4.8172,4.8172,4.8172,4.8172,4.8172,4.8172,4.8172,4.8172,4.8172,4.8172,4.8172,4.8172,4.8172,4.8172,4.8172,4.8172,4.8172,4.8172,4.8172,4.8172,4.8172,4.8172,4.8172,4.8172,4.8172,4.8172,4.8157,4.8027,4.7912,4.7977,4.8092,4.8027,4.7702,4.7181,4.6985,4.6528,4.6018,4.5101,4.4593,4.4071,4.3548,4.2881,4.2626,4.2482,4.2068,4.1514,3.9148,3.6451,3.4024,3.1357,2.8721,2.6899,2.6174,2.6108,2.5861,2.6481,2.637,2.6251,2.6176,2.6224,2.6362,2.6444,2.6452,2.6452,2.646,2.6403,2.6371,2.6427,2.6484,2.6517,2.6566,2.6695,2.6712,2.6671,2.6671,2.6663,2.6671,2.6736,2.6635,2.6538,2.6582,2.6517,2.6436,2.6338,2.6046,2.5786,2.5713,2.5672,2.5672,2.5672,2.5656,2.5607,2.5567,2.5502,2.5404,2.5299,4.8757,4.8677,4.8547,4.8432,4.8432,4.8222,4.8172,4.8172,4.8172,4.8172,4.8172,4.8172,4.8172,4.8172,4.8172,4.8172,4.8172,4.8172,4.8172,4.8172,4.8172,4.8172,4.8172,4.8172,4.8172,4.8187,4.8201,4.8172,4.8172,4.8172,4.8172,4.8172,4.8172,4.8172,4.8172,4.8172,4.8172,4.8172,4.8172,4.8172,4.8172,4.8172,4.8172,4.8172,4.8172,4.7897,4.7441,4.6869,4.6934,4.7376,4.7376,4.7115,4.6411,4.5887,4.556,4.5218,4.4638,4.4069,4.3734,4.347,4.3167,4.2886,4.2507,4.1723,3.97,3.6929,3.4098,3.1344,2.8603,2.6728,2.5845,2.5688,2.5688,2.568,2.5826,2.5916,2.5989,2.6013,2.607,2.6233,2.6289,2.6354,2.6452,2.6484,2.6501,2.6557,2.6606,2.6647,2.6647,2.6663,2.6736,2.6736,2.672,2.6728,2.6728,2.6728,2.6736,2.6736,2.6704,2.6679,2.6574,2.6436,2.6314,2.6127,2.5818,2.568,2.5672,2.5672,2.5672,2.5672,2.5656,2.5623,2.5632,2.5575,2.5485,4.8172,4.8172,4.8172,4.8172,4.8172,4.8172,4.8172,4.8172,4.8172,4.8172,4.8172,4.8172,4.8172,4.8172,4.8172,4.8172,4.8172,4.8172,4.831,4.8471,4.8523,4.8509,4.8421,4.8427,4.8442,4.8442,4.8427,4.8354,4.8187,4.8172,4.8172,4.8172,4.8172,4.8172,4.8172,4.8172,4.8172,4.8172,4.8172,4.8172,4.8172,4.8172,4.8172,4.8107,4.7897,4.7376,4.6738,4.6294,4.6294,4.6607,4.6673,4.6346,4.5705,4.5245,4.4851,4.4588,4.4193,4.3915,4.3781,4.3728,4.3648,4.3226,4.2364,4.0659,3.8555,3.5329,3.1699,3.0335,2.763,2.6256,2.5924,2.59,2.59,2.5916,2.59,2.5908,2.594,2.6013,2.6127,2.6257,2.6322,2.6387,2.6557,2.6574,2.6631,2.6695,2.6704,2.672,2.6728,2.6736,2.6752,2.676,2.6769,2.6777,2.6785,2.6785,2.6801,2.6801,2.6728,2.6728,2.6614,2.6452,2.6281,2.6111,2.5851,2.5672,2.5672,2.5672,2.5672,2.5672,2.5672,2.5672,2.5672,2.5672,2.5591,4.8172,4.8172,4.8172,4.8172,4.8172,4.8172,4.8172,4.8172,4.8172,4.8172,4.8172,4.8172,4.8172,4.8172,4.8245,4.8296,4.8245,4.8348,4.8479,4.8699,4.8904,4.8948,4.8882,4.8794,4.8699,4.8764,4.8699,4.8589,4.8413,4.8245,4.8201,4.8172,4.8172,4.8172,4.8172,4.8172,4.8172,4.8172,4.8172,4.8172,4.8172,4.8042,4.7897,4.7832,4.705,4.6542,4.6098,4.5836,4.5836,4.585,4.5967,4.5639,4.5048,4.4917,4.4654,4.4206,4.4074,4.3995,4.3995,4.3955,4.3982,4.3506,4.1184,3.9224,3.7739,3.3916,3.0551,2.9485,2.756,2.6402,2.6159,2.6184,2.6159,2.6151,2.6184,2.6143,2.607,2.6135,2.6298,2.646,2.6492,2.6582,2.6671,2.6736,2.6736,2.672,2.6736,2.6736,2.6769,2.674,2.6809,2.6817,2.6825,2.6834,2.6834,2.6842,2.6866,2.6874,2.676,2.6704,2.6631,2.6468,2.6265,2.6054,2.5826,2.5705,2.5672,2.5672,2.5672,2.5672,2.5672,2.5672,2.5672,2.5672,2.5632,4.8172,4.8172,4.8172,4.8172,4.8172,4.8172,4.8172,4.8172,4.8172,4.8172,4.8172,4.8172,4.8187,4.8266,4.8501,4.8618,4.8662,4.8772,4.8977,4.9006,4.9065,4.9269,4.9284,4.9167,4.9035,4.9035,4.9021,4.886,4.8677,4.8589,4.8486,4.823,4.823,4.8172,4.8252,4.8187,4.8172,4.8172,4.8172,4.8172,4.8027,4.7637,4.7376,4.7181,4.6149,4.5494,4.5179,4.4719,4.4456,4.4588,4.4917,4.4917,4.4404,4.4272,4.4206,4.4074,4.4008,4.4008,4.4008,4.4035,4.3956,4.3507,4.0812,3.8352,3.6144,3.2798,2.9624,2.7951,2.6742,2.6362,2.6273,2.6216,2.6241,2.6273,2.6346,2.6395,2.6362,2.6387,2.6492,2.6614,2.6663,2.6695,2.6728,2.6736,2.6736,2.6736,2.6744,2.6744,2.6809,2.689,2.6923,2.6955,2.6996,2.702,2.7028,2.702,2.702,2.6996,2.6874,2.6679,2.6606,2.6419,2.6184,2.5997,2.581,2.5729,2.568,2.5672,2.5672,2.5672,2.5672,2.5672,2.5672,2.5672,2.5672,4.8172,4.8172,4.8172,4.8172,4.8172,4.8172,4.8172,4.8172,4.8172,4.8172,4.8201,4.8384,4.8457,4.8486,4.8713,4.8874,4.8948,4.9196,4.9357,4.9401,4.9504,4.9679,4.9767,4.9665,4.9518,4.9386,4.9357,4.9182,4.8962,4.886,4.8801,4.8611,4.8465,4.8486,4.8413,4.8245,4.8172,4.8172,4.8172,4.8027,4.7637,4.7376,4.6658,4.6201,4.5363,4.4917,4.4522,4.4272,4.4074,4.4074,4.4338,4.4404,4.4074,4.4008,4.4008,4.4008,4.4008,4.4088,4.4155,4.4076,4.3665,4.2397,3.9559,3.6611,3.376,3.0692,2.8507,2.7024,2.6582,2.6549,2.6468,2.646,2.6452,2.6468,2.6533,2.659,2.659,2.659,2.6622,2.6643,2.6728,2.6728,2.6736,2.6752,2.6817,2.6858,2.6899,2.6907,2.7037,2.711,2.7118,2.715,2.7199,2.7231,2.7231,2.7223,2.7207,2.7142,2.7028,2.6785,2.6582,2.6338,2.607,2.5916,2.5778,2.5721,2.5672,2.5672,2.5672,2.5672,2.5672,2.5672,2.5672,2.5672,2.5672,4.8172,4.8172,4.8172,4.8172,4.8172,4.8172,4.8172,4.8172,4.8172,4.8172,4.823,4.8574,4.8662,4.8779,4.9035,4.9196,4.9357,4.9518,4.9694,4.9723,4.9899,5.0001,5.003,4.9986,4.9899,4.9694,4.9679,4.9504,4.9284,4.9182,4.9123,4.9065,4.886,4.875,4.8647,4.8406,4.8165,4.7977,4.7897,4.7572,4.6985,4.6724,4.6018,4.5166,4.4851,4.4522,4.4206,4.4008,4.4008,4.4008,4.4008,4.4008,4.4008,4.4008,4.4008,4.4008,4.4008,4.4088,4.3944,4.3638,4.2435,4.0409,3.709,3.4409,3.1601,2.9223,2.7445,2.6898,2.6712,2.6712,2.6736,2.6619,2.6635,2.6712,2.6659,2.6736,2.6736,2.6736,2.6659,2.6659,2.6736,2.6736,2.676,2.6793,2.689,2.698,2.7028,2.7093,2.7223,2.7313,2.7313,2.7361,2.7418,2.7475,2.7483,2.7467,2.7443,2.737,2.724,2.6972,2.6687,2.6501,2.6273,2.5924,2.577,2.5713,2.568,2.5672,2.5672,2.5672,2.5672,2.5672,2.5672,2.5672,2.5672,4.8172,4.8172,4.8172,4.8172,4.8172,4.8172,4.8172,4.8172,4.8187,4.8237,4.8296,4.8589,4.8764,4.8896,4.9299,4.965,4.984,4.9943,4.9972,4.9986,5.0074,5.0104,5.0104,5.0104,5.0045,5.0045,4.9986,4.9796,4.9591,4.9518,4.943,4.9196,4.9013,4.8896,4.8677,4.8582,4.7934,4.7405,4.7311,4.692,4.628,4.5691,4.5179,4.4324,4.4272,4.4206,4.4074,4.4008,4.4008,4.4008,4.4008,4.4008,4.4008,4.4008,4.4008,4.4008,4.4008,4.3982,4.3506,4.1797,4.0653,3.8783,3.5193,3.2285,3.0534,2.8629,2.6991,2.6769,2.6736,2.6736,2.6736,2.6736,2.6736,2.6736,2.6736,2.6736,2.6736,2.6736,2.6736,2.6736,2.6736,2.6676,2.6769,2.6842,2.6963,2.7077,2.7175,2.7248,2.7353,2.7443,2.75,2.7564,2.7638,2.7694,2.7735,2.7719,2.7694,2.7629,2.75,2.7248,2.6996,2.6793,2.6449,2.6046,2.5794,2.5721,2.5697,2.568,2.5672,2.5672,2.5672,2.5672,2.5672,2.5672,2.5672,4.8172,4.8172,4.8172,4.8172,4.8172,4.8172,4.8172,4.8266,4.8398,4.8486,4.8633,4.8918,4.9152,4.9284,4.9635,4.9972,5.006,5.0104,5.0104,5.0104,5.0104,5.0104,5.0104,5.0104,5.0104,5.0089,5.0089,5.003,4.9884,4.9869,4.9752,4.9516,4.914,4.8679,4.8257,4.774,4.7313,4.6692,4.6542,4.6215,4.5508,4.4851,4.4338,4.414,4.4008,4.4008,4.4008,4.4008,4.4008,4.4008,4.4008,4.4008,4.3942,4.3942,4.3942,4.381,4.3863,4.319,4.2105,4.0143,3.861,3.5246,3.2352,3.046,2.9037,2.7559,2.6736,2.6736,2.6736,2.6736,2.6736,2.6736,2.6736,2.6736,2.6736,2.6736,2.6744,2.6744,2.676,2.6769,2.67,2.6708,2.67,2.6866,2.7028,2.7167,2.7305,2.741,2.75,2.7564,2.7646,2.7678,2.7735,2.7759,2.78,2.78,2.78,2.7776,2.7678,2.7435,2.7199,2.6947,2.6501,2.6005,2.5843,2.5826,2.5697,2.5672,2.5672,2.5672,2.5672,2.5672,2.5672,2.5672,2.5672,4.8172,4.8172,4.8172,4.8172,4.8172,4.831,4.834,4.8398,4.8611,4.8808,4.883,4.9313,4.9577,4.9694,4.9899,5.0104,5.0104,5.0104,5.0104,5.0104,5.0104,5.0104,5.0104,5.0104,5.0104,5.0104,5.0104,5.0104,5.006,5.006,5.0007,4.9567,4.8892,4.8327,4.7908,4.7225,4.6504,4.6082,4.585,4.5508,4.4851,4.4338,4.4008,4.4008,4.4008,4.4008,4.4008,4.4008,4.4008,4.4008,4.3942,4.3731,4.3256,4.3124,4.2859,4.2449,4.278,4.1695,4.0355,3.7796,3.5504,3.2342,3.0732,2.891,2.7756,2.6942,2.6736,2.6736,2.6736,2.6736,2.6736,2.6736,2.6736,2.6736,2.6667,2.6684,2.6801,2.6834,2.6874,2.6866,2.6765,2.674,2.674,2.6972,2.7142,2.7272,2.741,2.7573,2.7662,2.7694,2.7751,2.7768,2.7792,2.7784,2.78,2.78,2.78,2.7792,2.7678,2.7491,2.7264,2.7028,2.6566,2.6084,2.6103,2.6062,2.5875,2.568,2.5672,2.5672,2.5672,2.5672,2.5672,2.5672,2.5672,4.8172,4.8172,4.8172,4.8172,4.823,4.8545,4.8662,4.864,4.8933,4.9065,4.9094,4.9445,4.965,4.9723,4.9957,5.0089,5.0104,5.0104,5.0104,5.0104,5.0104,5.0104,5.0104,5.0104,5.0104,5.0036,5.0036,5.0104,4.9968,4.9968,4.9697,4.918,4.8798,4.8438,4.7411,4.6891,4.6479,4.5657,4.5251,4.4785,4.4259,4.4074,4.4008,4.4008,4.4008,4.4008,4.3876,4.3731,4.3533,4.3599,4.3731,4.2582,4.082,4.021,3.8653,3.7985,3.8453,4.001,3.8465,3.5504,3.2613,3.046,2.8901,2.7345,2.6805,2.6736,2.6736,2.6736,2.6736,2.676,2.6769,2.6752,2.6744,2.6777,2.6817,2.6882,2.6939,2.698,2.702,2.7069,2.7061,2.6939,2.6866,2.7069,2.7264,2.7386,2.7516,2.7686,2.7784,2.78,2.78,2.78,2.78,2.78,2.78,2.78,2.78,2.78,2.767,2.7524,2.7235,2.7,2.668,2.6356,2.6276,2.6041,2.5684,2.5531,2.5631,2.5672,2.5672,2.5672,2.5672,2.5672,2.5672,4.8501,4.8501,4.8501,4.8552,4.8713,4.886,4.8918,4.8991,4.9255,4.9401,4.946,4.9738,4.9884,4.9913,5.006,5.0104,5.0104,5.0104,5.0104,5.0104,5.0104,5.0104,5.0104,5.0104,5.0104,4.9886,4.9683,4.9412,4.948,4.9344,4.9073,4.8408,4.7972,4.7424,4.685,4.6347,4.5588,4.4956,4.4565,4.4272,4.4074,4.4008,4.4008,4.4008,4.3942,4.3876,4.3599,4.2172,4.1629,4.1231,4.0276,3.8665,3.7584,3.7182,3.6568,3.583,3.4831,3.4764,3.4302,3.2284,3.0596,2.891,2.7482,2.6873,2.6736,2.6736,2.6736,2.6736,2.6736,2.6777,2.6866,2.689,2.6963,2.6996,2.698,2.7053,2.7126,2.7142,2.7183,2.724,2.735,2.7167,2.711,2.7296,2.7451,2.75,2.7613,2.7743,2.7808,2.78,2.78,2.78,2.78,2.78,2.78,2.78,2.78,2.7776,2.7575,2.7421,2.7173,2.6946,2.6412,2.6023,2.5796,2.5535,2.536,2.5537,2.5794,2.5737,2.5672,2.5672,2.5672,2.5672,2.5672,4.8816,4.8889,4.8816,4.8918,4.9138,4.9211,4.9255,4.9284,4.9591,4.9738,4.9796,4.9972,5.0089,5.0104,5.0089,5.0104,5.0104,5.0104,5.0104,5.0104,5.0104,4.9968,4.9818,4.9751,4.9683,4.9547,4.8952,4.8598,4.8394,4.8326,4.8054,4.7659,4.725,4.6663,4.6159,4.5698,4.5145,4.4529,4.4315,4.4168,4.4022,4.4008,4.4008,4.3797,4.3388,4.2912,4.2516,4.0143,3.8665,3.8186,3.7104,3.5762,3.4629,3.4292,3.355,3.2535,3.113,3.0382,3.0392,2.9583,2.8705,2.755,2.6736,2.6736,2.6736,2.6736,2.6736,2.6736,2.6736,2.6834,2.6963,2.7004,2.7069,2.715,2.7301,2.7288,2.7329,2.7337,2.7394,2.7491,2.7516,2.7475,2.7467,2.7589,2.7654,2.7646,2.7719,2.7824,2.7824,2.7816,2.78,2.7729,2.7729,2.7729,2.7729,2.7729,2.78,2.7601,2.7393,2.7107,2.6798,2.6165,2.5508,2.5285,2.5238,2.5324,2.5275,2.5581,2.5883,2.577,2.5672,2.5672,2.5672,2.5672,2.5614,4.9269,4.9518,4.9226,4.9138,4.9182,4.946,4.9577,4.9606,4.9913,5.003,5.0016,5.0089,5.0104,5.0104,5.0104,5.0104,5.0104,5.0104,5.0036,5.0036,5.0036,4.9615,4.9276,4.9005,4.8801,4.834,4.8,4.7659,4.7182,4.7182,4.7045,4.684,4.6498,4.6211,4.5516,4.4664,4.4296,4.3982,4.3983,4.4182,4.393,4.3797,4.3599,4.3058,4.1496,3.9944,3.9877,3.7249,3.5695,3.5628,3.4551,3.3347,3.1732,3.1402,3.0518,2.9037,2.8295,2.7756,2.7756,2.7687,2.7148,2.6805,2.6736,2.6736,2.6736,2.6736,2.6736,2.6736,2.6736,2.685,2.6955,2.7037,2.7142,2.7313,2.7426,2.7451,2.7491,2.7524,2.7589,2.7719,2.7727,2.7654,2.7735,2.7832,2.7841,2.7832,2.7857,2.7954,2.7873,2.7841,2.7745,2.7729,2.7729,2.7657,2.7657,2.7515,2.7158,2.6912,2.6629,2.6433,2.6229,2.5508,2.4636,2.4652,2.4684,2.4941,2.5118,2.5125,2.5285,2.5555,2.5606,2.5409,2.5343,2.5285,2.5343,4.9621,4.9899,4.9782,4.9723,4.9738,4.9855,4.9913,4.9928,5.0045,5.0104,5.0104,5.0104,5.0104,5.0104,5.0104,5.0104,5.0104,5.0104,4.9751,4.9547,4.9344,4.8937,4.8544,4.7986,4.8136,4.7523,4.7318,4.7182,4.684,4.5827,4.462,4.4401,4.4895,4.447,4.3667,4.254,4.2126,4.2416,4.3199,4.397,4.3652,4.2105,4.1364,4.1086,3.8587,3.7238,3.6646,3.4225,3.3144,3.2342,3.1189,2.9915,2.9037,2.8696,2.8021,2.695,2.6744,2.676,2.6744,2.6744,2.6736,2.6736,2.6736,2.6736,2.6736,2.6736,2.6736,2.6736,2.6744,2.6842,2.7118,2.7191,2.728,2.7491,2.7605,2.7621,2.7638,2.7654,2.7678,2.7768,2.7792,2.7768,2.7897,2.8044,2.8036,2.8019,2.8052,2.806,2.7979,2.7722,2.7539,2.7308,2.7237,2.6848,2.6769,2.6571,2.6443,2.6241,2.5961,2.5689,2.542,2.453,2.3848,2.3957,2.396,2.4003,2.4165,2.438,2.4687,2.5142,2.5087,2.4749,2.4815,2.4815,2.4815,4.9884,5.0089,5.0104,5.0104,5.0104,5.0104,5.0104,5.0104,5.0104,5.0104,5.0104,5.0104,5.0104,5.0104,5.0104,4.9886,4.9398,4.8705,4.7944,4.6963,4.6062,4.5733,4.5117,4.4568,4.3937,4.4594,4.4204,4.3526,4.3068,4.3225,4.1816,4.1087,4.1755,4.1189,4.047,3.952,3.9113,3.9604,4.0381,4.2246,4.2034,4.099,3.9877,3.9477,3.7171,3.5023,3.3752,3.146,2.9983,2.9242,2.8295,2.7139,2.6805,2.6736,2.6736,2.6752,2.6793,2.6817,2.6809,2.676,2.6676,2.6736,2.6736,2.6736,2.6736,2.6736,2.6736,2.6736,2.6752,2.6882,2.7215,2.7334,2.741,2.7613,2.7703,2.7735,2.7743,2.7751,2.7768,2.78,2.78,2.7808,2.793,2.8084,2.8255,2.8222,2.8206,2.8198,2.8061,2.7708,2.7181,2.688,2.6522,2.6055,2.5596,2.5762,2.5848,2.5717,2.5424,2.4907,2.4387,2.366,2.3172,2.3144,2.3129,2.311,2.3375,2.3828,2.4318,2.4796,2.4567,2.4221,2.4155,2.4155,2.4089,5.0089,5.0104,5.0104,5.0104,5.0104,5.0104,5.0104,5.0104,5.0104,5.0104,5.0104,5.0104,5.0021,5.0036,4.9901,4.9547,4.8448,4.6335,4.4735,4.3911,4.2027,3.9801,3.9152,3.9245,3.9871,3.7626,3.8319,3.8996,3.8012,3.8729,3.7876,3.6834,3.699,3.6968,3.6829,3.6672,3.6473,3.6386,3.6331,3.8118,3.9224,3.9015,3.8343,3.7584,3.5359,3.2738,3.0926,2.9037,2.7824,2.7413,2.7216,2.6736,2.6736,2.6736,2.6676,2.67,2.6915,2.698,2.6996,2.6842,2.6801,2.6785,2.6801,2.6777,2.6752,2.6736,2.6736,2.6736,2.67,2.6931,2.7126,2.7313,2.7524,2.7678,2.7768,2.78,2.78,2.78,2.78,2.78,2.78,2.7824,2.7946,2.8101,2.8377,2.8442,2.8393,2.8271,2.8078,2.7635,2.7021,2.6165,2.5728,2.518,2.4873,2.5168,2.5254,2.5138,2.4758,2.4237,2.3714,2.3168,2.2779,2.2571,2.2579,2.2783,2.3071,2.3416,2.3532,2.359,2.3898,2.3759,2.3626,2.3494,2.3362,5.0104,5.0104,5.0104,5.0104,5.0104,5.0104,5.0104,5.0104,5.0104,5.0104,5.0104,5.0104,4.9765,4.9547,4.9291,4.8937,4.7767,4.5228,4.3349,4.2271,3.9269,3.8267,3.7293,3.6654,3.6859,3.7162,3.7116,3.6676,3.7228,3.6347,3.5223,3.4234,3.2564,3.2013,3.3055,3.3337,3.3179,3.3394,3.4485,3.6073,3.6545,3.5278,3.4302,3.4225,3.1664,2.9779,2.8636,2.7079,2.6805,2.6736,2.6736,2.6736,2.6676,2.6676,2.6801,2.6882,2.702,2.7069,2.7142,2.711,2.7037,2.698,2.6923,2.6874,2.6769,2.6744,2.6736,2.6785,2.6874,2.7045,2.7215,2.7394,2.7581,2.7727,2.78,2.78,2.78,2.78,2.78,2.78,2.78,2.7971,2.8109,2.8222,2.8458,2.8547,2.8441,2.8026,2.7759,2.7382,2.6768,2.5531,2.4768,2.4267,2.4068,2.426,2.431,2.4075,2.3805,2.3437,2.2975,2.2741,2.2618,2.246,2.2462,2.2462,2.2636,2.2603,2.2272,2.2265,2.2774,2.2826,2.2495,2.2495,2.2568,5.0104,5.0104,5.0104,5.0104,5.0104,5.0104,5.0104,5.0104,5.0104,5.0104,5.0036,4.9818,4.948,4.9073,4.8666,4.819,4.71,4.3224,4.1099,3.9953,3.6115,3.4293,3.371,3.4136,3.3327,3.4271,3.434,3.3912,3.3422,3.384,3.2627,3.0673,2.8852,2.9389,3.0149,3.0269,3.0188,3.0443,3.1421,3.2635,3.3004,3.2537,3.1402,3.1004,2.9711,2.8089,2.7139,2.6736,2.6736,2.6736,2.6736,2.6736,2.6676,2.6817,2.6882,2.6988,2.7158,2.7264,2.7418,2.7467,2.7378,2.7231,2.715,2.7053,2.6947,2.6963,2.6955,2.6988,2.7045,2.7175,2.7345,2.7445,2.7542,2.7759,2.78,2.78,2.78,2.78,2.78,2.78,2.7849,2.8044,2.8263,2.8409,2.8563,2.853,2.8553,2.7988,2.7402,2.6776,2.6237,2.5159,2.4131,2.3669,2.3352,2.3247,2.3231,2.3073,2.2968,2.292,2.2852,2.2767,2.2561,2.2425,2.2385,2.2298,2.1977,2.178,2.175,2.1794,2.2104,2.1972,2.1441,2.164,2.1906,5.0104,5.0104,5.0104,5.0104,5.0104,5.0104,5.0104,5.0104,5.0104,5.0104,4.9968,4.9344,4.8937,4.8734,4.8136,4.7455,4.6101,4.1177,3.8952,3.6355,3.3154,3.0825,2.9503,2.9426,3.0122,2.9373,2.9359,3.0543,2.878,2.9733,2.9274,2.839,2.8102,2.8145,2.8242,2.8263,2.8171,2.8391,2.8422,2.9694,3.0384,3.0729,3.0206,2.9924,2.9515,2.8363,2.7413,2.6736,2.6736,2.6736,2.6736,2.6676,2.6732,2.6915,2.698,2.7134,2.7378,2.7573,2.7694,2.7719,2.767,2.75,2.7394,2.7313,2.7231,2.7175,2.715,2.7183,2.724,2.737,2.7437,2.7502,2.7575,2.7727,2.7792,2.78,2.78,2.78,2.78,2.7816,2.7841,2.8011,2.8279,2.8458,2.8555,2.8226,2.8017,2.7424,2.674,2.5883,2.5348,2.4753,2.3856,2.3157,2.2913,2.2839,2.2798,2.2852,2.2913,2.2879,2.2825,2.2757,2.2601,2.2466,2.2384,2.2201,2.193,2.1699,2.1516,2.1661,2.1773,2.1707,2.1375,2.1375,2.1567,5.0104,5.0104,5.0104,5.0104,5.0104,5.0104,5.0104,5.0104,5.0104,4.9818,4.9276,4.9073,4.8394,4.7455,4.7182,4.6717,4.4905,4.2412,3.9428,3.6177,3.2648,3.0522,2.9196,2.8539,2.8604,2.8693,2.8742,2.8693,2.8572,2.8344,2.8174,2.8083,2.7881,2.7784,2.7727,2.7719,2.7475,2.7231,2.6972,2.758,2.8063,2.8397,2.8363,2.8363,2.8363,2.7482,2.7095,2.6692,2.6692,2.6692,2.6684,2.6708,2.6947,2.7004,2.7077,2.7394,2.7597,2.7751,2.7792,2.78,2.7776,2.7727,2.7646,2.7491,2.737,2.7375,2.7383,2.7361,2.7426,2.7532,2.7589,2.7654,2.7703,2.7751,2.78,2.78,2.78,2.78,2.7808,2.7832,2.7857,2.8068,2.8328,2.8531,2.8538,2.7993,2.7463,2.6876,2.6148,2.53,2.4723,2.4203,2.3729,2.3103,2.29,2.2798,2.273,2.2703,2.2784,2.2825,2.2744,2.2662,2.2588,2.2472,2.233,2.2147,2.193,2.1726,2.155,2.1462,2.1501,2.1441,2.1375,2.1375,2.1375,5.0104,5.0104,5.0104,4.9968,4.9683,4.9683,4.9547,4.9359,4.9562,4.9276,4.8598,4.819,4.7659,4.6936,4.6689,4.629,4.5614,4.1483,3.8606,3.6991,3.3548,3.0642,2.9028,2.8718,2.8775,2.8864,2.888,2.8815,2.8653,2.8458,2.8279,2.8165,2.7995,2.7832,2.7703,2.7556,2.7305,2.7093,2.6915,2.685,2.6724,2.6667,2.6736,2.6752,2.6744,2.6785,2.6842,2.6842,2.6866,2.6931,2.6947,2.6988,2.7142,2.7191,2.7329,2.7613,2.7711,2.7784,2.78,2.78,2.78,2.78,2.78,2.7694,2.7597,2.7532,2.7524,2.754,2.7605,2.7662,2.7694,2.7727,2.7768,2.78,2.78,2.78,2.78,2.78,2.7824,2.7849,2.7979,2.8174,2.8385,2.858,2.8439,2.7861,2.7166,2.6423,2.5717,2.4935,2.446,2.3989,2.3628,2.3198,2.3008,2.2812,2.269,2.2669,2.2757,2.2764,2.2669,2.2628,2.2601,2.2432,2.2235,2.2065,2.1916,2.1767,2.1611,2.1523,2.1375,2.1375,2.1375,2.1375,2.1375,5.0104,5.0104,5.0036,4.9615,4.9059,4.8937,4.8558,4.7974,4.8601,4.8422,4.7741,4.7223,4.6909,4.6648,4.6507,4.6351,4.5238,4.217,3.9525,3.7763,3.389,3.0825,2.9242,2.888,2.8864,2.888,2.888,2.8864,2.8823,2.8645,2.8442,2.8344,2.8182,2.7962,2.7678,2.754,2.7296,2.6972,2.6988,2.7012,2.6748,2.6684,2.6692,2.6777,2.6817,2.6874,2.6996,2.7061,2.7102,2.7215,2.7256,2.724,2.7329,2.7451,2.7629,2.7711,2.7784,2.7792,2.78,2.78,2.78,2.78,2.78,2.7776,2.7719,2.7686,2.7678,2.7678,2.7719,2.7735,2.7759,2.7768,2.7792,2.78,2.78,2.78,2.78,2.7816,2.7849,2.7842,2.7812,2.7924,2.7931,2.8048,2.7526,2.7299,2.6802,2.5984,2.5285,2.4465,2.4268,2.3904,2.368,2.3402,2.3144,2.2934,2.269,2.2656,2.2737,2.2683,2.2581,2.2588,2.2628,2.2445,2.2249,2.2086,2.193,2.1801,2.1665,2.1496,2.1375,2.1375,2.1375,2.1375,2.1375,5.0104,5.0036,4.948,4.9141,4.8937,4.8408,4.7867,4.7457,4.7595,4.7471,4.7127,4.7073,4.6838,4.6478,4.6525,4.652,4.5735,4.4017,4.18,3.8991,3.5253,3.1556,2.953,2.8888,2.8888,2.8888,2.8888,2.8888,2.8848,2.8718,2.8596,2.8531,2.836,2.8092,2.7768,2.7638,2.741,2.6963,2.6988,2.6996,2.6793,2.6874,2.6955,2.698,2.7028,2.711,2.7191,2.7215,2.7231,2.7342,2.7342,2.7337,2.7475,2.7646,2.7743,2.7792,2.78,2.78,2.78,2.78,2.78,2.78,2.78,2.78,2.78,2.78,2.78,2.78,2.78,2.78,2.78,2.78,2.78,2.78,2.78,2.78,2.78,2.7832,2.7865,2.774,2.7635,2.7575,2.7571,2.7196,2.6667,2.6207,2.5909,2.5314,2.4792,2.4229,2.4222,2.4005,2.3917,2.3666,2.3354,2.3076,2.2832,2.2683,2.2723,2.2628,2.2506,2.2493,2.2493,2.2425,2.2283,2.2133,2.2004,2.1896,2.174,2.155,2.1375,2.1375,2.1375,2.1375,2.1375,5.0104,5.0021,4.9276,4.8598,4.8014,4.773,4.7361,4.6891,4.6944,4.6917,4.6726,4.6861,4.6734,4.6426,4.668,4.6814,4.6586,4.5468,4.1966,3.8929,3.6424,3.2786,3.0556,2.8888,2.8888,2.8888,2.8888,2.888,2.8864,2.8815,2.8734,2.8693,2.8531,2.8279,2.7954,2.7816,2.7548,2.7045,2.7028,2.6931,2.6777,2.6858,2.6963,2.702,2.711,2.7231,2.7378,2.7402,2.7451,2.7483,2.7532,2.7556,2.7654,2.7735,2.7784,2.78,2.78,2.78,2.78,2.78,2.78,2.78,2.78,2.78,2.78,2.78,2.78,2.78,2.78,2.78,2.78,2.78,2.78,2.78,2.78,2.78,2.78,2.7816,2.7611,2.7324,2.7208,2.7161,2.7088,2.6888,2.6334,2.5835,2.5314,2.4941,2.4419,2.4121,2.4121,2.41,2.3992,2.3782,2.3449,2.3205,2.2988,2.2866,2.2737,2.2642,2.2554,2.2425,2.2344,2.2337,2.231,2.2221,2.2099,2.1971,2.1815,2.1625,2.1516,2.1375,2.1375,2.1375,2.1375,5.0036,4.9901,4.9141,4.8054,4.695,4.7017,4.6835,4.6376,4.6547,4.6707,4.6804,4.6817,4.672,4.6774,4.6974,4.7068,4.675,4.5732,4.2216,3.8387,3.585,3.274,3.0417,2.8888,2.8888,2.8888,2.8888,2.8888,2.888,2.8856,2.884,2.8848,2.8669,2.8425,2.8125,2.7865,2.7556,2.7207,2.7069,2.698,2.6882,2.6809,2.6939,2.7028,2.7118,2.728,2.7413,2.7534,2.7678,2.7711,2.7743,2.7751,2.7759,2.7784,2.7792,2.78,2.78,2.78,2.78,2.78,2.78,2.78,2.78,2.78,2.78,2.78,2.78,2.78,2.78,2.78,2.78,2.78,2.78,2.78,2.78,2.78,2.78,2.7745,2.7293,2.6915,2.6723,2.668,2.6495,2.6282,2.588,2.5381,2.5016,2.4643,2.4345,2.4195,2.4121,2.41,2.4039,2.3802,2.3537,2.3347,2.3151,2.2934,2.2798,2.2696,2.2581,2.2439,2.235,2.2344,2.2296,2.2242,2.2147,2.2025,2.1862,2.1699,2.1611,2.1516,2.1375,2.1375,2.1375,4.9751,4.9141,4.8408,4.7605,4.6826,4.6549,4.6458,4.6573,4.6854,4.7108,4.7241,4.7295,4.7228,4.7001,4.7282,4.7388,4.7149,4.5959,4.254,3.8554,3.6663,3.3254,3.0343,2.8888,2.8888,2.8888,2.8888,2.8888,2.8888,2.8888,2.8888,2.8872,2.8701,2.8442,2.8117,2.7873,2.7646,2.7337,2.7223,2.7183,2.7175,2.715,2.7175,2.7313,2.7508,2.7638,2.7743,2.7751,2.7776,2.7792,2.78,2.78,2.78,2.78,2.78,2.78,2.78,2.78,2.78,2.78,2.78,2.78,2.78,2.78,2.78,2.78,2.78,2.78,2.78,2.78,2.78,2.78,2.78,2.78,2.78,2.78,2.78,2.7436,2.6957,2.647,2.599,2.5824,2.5585,2.5299,2.4853,2.4494,2.4494,2.4195,2.4195,2.4195,2.4121,2.41,2.4073,2.391,2.3693,2.3517,2.3314,2.3076,2.2846,2.2717,2.2581,2.2439,2.2302,2.235,2.2254,2.2207,2.2174,2.2086,2.1923,2.1774,2.1699,2.1611,2.1502,2.1375,2.1375]},{"header":{"parameterUnit":"m.s-1","parameterCategory":1,"la1":31.0,"la2":29.5877,"lo1":-88.7671,"lo2":-86.6584,"dx":0.0162,"dy":0.0185,"nx":115,"ny":88,"refTime":"2022-12-17T06:00:00:Z","depth":0,"parameterNumber":3,"parameterNumberName":"V-component_of_WINDS"},"data":[0.0,0.0,0.0,0.0,0.0,0.0,0.0,0.0,0.0,0.0,0.0,0.0,0.0,0.0,0.0,0.0,0.0,0.0,0.0,0.0,0.0,0.0,0.0,0.0,0.0,0.0,0.0,0.0,0.0,0.0,0.0,0.0,0.0,0.0,0.0,0.0,0.0,0.0,0.0,0.0,0.0,0.0,0.0,0.0,0.0,0.0,0.0,0.0,0.0,0.0,0.0,0.0,0.0,0.0,0.0,0.0,0.0,0.0,0.0,0.0,0.0,0.0,0.0,0.0,0.0,0.0,0.0,0.0,0.0,0.0,0.0,0.0,0.0,0.0,0.0,0.0,0.0,0.0,0.0,0.0,0.0,0.0,0.0,0.0,0.0,0.0,0.0,0.0,0.0,0.0,0.0,0.0,0.0,0.0,0.0,0.0,0.0,0.0,0.0,0.0,0.0,0.0,0.0,0.0,0.0,0.0,0.0,0.0,0.0,0.0,0.0,0.0,0.0,0.0,0.0,0.0,0.0,0.0,0.0,0.0,0.0,0.0,0.0,0.0,0.0,0.0,0.0,0.0,0.0,0.0,0.0,0.0,0.0,0.0,0.0,0.0,0.0,0.0,0.0,0.0,0.0,0.0,0.0,0.0,0.0,0.0,0.0,0.0,0.0,0.0,0.0,0.0,0.0,0.0,0.0,0.0,0.0,0.0,0.0,0.0,0.0,0.0,0.0,0.0,0.0,0.0,0.0,0.0,0.0,0.0,0.0,0.0,0.0,0.0,0.0,0.0,0.0,0.0,0.0,0.0,0.0,0.0,0.0,0.0,0.0,0.0,0.0,0.0,0.0,0.0,0.0,0.0,0.0,0.0,0.0,0.0,0.0,0.0,0.0,0.0,0.0,0.0,0.0,0.0,0.0,0.0,0.0,0.0,0.0,0.0,0.0,0.0,0.0,0.0,0.0,0.0,0.0,0.0,0.0,0.0,0.0,0.0,0.0,0.0,0.0,0.0,0.0,0.0,0.0,0.0,0.0,0.0,0.0,0.0,0.0,0.0,0.0,0.0,0.0,0.0,0.0,0.0,0.0,0.0,0.0,0.0,0.0,0.0,0.0,0.0,0.0,0.0,0.0,0.0,0.0,0.0,0.0,0.0,0.0,0.0,0.0,0.0,0.0,0.0,0.0,0.0,0.0,0.0,0.0,0.0,0.0,0.0,0.0,0.0,0.0,0.0,0.0,0.0,0.0,0.0,0.0,0.0,0.0,0.0,0.0,0.0,0.0,0.0,0.0,0.0,0.0,0.0,0.0,0.0,0.0,0.0,0.0,0.0,0.0,0.0,0.0,0.0,0.0,0.0,0.0,0.0,0.0,0.0,0.0,0.0,0.0,0.0,0.0,0.0,0.0,0.0,0.0,0.0,0.0,0.0,0.0,0.0,0.0,0.0,0.0,0.0,0.0,0.0,0.0,0.0,0.0,0.0,0.0,0.0,0.0,0.0,0.0,0.0,0.0,0.0,0.0,0.0,0.0,0.0,0.0,0.0,0.0,0.0,0.0,0.0,0.0,0.0,0.0,0.0,0.0,0.0,0.0,0.0,0.0,0.0,0.0,0.0,0.0,0.0,0.0,0.0,0.0,0.0,0.0,0.0,0.0,0.0,0.0,0.0,0.0,0.0,0.0,0.0,0.0,0.0,0.0,0.0,0.0,0.0,0.0,0.0,0.0,0.0,0.0,0.0,0.0,0.0,0.0,0.0,0.0,0.0,0.0,0.0,0.0,0.0,0.0,0.0,0.0,0.0,0.0,0.0,0.0,0.0,0.0,0.0,0.0,0.0,0.0,0.0,0.0,0.0,0.0,0.0,0.0,0.0,0.0,0.0,0.0,0.0,0.0,0.0,0.0,0.0,0.0,0.0,0.0,0.0,0.0,0.0,0.0,0.0,0.0,0.0,0.0,0.0,0.0,0.0,0.0,0.0,0.0,0.0,0.0,0.0,0.0,0.0,0.0,0.0,0.0,0.0,0.0,0.0,0.0,0.0,0.0,0.0,0.0,0.0,0.0,0.0,0.0,0.0,0.0,0.0,0.0,0.0,0.0,0.0,0.0,0.0,0.0,0.0,0.0,0.0,0.0,0.0,0.0,0.0,0.0,0.0,0.0,0.0,0.0,0.0,0.0,0.0,0.0,0.0,0.0,0.0,0.0,0.0,0.0,0.0,0.0,0.0,0.0,0.0,0.0,0.0,0.0,0.0,0.0,0.0,0.0,0.0,0.0,0.0,0.0,0.0,0.0,0.0,0.0,0.0,0.0,0.0,0.0,0.0,0.0,0.0,0.0,0.0,0.0,0.0,0.0,0.0,0.0,0.0,0.0,0.0,0.0,0.0,0.0,0.0,0.0,0.0,0.0,0.0,0.0,0.0,0.0,0.0,0.0,0.0,0.0,0.0,0.0,0.0,0.0,0.0,0.0,0.0,0.0,0.0,0.0,0.0,0.0,0.0,0.0,0.0,0.0,0.0,0.0,0.0,0.0,0.0,0.0,0.0,0.0,0.0,0.0,0.0,0.0,0.0,0.0,0.0,0.0,0.0,0.0,0.0,0.0,0.0,0.0,0.0,0.0,0.0,0.0,0.0,0.0,0.0,0.0,0.0,0.0,0.0,0.0,0.0,0.0,0.0,0.0,0.0,0.0,0.0,0.0,0.0,0.0,0.0,0.0,0.0,0.0,0.0,0.0,0.0,0.0,0.0,0.0,0.0,0.0,0.0,0.0,0.0,0.0,0.0,0.0,0.0,0.0,0.0,0.0,0.0,0.0,0.0,0.0,0.0,0.0,0.0,0.0,0.0,0.0,0.0,0.0,0.0,0.0,0.0,0.0,0.0,0.0,0.0,0.0,0.0,0.0,0.0,0.0,0.0,0.0,0.0,0.0,0.0,0.0,0.0,0.0,0.0,0.0,0.0,0.0,0.0,0.0,0.0,0.0,0.0,0.0,0.0,0.0,0.0,0.0,0.0,0.0,0.0,0.0,0.0,0.0,0.0,0.0,0.0,0.0,0.0,0.0,0.0,0.0,0.0,0.0,0.0,0.0,0.0,0.0,0.0,0.0,0.0,0.0,0.0,0.0,0.0,0.0,0.0,0.0,0.0,0.0,0.0,0.0,0.0,0.0,0.0,0.0,0.0,0.0,0.0,0.0,0.0,0.0,0.0,0.0,0.0,0.0,0.0,0.0,0.0,0.0,0.0,0.0,0.0,0.0,0.0,0.0,0.0,0.0,0.0,0.0,0.0,0.0,0.0,0.0,0.0,0.0,0.0,0.0,0.0,0.0,0.0,0.0,0.0,0.0,0.0,0.0,0.0,0.0,0.0,0.0,0.0,0.0,0.0,0.0,0.0,0.0,0.0,0.0,0.0,0.0,0.0,0.0,0.0,0.0,0.0,0.0,0.0,0.0,0.0,0.0,0.0,0.0,0.0,0.0,0.0,0.0,0.0,0.0,0.0,0.0,0.0,0.0,0.0,0.0,0.0,0.0,0.0,0.0,0.0,0.0,0.0,0.0,0.0,0.0,0.0,0.0,0.0,0.0,0.0,0.0,0.0,0.0,0.0,0.0,0.0,0.0,0.0,0.0,0.0,0.0,0.0,0.0,0.0,0.0,0.0,0.0,0.0,0.0,0.0,0.0,0.0,0.0,0.0,0.0,0.0,0.0,0.0,0.0,0.0,0.0,0.0,0.0,0.0,0.0,0.0,0.0,0.0,0.0,0.0,0.0,0.0,0.0,0.0,0.0,0.0,0.0,0.0,0.0,0.0,0.0,0.0,0.0,0.0,0.0,0.0,0.0,0.0,0.0,0.0,0.0,0.0,0.0,0.0,0.0,0.0,0.0,0.0,0.0,0.0,0.0,0.0,0.0,0.0,0.0,0.0,0.0,0.0,0.0,0.0,0.0,0.0,0.0,0.0,0.0,0.0,0.0,0.0,0.0,0.0,0.0,0.0,0.0,0.0,0.0,0.0,0.0,0.0,0.0,0.0,0.0,0.0,0.0,0.0,0.0,0.0,0.0,0.0,0.0,0.0,0.0,0.0,0.0,0.0,0.0,0.0,0.0,0.0,0.0,0.0,0.0,0.0,0.0,0.0,0.0,0.0,0.0,0.0,0.0,0.0,0.0,0.0,0.0,0.0,0.0,0.0,0.0,0.0,0.0,0.0,0.0,0.0,0.0,0.0,0.0,0.0,0.0,0.0,0.0,0.0,0.0,0.0,0.0,0.0,3.1655,0.0,0.0,0.0,3.3799,0.0,0.0,0.0,0.0,0.0,0.0,0.0,0.0,0.0,0.0,0.0,0.0,0.0,0.0,0.0,0.0,0.0,0.0,0.0,0.0,0.0,0.0,0.0,0.0,0.0,0.0,0.0,0.0,0.0,0.0,0.0,0.0,0.0,0.0,0.0,0.0,0.0,0.0,0.0,0.0,0.0,0.0,0.0,0.0,0.0,0.0,0.0,0.0,0.0,0.0,0.0,0.0,0.0,0.0,0.0,0.0,0.0,0.0,0.0,0.0,0.0,0.0,0.0,0.0,0.0,0.0,0.0,0.0,0.0,0.0,0.0,0.0,0.0,0.0,0.0,0.0,0.0,0.0,0.0,0.0,0.0,0.0,0.0,0.0,0.0,0.0,0.0,0.0,0.0,0.0,0.0,0.0,0.0,0.0,0.0,0.0,0.0,0.0,0.0,0.0,0.0,0.0,0.0,0.0,0.0,0.0,0.0,0.0,0.0,0.0,3.2177,3.2497,3.2554,3.3018,3.3879,0.0,0.0,0.0,0.0,0.0,0.0,0.0,0.0,0.0,0.0,0.0,0.0,0.0,0.0,0.0,0.0,0.0,0.0,0.0,0.0,0.0,0.0,0.0,0.0,0.0,0.0,0.0,0.0,0.0,0.0,0.0,0.0,0.0,0.0,0.0,0.0,0.0,0.0,0.0,0.0,0.0,0.0,0.0,0.0,0.0,0.0,0.0,0.0,0.0,0.0,0.0,0.0,0.0,0.0,0.0,0.0,0.0,0.0,0.0,0.0,0.0,0.0,0.0,0.0,0.0,0.0,0.0,0.0,0.0,0.0,0.0,0.0,0.0,0.0,0.0,0.0,0.0,0.0,0.0,0.0,0.0,0.0,0.0,0.0,0.0,0.0,0.0,0.0,0.0,0.0,0.0,0.0,0.0,0.0,0.0,0.0,0.0,0.0,0.0,0.0,0.0,0.0,0.0,0.0,0.0,0.0,0.0,0.0,0.0,0.0,0.0,0.0,3.3807,3.4349,3.4699,0.0,0.0,0.0,0.0,0.0,0.0,0.0,0.0,0.0,0.0,0.0,0.0,0.0,0.0,0.0,0.0,0.0,0.0,0.0,0.0,0.0,0.0,0.0,0.0,0.0,0.0,0.0,0.0,0.0,0.0,0.0,0.0,0.0,0.0,0.0,0.0,0.0,0.0,0.0,0.0,0.0,0.0,0.0,0.0,0.0,0.0,0.0,0.0,0.0,0.0,0.0,0.0,0.0,0.0,0.0,0.0,0.0,0.0,0.0,0.0,0.0,0.0,0.0,0.0,0.0,0.0,0.0,0.0,0.0,0.0,0.0,0.0,0.0,0.0,0.0,0.0,0.0,0.0,0.0,0.0,0.0,0.0,0.0,0.0,0.0,0.0,0.0,0.0,0.0,0.0,0.0,0.0,0.0,0.0,0.0,0.0,0.0,0.0,0.0,0.0,0.0,0.0,0.0,0.0,0.0,0.0,0.0,0.0,0.0,0.0,3.4521,3.5107,3.5842,0.0,3.8108,0.0,0.0,0.0,0.0,0.0,0.0,0.0,0.0,0.0,0.0,0.0,0.0,0.0,0.0,0.0,0.0,0.0,0.0,0.0,0.0,0.0,0.0,0.0,0.0,0.0,0.0,0.0,0.0,0.0,0.0,0.0,0.0,0.0,0.0,0.0,0.0,0.0,0.0,0.0,0.0,0.0,0.0,0.0,0.0,0.0,0.0,0.0,0.0,0.0,0.0,0.0,0.0,0.0,0.0,0.0,0.0,0.0,0.0,0.0,0.0,0.0,0.0,0.0,0.0,0.0,0.0,0.0,0.0,0.0,0.0,0.0,0.0,0.0,0.0,0.0,0.0,0.0,0.0,0.0,0.0,0.0,0.0,0.0,0.0,0.0,0.0,0.0,0.0,0.0,0.0,0.0,0.0,0.0,0.0,0.0,0.0,0.0,0.0,0.0,0.0,0.0,0.0,0.0,0.0,0.0,0.0,0.0,0.0,0.0,0.0,3.551,3.6619,3.7311,3.7954,0.0,0.0,0.0,0.0,0.0,0.0,0.0,0.0,0.0,0.0,0.0,0.0,0.0,0.0,0.0,0.0,0.0,0.0,0.0,0.0,0.0,0.0,0.0,0.0,0.0,0.0,0.0,0.0,0.0,0.0,0.0,0.0,0.0,0.0,0.0,0.0,0.0,0.0,0.0,0.0,0.0,0.0,0.0,0.0,0.0,0.0,0.0,0.0,0.0,0.0,0.0,0.0,0.0,0.0,0.0,0.0,0.0,0.0,0.0,0.0,0.0,0.0,0.0,0.0,0.0,0.0,0.0,0.0,0.0,0.0,0.0,0.0,0.0,0.0,0.0,0.0,0.0,0.0,0.0,0.0,0.0,0.0,0.0,0.0,0.0,0.0,0.0,0.0,0.0,0.0,0.0,0.0,0.0,0.0,0.0,0.0,0.0,0.0,0.0,0.0,0.0,0.0,0.0,0.0,0.0,0.0,0.0,0.0,0.0,0.0,3.5857,3.6822,3.8529,3.8731,3.8871,3.9034,0.0,0.0,0.0,0.0,0.0,0.0,0.0,0.0,0.0,0.0,0.0,0.0,0.0,0.0,0.0,0.0,0.0,0.0,0.0,0.0,0.0,0.0,0.0,0.0,0.0,0.0,0.0,0.0,0.0,0.0,0.0,0.0,0.0,0.0,0.0,0.0,0.0,0.0,0.0,0.0,0.0,0.0,0.0,0.0,0.0,0.0,0.0,0.0,0.0,0.0,0.0,0.0,0.0,0.0,0.0,0.0,0.0,0.0,0.0,0.0,0.0,0.0,0.0,0.0,0.0,0.0,0.0,0.0,0.0,0.0,0.0,0.0,0.0,0.0,0.0,0.0,0.0,0.0,0.0,0.0,0.0,0.0,0.0,0.0,0.0,0.0,0.0,0.0,0.0,0.0,0.0,0.0,0.0,0.0,0.0,0.0,0.0,0.0,0.0,0.0,0.0,0.0,0.0,0.0,0.0,0.0,0.0,0.0,3.6236,3.7036,3.8686,4.1217,4.013,3.9825,0.0,0.0,0.0,0.0,0.0,0.0,0.0,0.0,0.0,0.0,0.0,0.0,0.0,0.0,0.0,0.0,0.0,0.0,0.0,0.0,0.0,0.0,0.0,0.0,0.0,0.0,0.0,0.0,0.0,0.0,0.0,0.0,0.0,0.0,0.0,0.0,0.0,0.0,0.0,0.0,0.0,0.0,0.0,0.0,0.0,0.0,0.0,0.0,0.0,0.0,0.0,0.0,0.0,0.0,0.0,0.0,0.0,0.0,0.0,0.0,0.0,0.0,0.0,0.0,0.0,0.0,0.0,0.0,0.0,0.0,0.0,0.0,0.0,0.0,0.0,0.0,0.0,0.0,0.0,0.0,0.0,0.0,0.0,0.0,0.0,0.0,0.0,0.0,0.0,0.0,0.0,0.0,0.0,0.0,0.0,0.0,0.0,0.0,0.0,0.0,0.0,0.0,0.0,0.0,0.0,0.0,0.0,0.0,0.0,3.7113,3.9046,4.0364,4.0854,4.0866,4.083,0.0,0.0,0.0,0.0,0.0,0.0,0.0,0.0,0.0,0.0,0.0,0.0,0.0,0.0,0.0,0.0,0.0,0.0,0.0,0.0,0.0,0.0,0.0,0.0,0.0,0.0,0.0,0.0,0.0,0.0,0.0,0.0,0.0,0.0,0.0,0.0,0.0,0.0,0.0,0.0,0.0,0.0,0.0,0.0,0.0,0.0,0.0,0.0,0.0,0.0,0.0,0.0,0.0,0.0,0.0,0.0,0.0,0.0,0.0,0.0,0.0,0.0,0.0,0.0,0.0,0.0,0.0,0.0,0.0,0.0,0.0,0.0,0.0,0.0,0.0,0.0,0.0,0.0,0.0,0.0,0.0,0.0,0.0,0.0,0.0,0.0,0.0,0.0,0.0,0.0,0.0,0.0,0.0,0.0,0.0,0.0,0.0,0.0,0.0,0.0,0.0,0.0,0.0,0.0,0.0,0.0,0.0,0.0,0.0,3.8884,4.1294,4.238,4.1938,4.2147,4.2015,0.0,0.0,0.0,0.0,0.0,0.0,0.0,0.0,0.0,0.0,0.0,0.0,0.0,0.0,0.0,0.0,0.0,0.0,0.0,0.0,0.0,0.0,0.0,0.0,0.0,0.0,0.0,0.0,0.0,0.0,0.0,0.0,0.0,0.0,0.0,0.0,0.0,0.0,0.0,0.0,0.0,0.0,0.0,0.0,0.0,0.0,0.0,0.0,0.0,0.0,0.0,0.0,0.0,0.0,0.0,0.0,0.0,0.0,0.0,0.0,0.0,0.0,0.0,0.0,0.0,0.0,0.0,0.0,0.0,0.0,0.0,0.0,0.0,0.0,0.0,0.0,0.0,0.0,0.0,0.0,0.0,0.0,0.0,0.0,0.0,0.0,0.0,0.0,0.0,0.0,0.0,0.0,0.0,0.0,0.0,0.0,0.0,0.0,0.0,0.0,0.0,0.0,0.0,0.0,0.0,0.0,0.0,0.0,3.9681,4.1655,4.3654,4.4648,4.4771,4.401,4.3442,0.0,0.0,0.0,0.0,0.0,0.0,0.0,0.0,0.0,0.0,0.0,0.0,0.0,0.0,0.0,0.0,0.0,0.0,0.0,0.0,0.0,0.0,0.0,0.0,0.0,0.0,0.0,0.0,0.0,0.0,0.0,0.0,0.0,0.0,0.0,0.0,0.0,0.0,0.0,0.0,0.0,0.0,0.0,0.0,0.0,0.0,0.0,0.0,0.0,0.0,0.0,0.0,0.0,0.0,0.0,0.0,0.0,0.0,0.0,0.0,0.0,0.0,0.0,0.0,0.0,0.0,0.0,0.0,0.0,0.0,0.0,0.0,0.0,0.0,0.0,0.0,0.0,0.0,0.0,0.0,0.0,0.0,0.0,0.0,0.0,0.0,0.0,0.0,0.0,0.0,0.0,0.0,0.0,0.0,0.0,0.0,0.0,0.0,0.0,0.0,0.0,0.0,0.0,0.0,0.0,0.0,0.0,0.0,0.0,4.317,4.5149,4.5749,4.4852,4.4561,4.4221,0.0,0.0,0.0,0.0,0.0,0.0,0.0,0.0,0.0,0.0,0.0,0.0,0.0,0.0,0.0,0.0,0.0,0.0,0.0,0.0,0.0,0.0,0.0,0.0,0.0,0.0,0.0,0.0,0.0,0.0,0.0,0.0,0.0,0.0,0.0,0.0,0.0,0.0,0.0,0.0,0.0,0.0,0.0,0.0,0.0,0.0,0.0,0.0,0.0,0.0,0.0,0.0,0.0,0.0,0.0,0.0,0.0,0.0,0.0,0.0,0.0,0.0,0.0,0.0,0.0,0.0,0.0,0.0,0.0,0.0,0.0,0.0,0.0,0.0,0.0,0.0,0.0,0.0,0.0,0.0,0.0,0.0,0.0,0.0,0.0,0.0,0.0,0.0,0.0,0.0,0.0,0.0,0.0,0.0,0.0,0.0,0.0,0.0,0.0,0.0,0.0,0.0,0.0,0.0,0.0,0.0,0.0,0.0,0.0,4.6277,4.767,4.7849,4.6407,4.5597,4.5031,4.4659,0.0,0.0,0.0,0.0,0.0,0.0,0.0,0.0,0.0,0.0,0.0,0.0,0.0,0.0,0.0,0.0,0.0,0.0,0.0,0.0,0.0,0.0,0.0,0.0,0.0,0.0,0.0,0.0,0.0,0.0,0.0,0.0,0.0,0.0,0.0,0.0,0.0,0.0,0.0,0.0,0.0,0.0,0.0,0.0,0.0,0.0,0.0,0.0,0.0,0.0,0.0,0.0,0.0,0.0,0.0,0.0,0.0,0.0,0.0,0.0,0.0,0.0,0.0,0.0,0.0,0.0,0.0,0.0,0.0,0.0,0.0,0.0,0.0,0.0,0.0,0.0,0.0,0.0,0.0,0.0,0.0,0.0,0.0,0.0,0.0,0.0,0.0,0.0,0.0,0.0,0.0,0.0,0.0,0.0,0.0,0.0,0.0,0.0,0.0,0.0,0.0,0.0,0.0,0.0,0.0,0.0,0.0,0.0,5.0214,5.0959,5.0617,4.9062,4.7087,4.5921,0.0,0.0,0.0,0.0,0.0,0.0,0.0,0.0,0.0,0.0,0.0,0.0,0.0,0.0,0.0,0.0,0.0,0.0,0.0,0.0,0.0,0.0,0.0,0.0,0.0,0.0,0.0,0.0,0.0,0.0,0.0,0.0,0.0,0.0,0.0,0.0,0.0,0.0,0.0,0.0,0.0,0.0,0.0,0.0,0.0,0.0,0.0,0.0,0.0,0.0,0.0,0.0,0.0,0.0,0.0,0.0,0.0,0.0,0.0,0.0,0.0,0.0,0.0,0.0,0.0,0.0,0.0,0.0,0.0,0.0,0.0,0.0,0.0,0.0,0.0,0.0,0.0,0.0,0.0,0.0,0.0,0.0,0.0,0.0,0.0,0.0,0.0,0.0,0.0,0.0,0.0,0.0,0.0,0.0,0.0,0.0,0.0,0.0,0.0,0.0,0.0,0.0,0.0,0.0,0.0,0.0,0.0,0.0,0.0,5.1215,5.2721,5.2442,5.0123,4.881,4.7495,0.0,0.0,0.0,0.0,0.0,0.0,0.0,0.0,0.0,0.0,0.0,0.0,0.0,0.0,0.0,0.0,0.0,0.0,0.0,0.0,0.0,0.0,0.0,0.0,0.0,0.0,0.0,0.0,0.0,0.0,0.0,0.0,0.0,0.0,0.0,0.0,0.0,0.0,0.0,0.0,0.0,0.0,0.0,0.0,0.0,0.0,0.0,0.0,0.0,0.0,0.0,0.0,0.0,0.0,0.0,0.0,0.0,0.0,0.0,0.0,0.0,0.0,0.0,0.0,0.0,0.0,0.0,0.0,0.0,0.0,0.0,0.0,0.0,0.0,0.0,0.0,0.0,0.0,0.0,0.0,0.0,0.0,0.0,0.0,0.0,0.0,0.0,0.0,0.0,0.0,0.0,0.0,0.0,0.0,0.0,0.0,0.0,0.0,0.0,0.0,0.0,0.0,0.0,0.0,0.0,0.0,0.0,0.0,5.3415,5.3901,5.5185,5.4912,5.2988,5.1043,4.9278,0.0,0.0,0.0,0.0,0.0,0.0,0.0,0.0,0.0,0.0,0.0,0.0,0.0,0.0,0.0,0.0,0.0,0.0,0.0,0.0,0.0,0.0,0.0,0.0,0.0,0.0,0.0,0.0,0.0,0.0,0.0,0.0,0.0,0.0,0.0,0.0,0.0,0.0,0.0,0.0,0.0,0.0,0.0,0.0,0.0,0.0,0.0,0.0,0.0,0.0,0.0,0.0,0.0,0.0,0.0,0.0,0.0,0.0,0.0,0.0,0.0,0.0,0.0,0.0,0.0,0.0,0.0,0.0,0.0,0.0,0.0,0.0,0.0,0.0,0.0,0.0,0.0,0.0,0.0,0.0,0.0,0.0,0.0,0.0,0.0,0.0,0.0,0.0,0.0,0.0,0.0,0.0,0.0,0.0,0.0,0.0,0.0,0.0,0.0,0.0,0.0,0.0,0.0,0.0,0.0,0.0,0.0,0.0,5.6319,5.7306,5.7723,5.7511,5.658,5.3572,5.1204,0.0,0.0,0.0,0.0,0.0,0.0,0.0,0.0,0.0,0.0,0.0,0.0,0.0,0.0,0.0,0.0,0.0,0.0,0.0,0.0,0.0,0.0,0.0,0.0,0.0,0.0,0.0,0.0,0.0,0.0,0.0,0.0,0.0,0.0,0.0,0.0,0.0,0.0,0.0,0.0,0.0,0.0,0.0,0.0,0.0,0.0,0.0,0.0,0.0,0.0,0.0,0.0,0.0,0.0,0.0,0.0,0.0,0.0,0.0,0.0,0.0,0.0,0.0,0.0,0.0,0.0,0.0,0.0,0.0,0.0,0.0,0.0,0.0,0.0,0.0,0.0,0.0,0.0,0.0,0.0,0.0,0.0,0.0,0.0,0.0,0.0,0.0,0.0,0.0,0.0,0.0,0.0,0.0,0.0,0.0,0.0,0.0,0.0,0.0,0.0,0.0,0.0,0.0,0.0,0.0,0.0,0.0,0.0,5.6769,5.8252,5.8244,5.8199,5.8115,5.6006,5.3319,0.0,0.0,0.0,0.0,0.0,0.0,0.0,0.0,0.0,0.0,0.0,0.0,0.0,0.0,0.0,0.0,0.0,0.0,0.0,0.0,0.0,0.0,0.0,0.0,0.0,0.0,0.0,0.0,0.0,0.0,0.0,0.0,0.0,0.0,0.0,0.0,0.0,0.0,0.0,0.0,0.0,0.0,0.0,0.0,0.0,0.0,0.0,0.0,4.9754,0.0,0.0,0.0,0.0,0.0,0.0,0.0,0.0,0.0,0.0,0.0,0.0,0.0,0.0,0.0,0.0,0.0,0.0,0.0,0.0,0.0,0.0,0.0,0.0,0.0,0.0,0.0,0.0,0.0,0.0,0.0,0.0,0.0,0.0,0.0,0.0,0.0,0.0,0.0,0.0,0.0,0.0,0.0,0.0,0.0,0.0,0.0,0.0,0.0,0.0,0.0,0.0,0.0,0.0,0.0,0.0,0.0,0.0,0.0,5.7745,5.9709,6.0247,6.0226,5.9775,5.9037,5.6389,0.0,0.0,0.0,0.0,0.0,0.0,0.0,0.0,0.0,0.0,0.0,0.0,0.0,0.0,0.0,0.0,0.0,0.0,0.0,0.0,0.0,0.0,0.0,0.0,0.0,0.0,0.0,0.0,0.0,0.0,0.0,0.0,0.0,0.0,0.0,0.0,0.0,0.0,0.0,0.0,0.0,0.0,0.0,0.0,0.0,0.0,0.0,0.0,0.0,0.0,0.0,0.0,0.0,0.0,0.0,0.0,0.0,0.0,0.0,0.0,0.0,0.0,0.0,0.0,0.0,0.0,0.0,0.0,0.0,0.0,0.0,0.0,0.0,0.0,0.0,0.0,0.0,0.0,0.0,0.0,0.0,0.0,0.0,0.0,0.0,0.0,0.0,0.0,0.0,0.0,0.0,0.0,0.0,0.0,0.0,0.0,0.0,0.0,0.0,0.0,0.0,0.0,0.0,0.0,0.0,0.0,0.0,5.6942,5.918,6.1197,6.2483,6.2615,6.1483,6.1723,5.9358,5.4144,0.0,0.0,0.0,0.0,0.0,0.0,0.0,0.0,0.0,0.0,0.0,0.0,0.0,0.0,0.0,0.0,0.0,0.0,0.0,0.0,0.0,0.0,0.0,0.0,0.0,0.0,0.0,0.0,0.0,0.0,0.0,0.0,0.0,0.0,0.0,0.0,0.0,0.0,4.6742,4.8047,0.0,0.0,0.0,0.0,0.0,0.0,0.0,0.0,5.2985,0.0,0.0,0.0,0.0,0.0,0.0,0.0,0.0,0.0,0.0,0.0,0.0,0.0,0.0,0.0,0.0,0.0,0.0,0.0,0.0,0.0,0.0,0.0,0.0,0.0,0.0,0.0,0.0,0.0,0.0,0.0,0.0,0.0,0.0,0.0,0.0,0.0,0.0,0.0,0.0,0.0,0.0,0.0,0.0,0.0,0.0,0.0,0.0,0.0,0.0,0.0,0.0,0.0,0.0,0.0,0.0,5.7165,5.9779,6.1405,6.2034,6.3416,6.378,6.2962,6.2423,6.0237,5.6401,0.0,0.0,0.0,0.0,0.0,0.0,0.0,0.0,0.0,0.0,0.0,0.0,0.0,0.0,0.0,0.0,0.0,0.0,0.0,0.0,0.0,0.0,0.0,0.0,0.0,0.0,0.0,0.0,0.0,0.0,0.0,0.0,0.0,0.0,0.0,0.0,0.0,0.0,0.0,5.1521,5.1923,0.0,0.0,0.0,0.0,0.0,0.0,0.0,0.0,5.6621,0.0,0.0,0.0,0.0,0.0,0.0,0.0,0.0,0.0,0.0,0.0,0.0,0.0,0.0,0.0,0.0,0.0,0.0,0.0,0.0,0.0,0.0,0.0,0.0,0.0,0.0,0.0,0.0,0.0,0.0,0.0,0.0,0.0,0.0,0.0,0.0,0.0,0.0,0.0,0.0,0.0,0.0,0.0,0.0,0.0,0.0,0.0,0.0,0.0,0.0,0.0,0.0,0.0,0.0,0.0,5.7186,6.0687,6.2833,6.336,6.473,6.4796,6.3393,6.3658,6.1583,0.0,0.0,0.0,0.0,0.0,0.0,0.0,0.0,0.0,0.0,0.0,0.0,0.0,0.0,0.0,0.0,0.0,0.0,0.0,0.0,0.0,0.0,0.0,0.0,0.0,0.0,0.0,0.0,0.0,0.0,0.0,0.0,0.0,0.0,0.0,0.0,0.0,0.0,0.0,0.0,5.3761,5.5022,5.7689,0.0,0.0,0.0,0.0,0.0,0.0,5.9609,5.9137,0.0,0.0,0.0,0.0,0.0,0.0,0.0,0.0,0.0,0.0,0.0,0.0,0.0,0.0,0.0,0.0,0.0,0.0,0.0,0.0,0.0,0.0,0.0,0.0,0.0,0.0,0.0,0.0,0.0,0.0,0.0,0.0,0.0,0.0,0.0,0.0,0.0,0.0,0.0,0.0,0.0,0.0,0.0,0.0,0.0,0.0,0.0,0.0,0.0,0.0,0.0,0.0,0.0,0.0,0.0,5.7239,6.1444,6.3979,6.4597,6.5834,6.5624,6.3824,6.4664,6.2742,0.0,0.0,0.0,0.0,0.0,0.0,0.0,0.0,0.0,0.0,0.0,0.0,0.0,0.0,0.0,0.0,0.0,0.0,0.0,0.0,0.0,0.0,0.0,0.0,0.0,0.0,0.0,0.0,0.0,0.0,0.0,0.0,0.0,0.0,0.0,0.0,0.0,0.0,0.0,0.0,0.0,5.8048,6.0312,6.0549,0.0,0.0,0.0,0.0,6.2627,6.2143,0.0,0.0,0.0,0.0,0.0,0.0,0.0,0.0,0.0,0.0,0.0,0.0,0.0,0.0,0.0,0.0,0.0,0.0,0.0,0.0,0.0,0.0,0.0,0.0,0.0,0.0,0.0,0.0,0.0,0.0,0.0,0.0,0.0,0.0,0.0,0.0,0.0,0.0,0.0,0.0,0.0,0.0,0.0,0.0,0.0,0.0,0.0,0.0,0.0,0.0,0.0,0.0,0.0,0.0,0.0,0.0,5.9666,6.3077,6.5026,6.5304,6.6065,6.6065,6.5171,6.473,6.2974,0.0,0.0,0.0,0.0,0.0,0.0,0.0,0.0,0.0,0.0,0.0,0.0,0.0,0.0,0.0,0.0,0.0,0.0,0.0,0.0,0.0,0.0,0.0,0.0,0.0,0.0,0.0,0.0,0.0,0.0,0.0,0.0,0.0,0.0,0.0,0.0,0.0,0.0,0.0,0.0,0.0,6.0494,6.1338,6.2706,6.4129,0.0,0.0,6.6629,6.7041,6.7506,0.0,0.0,0.0,0.0,0.0,0.0,0.0,0.0,0.0,0.0,0.0,0.0,0.0,0.0,0.0,0.0,0.0,0.0,0.0,0.0,0.0,0.0,0.0,0.0,0.0,0.0,0.0,0.0,0.0,0.0,0.0,0.0,0.0,0.0,0.0,0.0,0.0,0.0,0.0,0.0,0.0,0.0,0.0,0.0,0.0,0.0,0.0,0.0,0.0,0.0,0.0,0.0,0.0,0.0,0.0,5.9907,6.1318,6.4311,6.614,6.6628,6.696,6.6761,6.6032,6.6132,6.4465,0.0,0.0,0.0,0.0,0.0,0.0,0.0,0.0,0.0,0.0,0.0,0.0,0.0,0.0,0.0,0.0,0.0,0.0,0.0,0.0,0.0,0.0,0.0,0.0,0.0,0.0,0.0,0.0,0.0,0.0,0.0,0.0,0.0,0.0,0.0,0.0,0.0,0.0,0.0,0.0,0.0,0.0,6.4058,6.5704,0.0,0.0,0.0,6.8926,6.9079,0.0,0.0,0.0,0.0,0.0,0.0,0.0,0.0,0.0,0.0,0.0,0.0,0.0,0.0,0.0,0.0,0.0,0.0,0.0,0.0,0.0,0.0,0.0,0.0,0.0,0.0,0.0,0.0,0.0,0.0,0.0,0.0,0.0,0.0,0.0,0.0,0.0,0.0,0.0,0.0,0.0,0.0,0.0,0.0,0.0,0.0,0.0,0.0,0.0,0.0,0.0,0.0,0.0,0.0,0.0,0.0,0.0,6.2764,6.5757,6.7612,6.8119,6.8152,6.7787,6.7092,6.7556,0.0,0.0,0.0,0.0,0.0,0.0,0.0,0.0,0.0,0.0,0.0,0.0,0.0,0.0,0.0,0.0,0.0,0.0,0.0,0.0,0.0,0.0,0.0,0.0,0.0,0.0,0.0,4.6692,0.0,0.0,0.0,0.0,0.0,0.0,0.0,0.0,0.0,0.0,0.0,0.0,0.0,0.0,6.476,6.7232,6.877,7.0177,0.0,0.0,7.1247,7.1616,7.2066,7.2074,0.0,0.0,0.0,0.0,0.0,0.0,0.0,0.0,0.0,0.0,0.0,0.0,0.0,0.0,0.0,0.0,0.0,0.0,0.0,0.0,0.0,0.0,0.0,0.0,0.0,0.0,0.0,0.0,0.0,0.0,0.0,0.0,0.0,0.0,0.0,0.0,0.0,0.0,0.0,0.0,0.0,0.0,0.0,0.0,0.0,0.0,0.0,0.0,0.0,0.0,0.0,0.0,0.0,0.0,0.0,6.4354,6.7767,6.9566,6.9633,6.9633,6.9301,6.8572,6.8606,6.7214,0.0,0.0,0.0,0.0,0.0,0.0,0.0,0.0,0.0,0.0,0.0,0.0,0.0,0.0,0.0,0.0,0.0,0.0,0.0,0.0,0.0,0.0,0.0,0.0,0.0,0.0,0.0,0.0,0.0,0.0,0.0,0.0,0.0,0.0,0.0,0.0,0.0,0.0,0.0,0.0,0.0,6.7347,7.0609,7.173,7.3388,0.0,0.0,7.4885,7.574,7.5284,7.4339,7.2818,0.0,0.0,0.0,0.0,0.0,0.0,0.0,0.0,0.0,0.0,0.0,0.0,0.0,0.0,0.0,0.0,0.0,0.0,0.0,0.0,0.0,0.0,0.0,0.0,0.0,0.0,0.0,0.0,0.0,0.0,0.0,0.0,0.0,0.0,0.0,0.0,0.0,0.0,0.0,0.0,0.0,0.0,0.0,0.0,0.0,0.0,0.0,0.0,0.0,0.0,0.0,0.0,0.0,6.4531,6.5724,6.8837,7.0924,7.1786,7.1388,7.1223,7.1421,7.0527,6.9103,0.0,0.0,0.0,0.0,0.0,0.0,0.0,0.0,0.0,0.0,0.0,0.0,0.0,0.0,0.0,0.0,0.0,0.0,0.0,0.0,0.0,0.0,0.0,0.0,0.0,0.0,0.0,0.0,5.373,5.4626,5.4984,0.0,0.0,0.0,0.0,0.0,0.0,0.0,0.0,0.0,0.0,7.0662,7.1926,7.3968,0.0,0.0,7.6827,7.6667,7.7617,7.7507,7.7108,7.6492,7.4882,0.0,0.0,0.0,0.0,0.0,0.0,0.0,0.0,0.0,0.0,0.0,0.0,0.0,0.0,0.0,0.0,0.0,0.0,0.0,0.0,0.0,0.0,0.0,0.0,0.0,0.0,0.0,0.0,0.0,0.0,0.0,0.0,0.0,0.0,0.0,0.0,0.0,0.0,0.0,0.0,0.0,0.0,0.0,0.0,0.0,0.0,0.0,0.0,0.0,0.0,0.0,0.0,6.5856,6.6827,7.0394,7.2614,7.3409,7.3343,7.3442,7.3707,7.2548,7.109,0.0,0.0,0.0,0.0,0.0,0.0,0.0,0.0,0.0,0.0,0.0,0.0,0.0,0.0,0.0,0.0,0.0,0.0,0.0,0.0,0.0,0.0,0.0,0.0,0.0,0.0,0.0,0.0,5.6571,5.7711,5.7897,0.0,0.0,0.0,0.0,0.0,0.0,0.0,0.0,0.0,0.0,7.3456,7.3938,7.6101,7.7893,7.8467,7.8651,7.8978,7.9662,7.9571,7.9426,7.9426,0.0,0.0,0.0,0.0,0.0,0.0,0.0,0.0,0.0,0.0,0.0,0.0,0.0,0.0,0.0,0.0,0.0,0.0,0.0,0.0,0.0,0.0,0.0,0.0,0.0,0.0,0.0,5.3252,0.0,0.0,5.3207,0.0,0.0,0.0,0.0,0.0,0.0,0.0,0.0,0.0,0.0,0.0,0.0,0.0,0.0,0.0,0.0,0.0,0.0,0.0,0.0,0.0,0.0,6.7589,6.7655,7.2614,7.4859,7.4296,7.5529,7.5927,7.529,7.4528,7.3136,7.0891,0.0,0.0,0.0,0.0,0.0,0.0,0.0,0.0,0.0,0.0,0.0,0.0,0.0,0.0,0.0,0.0,0.0,0.0,0.0,0.0,0.0,0.0,0.0,0.0,0.0,0.0,5.542,5.8642,6.0969,0.0,0.0,0.0,0.0,0.0,0.0,0.0,0.0,0.0,0.0,7.3808,7.5511,7.7202,7.8177,7.9372,8.0857,8.1672,8.2179,8.2233,8.1599,8.1074,0.0,0.0,0.0,0.0,0.0,0.0,0.0,0.0,0.0,0.0,0.0,0.0,0.0,0.0,0.0,0.0,0.0,0.0,0.0,0.0,0.0,0.0,0.0,0.0,0.0,0.0,0.0,5.8914,5.9455,0.0,0.0,0.0,0.0,0.0,0.0,0.0,0.0,0.0,0.0,0.0,6.9041,7.0728,0.0,0.0,0.0,0.0,0.0,0.0,0.0,0.0,0.0,0.0,0.0,0.0,7.0503,7.0702,7.4602,7.6821,7.7086,7.7987,7.8179,7.745,7.6722,7.4833,7.172,0.0,0.0,0.0,0.0,0.0,0.0,0.0,0.0,0.0,0.0,0.0,0.0,0.0,0.0,0.0,0.0,0.0,0.0,0.0,0.0,0.0,0.0,0.0,0.0,0.0,5.9727,0.0,0.0,0.0,0.0,0.0,0.0,0.0,0.0,0.0,0.0,0.0,7.3743,7.5597,7.86,8.0839,8.1418,8.2613,8.37,0.0,0.0,0.0,0.0,0.0,0.0,0.0,0.0,0.0,0.0,0.0,0.0,0.0,0.0,7.7567,7.5801,7.4863,7.4481,7.5008,0.0,0.0,0.0,0.0,0.0,0.0,0.0,0.0,0.0,0.0,0.0,0.0,0.0,0.0,6.3661,0.0,6.4475,0.0,0.0,0.0,0.0,0.0,0.0,0.0,0.0,7.2242,7.3641,7.3276,7.49,7.5165,0.0,7.3773,7.1554,0.0,0.0,0.0,0.0,0.0,0.0,0.0,0.0,7.3144,7.3276,7.6457,7.8418,7.8881,7.9577,7.9769,7.9272,7.8285,7.653,7.3947,7.2912,7.1488,0.0,0.0,0.0,0.0,0.0,0.0,0.0,0.0,0.0,0.0,0.0,0.0,0.0,0.0,0.0,0.0,0.0,0.0,0.0,0.0,0.0,0.0,0.0,6.4592,0.0,0.0,0.0,0.0,0.0,0.0,0.0,0.0,0.0,7.2475,7.5117,7.7721,7.9012,8.236,8.4533,8.4008,0.0,0.0,0.0,0.0,0.0,0.0,0.0,8.7032,8.6742,8.5619,8.4642,8.4388,8.3755,8.3194,8.2976,0.0,0.0,7.9946,7.891,7.8671,7.8889,7.8327,7.7998,7.8624,7.8465,7.8596,0.0,0.0,0.0,0.0,0.0,0.0,0.0,0.0,6.7132,6.7582,0.0,6.8262,0.0,0.0,0.0,0.0,0.0,7.1092,0.0,0.0,7.6821,7.8285,7.951,7.898,7.8682,7.8682,7.8649,7.7855,7.6324,7.2316,0.0,0.0,0.0,0.0,0.0,0.0,7.5455,7.5588,7.8378,7.9775,7.9808,8.0531,8.089,8.0824,7.9405,7.8252,7.745,7.4808,7.3276,7.3111,6.9732,0.0,0.0,0.0,0.0,0.0,0.0,0.0,0.0,0.0,0.0,0.0,0.0,0.0,0.0,0.0,0.0,0.0,0.0,0.0,0.0,6.6703,0.0,0.0,0.0,0.0,0.0,0.0,0.0,0.0,0.0,0.0,7.8033,7.9807,8.1563,8.2378,0.0,0.0,0.0,0.0,8.8951,8.7483,8.9801,9.1016,8.8715,8.9024,8.9241,8.8497,0.0,0.0,8.8155,8.7876,8.7719,8.8483,8.8706,8.7705,8.3663,8.295,8.2744,8.2051,8.2398,8.2415,8.1228,8.1486,8.2053,7.2874,0.0,0.0,0.0,0.0,6.9919,7.0658,7.1836,7.1836,7.2331,7.3233,7.32,0.0,0.0,0.0,0.0,0.0,0.0,7.696,7.7682,7.9604,8.1061,8.1956,8.2287,8.2718,8.3181,8.2684,8.2221,8.1724,8.0034,7.755,7.4502,0.0,0.0,0.0,0.0,7.914,7.9306,8.2055,8.3281,8.2751,8.3943,8.4109,8.3082,8.1624,8.0498,7.9769,7.7921,7.6258,7.4726,7.2844,0.0,0.0,0.0,0.0,0.0,0.0,0.0,0.0,0.0,0.0,0.0,0.0,0.0,0.0,0.0,0.0,0.0,0.0,0.0,6.8542,7.1807,7.433,0.0,0.0,0.0,0.0,0.0,0.0,0.0,0.0,0.0,8.4188,8.4424,8.5004,0.0,0.0,9.0255,8.9821,9.1016,9.1813,9.1378,9.2066,0.0,9.172,9.1813,9.1885,9.1648,9.11,9.0727,9.0944,9.1014,9.0731,8.991,9.0754,9.0903,8.8728,8.7103,8.6118,8.5371,8.5298,8.5606,8.5786,8.5514,8.537,7.9226,7.7196,7.4819,7.4071,7.4405,7.4438,7.522,7.6545,7.6545,7.7021,7.7875,7.7875,7.8073,7.8246,7.7543,0.0,0.0,0.0,8.0564,8.1166,8.2784,8.391,8.4639,8.5103,8.5533,8.5931,8.5202,8.5003,8.5302,8.454,8.3016,8.0664,0.0,0.0,7.9405,8.0531,8.126,8.1658,8.3612,8.4606,8.4473,8.5302,8.5335,8.4473,8.3579,8.2618,8.1591,8.0432,7.8995,7.7269,7.5928,7.4772,0.0,0.0,0.0,0.0,0.0,0.0,0.0,0.0,0.0,0.0,0.0,6.4448,6.4808,0.0,0.0,0.0,7.1884,7.2936,7.4883,7.6895,0.0,0.0,0.0,0.0,0.0,0.0,0.0,8.4293,8.5731,8.7141,8.8698,8.8807,8.8951,8.9547,9.143,9.2646,9.232,0.0,9.3732,9.3096,9.3551,9.3732,9.3117,9.3323,9.3534,9.3288,9.2972,9.2724,9.2744,9.3175,9.3221,9.2546,9.3338,9.3947,9.2664,9.1509,9.0173,8.8508,8.8143,8.8252,8.8543,8.8068,8.7923,8.5002,8.4879,8.0372,7.8935,7.965,7.9683,8.0184,8.1028,8.1056,8.1393,8.2055,8.2055,8.2453,8.3016,8.2486,0.0,8.2188,8.3062,8.4157,8.5401,8.6214,8.6944,8.7551,8.7551,8.7584,8.765,8.6977,8.7036,8.7663,8.7083,8.7112,8.7615,8.429,8.2145,8.1321,8.1956,8.2618,8.3248,8.4076,8.4738,8.5335,8.5302,8.5302,8.5297,8.5297,8.4697,8.3399,8.257,8.1647,8.0588,7.9081,7.7743,7.6634,0.0,0.0,0.0,0.0,0.0,0.0,0.0,0.0,0.0,0.0,0.0,0.0,0.0,0.0,0.0,7.7747,0.0,8.1914,8.1609,0.0,0.0,0.0,8.3549,8.6014,8.6199,8.6778,8.8316,0.0,0.0,9.1776,9.2682,9.2935,9.2175,9.3386,9.4074,9.3277,9.4493,9.4927,9.3515,9.4441,9.4861,9.3685,9.4067,9.4467,9.4064,9.3908,9.3964,9.4037,9.4777,9.5352,9.5298,9.6203,9.6612,9.5822,9.5492,9.474,9.1675,9.1051,9.0794,9.0262,9.0079,9.0299,8.67,8.666,8.5516,8.4528,8.3696,8.3696,8.3853,8.4043,8.4043,8.4142,8.4308,8.4341,8.4407,8.4639,8.5567,8.5695,8.526,8.7404,8.806,8.7677,8.9253,8.9935,8.9741,8.9741,9.0039,9.0562,9.0731,9.0962,9.1126,9.1323,9.146,9.1563,9.0187,8.8263,8.5853,8.6395,8.6593,8.6258,8.7488,8.7952,8.7554,8.7024,8.6877,8.7083,8.7079,8.7058,8.6922,8.5715,8.4874,8.4556,8.2335,8.102,8.1115,7.8849,0.0,0.0,0.0,0.0,0.0,0.0,0.0,0.0,0.0,7.2087,7.272,0.0,7.8145,0.0,8.1824,8.2948,8.2251,8.4215,0.0,0.0,8.6983,8.747,8.9258,8.8951,8.9169,9.0762,9.1125,9.1849,9.3422,9.4312,9.4746,9.4565,9.5398,9.5724,9.5,9.5673,9.5963,9.5114,9.5312,9.5467,9.5233,9.5361,9.5668,9.5453,9.5649,9.5767,9.5767,9.6602,9.7251,9.7288,9.7968,9.8154,9.7512,9.7309,9.6888,9.5547,9.4777,9.4281,9.406,9.3987,9.3877,8.9208,8.9241,8.9241,8.8714,8.7919,8.6958,8.6696,8.7054,8.7575,8.752,8.6994,8.7024,8.7316,8.7873,8.8672,8.9091,8.9354,9.1085,9.1546,9.0987,9.2663,9.332,9.309,9.3457,9.3829,9.423,9.4495,9.4608,9.4631,9.4868,9.5027,9.4992,9.4714,9.3725,9.2019,8.9754,8.8312,8.7753,8.8665,8.922,8.9427,8.8779,8.8544,8.8909,8.9052,8.8909,8.8484,8.7802,8.7544,8.7619,8.5973,8.5018,8.5018,8.3031,8.2129,0.0,0.0,0.0,0.0,0.0,0.0,0.0,0.0,0.0,0.0,0.0,8.3037,8.4034,8.608,8.6805,8.5529,8.7342,8.8807,8.9222,8.9258,8.9785,9.1016,9.0726,9.1233,9.3153,9.3406,9.4022,9.5579,9.6195,9.647,9.6485,9.7463,9.7542,9.5923,9.5944,9.6167,9.6198,9.6613,9.7283,9.7985,9.8233,9.8355,9.8456,9.8577,9.8656,9.8693,9.9122,9.9495,9.9531,10.0119,10.0534,10.011,10.0296,10.0402,10.0364,9.9993,9.8797,9.6544,9.5749,9.5364,9.2386,9.2353,9.2386,9.2353,9.222,9.032,8.9667,9.0009,9.1009,9.1047,9.029,9.029,9.0917,9.2003,9.2032,9.2593,9.3584,9.441,9.4687,9.4654,9.6007,9.6595,9.649,9.7174,9.7485,9.7513,9.7653,9.7709,9.7737,9.7904,9.8014,9.8014,9.8254,9.8301,9.7936,9.299,9.0042,8.9306,8.9261,8.9793,9.1022,9.0434,9.029,9.0677,9.1172,9.0909,8.9758,8.9995,9.0254,9.051,8.976,8.9126,8.8695,8.7395,8.6473,0.0,8.4689,0.0,0.0,0.0,0.0,0.0,0.0,0.0,0.0,8.6167,8.7768,8.8563,9.0032,9.0581,8.9748,9.0509,9.1125,9.1197,9.1306,9.1668,9.2465,9.2573,9.337,9.5492,9.5709,9.6268,9.7499,9.7955,9.8143,9.8107,9.9346,9.9418,9.7117,9.6717,9.7065,9.7604,9.8322,9.9337,10.0562,10.1062,10.1108,10.1343,10.1377,10.1637,10.1493,10.1758,10.1928,10.2006,10.2538,10.3013,10.3069,10.3534,10.414,10.4579,10.46,10.318,9.9297,9.758,9.6529,9.6389,9.6389,9.6389,9.6389,9.632,9.5972,9.4582,9.2672,9.2908,9.3733,9.4961,9.5024,9.5474,9.6285,9.6285,9.6425,9.674,9.7817,9.7806,9.6919,9.8139,9.8224,9.7306,9.7415,9.7485,9.7569,9.8487,9.8953,9.8979,10.0108,10.0647,10.0671,10.0918,10.0575,9.9599,0.0,0.0,0.0,9.2493,9.1612,9.1863,9.1754,9.1802,9.2132,9.3656,0.0,9.4417,9.4443,9.453,9.4548,9.3309,0.0,0.0,0.0,0.0,0.0,0.0,0.0,0.0,0.0,0.0,0.0,8.9641,8.9151,8.8321,9.042,9.1856,9.2038,9.2383,9.2211,9.1451,9.2682,9.3805,9.4441,9.5057,9.576,9.6557,9.663,9.6883,9.7245,9.7376,9.7463,9.7919,9.9049,9.9722,9.9286,10.0563,10.1214,10.0349,10.026,10.0403,10.0323,10.0594,10.09,10.134,10.1661,10.1982,10.1574,10.2012,10.2482,10.276,10.3638,10.4282,10.434,10.4921,10.5476,10.5493,10.5572,10.5902,10.5896,10.595,10.5384,10.371,10.2669,10.1883,9.7485,9.7485,9.7485,9.7485,0.0,9.7485,9.707,9.6324,9.6324,9.6892,9.7732,9.7148,9.7446,9.8378,9.8378,9.8703,9.9271,9.9853,9.9801,9.9297,10.0277,10.0427,9.9868,10.0641,10.1072,10.1232,10.2207,10.273,10.2909,10.3608,10.3938,10.3902,10.4204,10.4012,10.3415,10.3145,10.1162,9.7392,9.5689,9.5152,9.5812,9.5514,9.5479,9.5829,9.6891,0.0,0.0,0.0,0.0,0.0,0.0,0.0,0.0,0.0,0.0,9.4254,9.3558,9.3367,9.3826,9.3573,9.356,9.405,9.5173,9.4849,9.2495,9.3467,9.4348,9.4746,9.5471,9.5471,9.4348,9.5616,9.6593,9.663,9.6956,9.7354,9.7716,9.7789,9.8115,9.8861,9.9093,9.9397,10.0231,10.119,10.1683,10.1435,10.2725,10.3725,10.3406,10.2296,10.1686,10.2707,10.3385,10.4139,10.5321,10.5582,10.5712,10.614,10.649,10.6705,10.6741,10.7391,10.7929,10.8,10.8533,10.9038,10.9069,10.9341,10.9605,10.9605,10.9605,10.9491,10.8907,10.6487,10.4001,9.8819,9.8924,9.8958,9.8958,9.8924,9.8924,9.9542,10.0404,0.0,0.0,0.0,9.8778,9.8956,10.0052,10.0158,10.0756,10.1607,10.1774,10.1846,10.1821,10.2524,10.2809,10.2916,10.4308,10.5113,10.539,10.5999,10.6472,10.6721,10.6698,10.6615,10.6603,10.6823,10.6932,10.6751,10.6327,10.4047,10.0051,9.9024,9.9182,10.0276,9.9634,9.9395,9.9721,10.0051,9.9653,9.8528,9.8752,9.8889,9.8803,9.8228,9.79,9.79,9.7264,9.7058,9.7262,9.6724,9.672,9.7601,9.7644,9.7571,9.7463,9.9419,9.9382,9.647,9.6506,9.6905,9.739,9.8658,9.8875,9.7608,9.873,9.9455,9.8875,9.8948,9.9078,9.8977,9.9049,9.9781,10.0565,10.1052,10.1597,10.2688,10.3385,10.3854,10.4148,10.5345,10.6412,10.6378,10.4752,10.397,10.5805,10.6698,10.7738,10.9341,10.9742,11.0279,11.0345,11.0781,11.1181,11.1198,11.1282,11.1403,11.114,11.1885,11.2084,11.2287,11.2489,11.3186,11.32,11.32,11.32,11.2828,10.9638,10.638,10.3954,10.4548,10.4548,10.4548,10.4548,10.4548,10.4626,10.4577,10.1942,10.1123,10.18,10.1614,10.203,10.2858,10.3545,10.3942,10.4165,10.4772,10.5032,10.5032,10.5165,10.5236,10.5272,10.6164,10.6711,10.6966,10.7109,10.7272,10.7476,10.7086,10.6847,10.6907,10.7124,10.6917,10.6253,10.6168,10.5412,10.4022,10.3022,10.2577,10.2752,10.2027,10.1645,10.1717,10.1997,10.2102,10.1905,10.1918,10.1964,10.1964,10.1856,10.1784,10.1784,10.1617,10.1636,10.1701,10.1592,10.1624,10.1736,10.1759,10.1447,10.0867,10.17,10.1483,9.9781,10.0795,10.136,10.0831,10.1012,10.1012,10.0795,10.1519,10.2244,10.2714,10.3439,10.3688,10.3093,10.3573,10.3684,10.303,10.3525,10.3722,10.3857,10.4804,10.5992,10.6704,10.8112,10.9453,10.9918,10.9325,10.9083,10.9863,11.0235,11.0475,11.0904,11.086,11.1075,11.0955,11.1696,11.2143,11.2143,11.2582,11.288,11.2892,11.3072,11.3102,11.3091,11.3095,11.3352,11.3391,11.3391,11.3352,11.3391,11.2287,11.1239,10.5414,10.5674,10.57,10.57,10.57,10.57,10.57,10.5567,10.4201,10.3773,10.4094,10.4094,10.4308,10.4665,10.5032,10.52,10.521,10.5557,10.5991,10.6538,10.6573,10.6864,10.7483,10.8271,10.8783,10.9036,10.9468,10.981,10.9988,10.9389,10.904,10.9064,10.8763,10.8401,10.8075,10.8075,10.7894,10.7459,10.5296,10.4156,10.4156,10.3796,10.3616,10.3616,10.3775,10.362,10.3185,10.3185,10.3004,10.2628,10.2968,10.3185,10.3185,10.3584,10.3837,10.3837,10.3873,10.3837,10.3873,10.3837,10.3692,10.3366,10.4054,10.4199,10.3475,10.3258,10.3221,10.3294,10.3669,10.3742,10.3343,10.4018,10.4453,10.4344,10.4706,10.4835,10.4808,10.5021,10.5443,10.5783,10.6291,10.6927,10.7891,10.8373,10.9004,10.9898,11.1075,11.2181,11.3358,11.3229,11.2599,11.1809,11.1599,11.2017,11.266,11.2903,11.3093,11.3472,11.381,11.4022,11.4051,11.4377,11.4472,11.455,11.455,11.455,11.455,11.455,11.455,11.455,11.455,11.455,11.455,11.4244,11.3174,10.6092,10.6271,10.6235,10.6235,10.6209,10.6235,10.6271,10.6235,10.6235,10.6271,10.6199,10.5853,10.57,10.571,10.6092,10.6261,10.6348,10.6705,10.735,10.8143,10.8179,10.8665,10.9479,11.027,11.0757,11.1082,11.1684,11.2099,11.2251,11.1552,11.1153,11.1081,11.0356,10.9886,10.9704,10.9487,10.9342,10.9016,10.6735,10.5612,10.5974,10.5829,10.572,10.572,10.5539,10.5141,10.4561,10.4489,10.4236,10.3728,10.4199,10.4525,10.4561,10.5105,10.5431,10.5467,10.5467,10.5431,10.5467,10.5431,10.5431,10.5467,10.6191,10.6735,10.6807,10.5793,10.5105,10.5503,10.5938,10.6119,10.5865,10.6334,10.6515,10.6116,10.6114,10.6348,10.6321,10.6727,10.7415,10.8611,10.9366,11.0573,11.1761,11.2018,11.2219,11.3163,11.4152,11.5258,11.6098,11.6269,11.5377,11.3898,11.3061,11.336,11.456,11.4701,11.4955,11.5658,11.5593,11.5451,11.5503,11.5606,11.5658,11.5543,11.562,11.5543,11.5658,11.5658,11.5582,11.5505,11.5505,11.5582,11.5505,11.4703,11.3671,10.7234,10.7805,10.7877,10.7877,10.7877,10.7877,10.7877,10.7877,10.7877,10.7877,10.7734,10.6378,10.5807,10.5888,10.726,10.8033,10.8338,10.9734,11.0536,11.084,11.0938,11.1,11.1159,11.1889,11.2439,11.2634,11.2767,11.2966,11.312,11.2385,11.1986,11.1914,11.1189,11.0465,10.9741,10.9016,10.8328,10.7568,10.7254,10.7785,10.9125,10.8533,10.8171,10.8147,10.7423,10.7061,10.682,10.6964,10.6952,10.6856,10.6856,10.6928,10.6928,10.7037,10.7073,10.7073,10.7073,10.7073,10.7109,10.7073,10.7109,10.7109,10.7894,10.8642,10.9258,10.9221,10.8509,10.7627,10.7242,10.7495,10.8098,10.8433,10.8841,10.9264,10.9537,10.9718,10.951,11.1171,11.2095,11.0966,11.2758,11.4074,11.3814,11.4097,11.4922,11.6145,11.7365,11.8079,11.7923,11.7811,11.7454,11.648,11.5831,11.5334,11.5505,11.5582,11.5543,11.5696,11.5696,11.5696,11.5696,11.5696,11.5696,11.5696,11.5696,11.5696,11.5696,11.5696,11.5696,11.5696,11.5696,11.5696,11.5505,11.4588,11.3366,10.9161,10.9482,10.9482,10.9482,10.9482,10.9482,10.9482,10.9482,10.9482,10.9482,10.9438,10.8989,10.8504,10.8173,10.9402,11.0059,11.0199,11.0845,11.1539,11.2228,11.2228,11.2557,11.3215,11.3504,11.3761,11.3838,11.3838,11.3888,11.3844,11.3218,11.2602,11.2131,11.1769,11.1443,11.1117,11.0791,11.0465,11.0175,11.0139,11.0465,11.0755,10.8908,10.7785,10.7749,10.7495,10.729,10.729,10.729,10.729,10.7327,10.7749,10.8002,10.8002,10.8473,10.8727,10.8727,10.8727,10.8908,10.9415,10.9415,10.9632,11.0103,11.0429,11.0864,11.13,11.136,11.1263,11.1189,10.9871,10.9122,10.9496,11.0109,11.0686,11.1074,11.1545,11.1989,11.2467,11.3277,11.3987,11.4579,11.5537,11.647,11.6971,11.7336,11.7775,11.842,11.9173,11.9326,11.902,11.86,11.7951,11.711,11.6269,11.5773,11.5696,11.5696,11.5696,11.5696,11.5696,11.5696,11.5696,11.5696,11.5696,11.5696,11.5696,11.5696,11.5696,11.5696,11.5696,11.5696,11.5696,11.5696,11.5696,11.4779,11.3939,11.0597,11.0383,11.0383,11.0526,11.0705,11.0705,11.0901,11.116,11.116,11.1214,11.1356,11.1836,11.1788,11.1348,11.1549,11.1663,11.174,11.1956,11.265,11.3591,11.3664,11.4199,11.5076,11.5173,11.5173,11.5173,11.5173,11.5173,11.5101,11.463,11.3978,11.3435,11.3181,11.3109,11.3073,11.2892,11.2783,11.2747,11.2783,11.2783,11.2457,11.0501,10.9065,10.8666,10.8618,10.8594,10.8594,10.8654,10.8594,10.863,10.9161,10.9487,10.9547,11.003,11.0356,11.0356,11.0356,11.0719,11.1515,11.1552,11.1914,11.2638,11.2833,11.3053,11.337,11.3358,11.3734,11.4376,11.2846,11.1682,11.1611,11.2298,11.2767,11.2827,11.3571,11.4413,11.5058,11.5623,11.6762,11.7903,11.836,11.8706,11.9596,11.9757,11.9732,11.9809,11.9861,11.9861,11.9746,11.9173,11.8409,11.776,11.6804,11.604,11.5773,11.5696,11.5696,11.5696,11.5696,11.5696,11.5696,11.5696,11.5696,11.5696,11.5696,11.5696,11.5696,11.5696,11.5811,11.5734,11.5734,11.5773,11.5696,11.4856,11.4015,11.1097,11.049,11.0419,11.1017,11.1588,11.1651,11.2179,11.3092,11.3092,11.3226,11.3634,11.4545,11.5026,11.4783,11.3278,11.2655,11.2969,11.3644,11.4495,11.5412,11.551,11.597,11.6793,11.6803,11.6731,11.655,11.655,11.6622,11.6658,11.6658,11.6756,11.655,11.5753,11.5463,11.5318,11.4703,11.4388,11.4413,11.4388,11.4413,11.4413,11.4195,11.329,11.2059,11.1841,11.1769,11.1805,11.1878,11.1841,11.1878,11.1841,11.1914,11.1914,11.195,11.1986,11.1986,11.1986,11.2348,11.3073,11.3181,11.3569,11.4318,11.4627,11.5091,11.5674,11.5409,11.5554,11.6308,11.577,11.5246,11.5152,11.5113,11.5338,11.5478,11.6417,11.7011,11.726,11.9009,12.0418,12.0745,12.1095,12.1223,12.084,12.074,12.0778,12.0778,12.074,12.0702,12.0511,11.9899,11.9364,11.8982,11.7989,11.669,11.5964,11.5696,11.5696,11.5887,11.5964,11.5811,11.5734,11.5696,11.5773,11.5811,11.604,11.604,11.5811,11.5811,11.5964,11.6002,11.5926,11.5926,11.604,11.4359,11.3467,11.3666,11.3444,11.3663,11.3923,11.4165,11.4328,11.4642,11.4965,11.5001,11.5055,11.5224,11.5777,11.599,11.598,11.5517,11.5377,11.548,11.577,11.611,11.6441,11.6441,11.6648,11.6839,11.6876,11.6876,11.6876,11.6876,11.6876,11.6876,11.6876,11.6876,11.6876,11.6622,11.6467,11.643,11.6187,11.6043,11.6043,11.6043,11.6043,11.6006,11.6043,11.5717,11.5137,11.4159,11.3652,11.3652,11.3652,11.3652,11.3652,11.3652,11.3652,11.3627,11.3652,11.3652,11.3652,11.3652,11.3978,11.4692,11.5024,11.545,11.6213,11.6536,11.6794,11.7233,11.7245,11.7475,11.8192,11.83,11.8336,11.8496,11.7603,11.6902,11.7495,11.832,11.9326,12.0193,12.1149,12.1824,12.2329,12.2703,12.2674,12.2383,12.2383,12.2154,12.1657,12.1542,12.1313,12.0778,12.0052,11.967,11.9479,11.902,11.8524,11.8256,11.6575,11.5849,11.6346,11.6575,11.6651,11.6613,11.711,11.7301,11.6919,11.6881,11.7034,11.6995,11.7034,11.7034,11.7072,11.6957,11.6537,11.6523,11.4881,11.3773,11.5093,11.5149,11.5454,11.577,11.6013,11.6285,11.6618,11.6852,11.6914,11.6941,11.7075,11.7198,11.7277,11.7339,11.7522,11.7636,11.7564,11.7129,11.702,11.7274,11.7274,11.7419,11.7636,11.7636,11.7636,11.7636,11.7636,11.7636,11.7636,11.7636,11.7636,11.7636,11.7636,11.7636,11.7636,11.7636,11.7636,11.7636,11.7636,11.7636,11.7636,11.7636,11.7636,11.7491,11.6586,11.5753,11.5318,11.5282,11.5282,11.5282,11.5282,11.5282,11.5282,11.5282,11.5282,11.5246,11.5068,11.5336,11.6039,11.6168,11.6536,11.7325,11.7621,11.7866,11.8072,11.8168,11.8686,11.9367,11.9616,11.9943,12.0333,11.9313,11.8725,11.9598,12.0629,12.1659,12.2706,12.3147,12.3403,12.359,12.3653,12.3453,12.2994,12.2841,12.2383,12.1733,12.1771,12.1733,12.1198,12.1007,12.074,12.0702,12.0549,12.0358,12.0052,11.8868,11.8103,11.8447,11.8333,11.8142,11.8065,11.8562,11.8562,11.8103,11.7989,11.8194,11.8308,11.8308,11.8308,11.8346,11.7888,11.7339,11.6613,11.5454,11.4537,11.5192,11.5347,11.549,11.6255,11.6884,11.7157,11.7833,11.8525,11.8624,11.8686,11.8772,11.9032,11.8888,11.9059,11.8914,11.9085,11.8795,11.7709,11.7491,11.8035,11.8107,11.8433,11.8976,11.8976,11.894,11.8976,11.9121,11.9121,11.9012,11.8976,11.8976,11.9095,11.9012,11.8904,11.9121,11.8976,11.9085,11.9012,11.8976,11.9022,11.9194,11.9012,11.9012,11.9049,11.8904,11.8216,11.6948,11.6876,11.6912,11.6912,11.6912,11.6912,11.6912,11.6938,11.6901,11.688,11.6503,11.6593,11.7054,11.6841,11.6989,11.7488,11.7829,11.8035,11.8083,11.8332,11.8819,11.9407,11.9731,12.0026,12.0635,12.068,12.0822,12.1955,12.2882,12.3773,12.4339,12.514,12.5401,12.4522,12.4217,12.3758,12.2612,12.2421,12.2268,12.181,12.1924,12.223,12.2115,12.2383,12.3032,12.2956,12.2421,12.2039,12.1733,12.1389,12.1084,12.0854,12.0549,12.0281,12.009,12.0281,11.9899,11.9479,11.8944,11.9097,11.9097,11.9097,11.8958,11.8881,11.8409,11.8142,11.7416,11.6499,11.5467,11.7405,11.7397,11.767,11.7923,11.8202,11.8435,11.8802,11.9035,11.9098,11.9124,11.9203,11.923,11.923,11.923,11.923,11.923,11.9157,11.8687,11.8614,11.8831,11.8831,11.8976,11.9157,11.923,11.923,11.923,11.923,11.923,11.923,11.923,11.923,11.923,11.923,11.923,11.923,11.923,11.923,11.923,11.923,11.923,11.923,11.923,11.923,11.923,11.9194,11.894,11.8505,11.8469,11.8505,11.8469,11.8505,11.8505,11.8495,11.8651,11.8754,11.8744,11.8828,11.8578,11.8312,11.8255,11.8036,11.7975,11.8094,11.8274,11.8355,11.8822,11.9237,11.963,12.0066,12.0603,12.0814,12.135,12.1681,12.1993,12.2514,12.3207,12.3685,12.4009,12.3935,12.3758,12.3682,12.3605,12.372,12.3644,12.3453,12.3223,12.3414,12.3491,12.3109,12.3185,12.3262,12.3223,12.3262,12.3605,12.3376,12.3338,12.3414,12.2918,12.2497,12.2192,12.2039,12.1733,12.1351,12.0625,12.0167,11.9861,11.9861,11.9823,11.967,11.9632,11.9479,11.9135,11.8677,11.7798,11.669,11.8398,11.8426,11.8697,11.8805,11.8832,11.9098,11.923,11.923,11.923,11.923,11.923,11.923,11.923,11.923,11.923,11.923,11.923,11.923,11.923,11.923,11.923,11.923,11.923,11.923,11.923,11.923,11.923,11.923,11.923,11.923,11.923,11.923,11.923,11.923,11.923,11.923,11.923,11.923,11.923,11.923,11.923,11.923,11.923,11.923,11.923,11.923,11.923,11.923,11.923,11.923,11.923,11.922,11.9324,11.947,11.9661,11.9752,11.9699,11.9338,11.8657,11.834,11.8118,11.747,11.7404,11.7498,11.7624,11.8248,11.8775,11.9211,11.9838,12.0499,12.0812,12.1201,12.1565,12.1565,12.2227,12.2679,12.3204,12.33,12.3529,12.3682,12.3797,12.4026,12.4331,12.4484,12.4331,12.4179,12.4331,12.4408,12.3949,12.4064,12.4102,12.4217,12.4561,12.4828,12.4981,12.521,12.5592,12.5034,12.4346,12.4026,12.3797,12.3453,12.3032,12.1619,12.0854,12.0434,12.0358,12.0472,12.0434,12.0472,12.0281,11.9861,11.9326,11.8829,11.7874,11.8453,11.848,11.8724,11.8858,11.8885,11.9124,11.923,11.923,11.923,11.923,11.923,11.923,11.923,11.923,11.923,11.923,11.923,11.923,11.923,11.923,11.923,11.923,11.923,11.923,11.923,11.923,11.923,11.923,11.923,11.923,11.923,11.923,11.923,11.923,11.923,11.923,11.923,11.923,11.923,11.923,11.923,11.923,11.923,11.923,11.923,11.9194,11.9246,11.9335,11.9308,11.922,11.9246,11.9377,11.9584,11.9661,11.9839,12.0077,11.9632,11.9072,11.8266,11.8043,11.7415,11.6717,11.652,11.6172,11.6827,11.7641,11.8301,11.8899,11.963,12.021,12.0711,12.087,12.0884,12.1017,12.1963,12.2746,12.3171,12.3147,12.3376,12.4026,12.4408,12.4446,12.4446,12.4484,12.4217,12.4064,12.4331,12.4599,12.4752,12.4981,12.5592,12.5669,12.5478,12.5478,12.544,12.5478,12.5783,12.5645,12.5187,12.5057,12.4752,12.437,12.3911,12.2536,12.1313,12.0969,12.0778,12.0778,12.0778,12.0702,12.0472,12.0281,11.9976,11.9517,11.902,11.8992,11.8982,11.9035,11.9124,11.9124,11.9167,11.923,11.923,11.923,11.923,11.923,11.923,11.923,11.923,11.923,11.923,11.923,11.923,11.923,11.923,11.923,11.923,11.923,11.923,11.923,11.9266,11.9302,11.923,11.923,11.923,11.923,11.923,11.923,11.923,11.923,11.923,11.923,11.923,11.923,11.923,11.923,11.923,11.923,11.923,11.923,11.9298,11.948,11.9748,11.9723,11.9506,11.9506,11.9609,11.9926,12.0128,12.0252,12.0339,12.0389,12.0058,11.9348,11.9029,11.8599,11.7828,11.7384,11.7416,11.8651,11.893,11.9406,12.0118,12.0881,12.1189,12.0941,12.0854,12.0854,12.0816,12.1504,12.1924,12.2268,12.2383,12.265,12.3414,12.3682,12.3988,12.4446,12.4599,12.4675,12.4943,12.5172,12.5363,12.5363,12.544,12.5783,12.5783,12.5707,12.5745,12.5745,12.5745,12.5783,12.5783,12.5631,12.5516,12.5019,12.437,12.3797,12.2918,12.1466,12.0816,12.0778,12.0778,12.0778,12.0778,12.0702,12.0549,12.0587,12.032,11.9899,11.923,11.923,11.923,11.923,11.923,11.923,11.923,11.923,11.923,11.923,11.923,11.923,11.923,11.923,11.923,11.923,11.923,11.923,11.9385,11.9783,12.0099,12.0063,11.9845,11.9674,11.971,11.971,11.9674,11.9493,11.9266,11.923,11.923,11.923,11.923,11.923,11.923,11.923,11.923,11.923,11.923,11.923,11.923,11.923,11.923,11.9256,11.9298,11.9506,11.9799,12.0013,12.0013,11.985,11.9825,11.9951,12.0239,12.0413,12.056,12.0658,12.0803,12.0655,12.0288,12.0141,11.9921,11.9575,11.922,11.9564,12.0219,12.0718,12.1479,12.1384,12.2108,12.2211,12.1962,12.1848,12.1848,12.1924,12.1848,12.1886,12.2039,12.2383,12.2918,12.3529,12.3835,12.414,12.4943,12.5019,12.5287,12.5592,12.5631,12.5707,12.5745,12.5783,12.586,12.5898,12.5936,12.5974,12.6013,12.6013,12.6089,12.6089,12.5745,12.5745,12.521,12.4446,12.3644,12.2841,12.1619,12.0778,12.0778,12.0778,12.0778,12.0778,12.0778,12.0778,12.0778,12.0778,12.0396,11.923,11.923,11.923,11.923,11.923,11.923,11.923,11.923,11.923,11.923,11.923,11.923,11.923,11.923,11.9411,11.9348,11.9411,11.9664,11.999,12.0534,12.1041,12.1149,12.0797,12.0579,12.0534,12.0507,12.0534,12.0073,11.9638,11.9411,11.9302,11.923,11.923,11.923,11.923,11.923,11.923,11.923,11.923,11.923,11.923,11.9282,11.9298,11.9324,11.9635,11.9876,12.0089,12.0189,12.0189,12.0226,12.0139,12.0264,12.0486,12.0536,12.0633,12.084,12.0888,12.0875,12.0875,12.0765,12.0838,12.0761,12.1325,12.185,12.1541,12.2298,12.2819,12.2517,12.3045,12.3219,12.3071,12.3185,12.3071,12.3032,12.3185,12.2994,12.265,12.2956,12.372,12.4484,12.4637,12.5057,12.5478,12.5783,12.5783,12.5707,12.5783,12.5783,12.5936,12.6142,12.6127,12.6165,12.6204,12.6242,12.6242,12.628,12.6395,12.6433,12.5898,12.5631,12.5287,12.4522,12.3567,12.2574,12.1504,12.0931,12.0778,12.0778,12.0778,12.0778,12.0778,12.0778,12.0778,12.0778,12.0587,11.923,11.923,11.923,11.923,11.923,11.923,11.923,11.923,11.923,11.923,11.923,11.923,11.9266,11.9276,11.9855,12.0145,12.0254,12.0715,12.1222,12.1294,12.1439,12.1946,12.1982,12.1693,12.1367,12.1367,12.133,12.0932,12.029,12.0073,11.9819,11.9375,11.9375,11.923,11.924,11.9266,11.923,11.923,11.923,11.923,11.9246,11.9403,11.9506,11.9584,12.0027,12.0277,12.0437,12.0609,12.0706,12.0658,12.0536,12.0536,12.0767,12.0815,12.084,12.0888,12.0912,12.0912,12.0912,12.0985,12.0972,12.1176,12.1533,12.1636,12.2758,12.3209,12.3689,12.3838,12.4144,12.4026,12.3605,12.3338,12.3453,12.3605,12.3949,12.4179,12.4026,12.414,12.4637,12.521,12.544,12.5592,12.5745,12.5783,12.5783,12.5783,12.5822,12.5822,12.6127,12.6509,12.6662,12.6815,12.7006,12.7121,12.7159,12.7121,12.7121,12.7006,12.6433,12.5516,12.5172,12.4293,12.3185,12.2306,12.1428,12.1045,12.0816,12.0778,12.0778,12.0778,12.0778,12.0778,12.0778,12.0778,12.0778,11.923,11.923,11.923,11.923,11.923,11.923,11.923,11.923,11.923,11.923,11.9302,11.9566,11.9747,11.9819,12.057,12.0968,12.1149,12.1765,12.2163,12.2272,12.2526,12.296,12.3178,12.2924,12.2562,12.2236,12.2163,12.1729,12.1186,12.0932,12.0787,12.0316,11.9954,11.9819,11.9638,11.9411,11.923,11.923,11.923,11.9246,11.9403,11.9506,11.9788,11.9966,12.0327,12.0536,12.0682,12.0815,12.0888,12.0888,12.0791,12.0767,12.0888,12.0912,12.0912,12.0912,12.0912,12.1132,12.1316,12.151,12.1825,12.2479,12.2891,12.3598,12.4366,12.4837,12.5033,12.5122,12.5057,12.4905,12.4522,12.4484,12.4446,12.4522,12.4828,12.5096,12.5096,12.5096,12.5248,12.5683,12.5745,12.5745,12.5783,12.586,12.6165,12.6357,12.6548,12.6586,12.7197,12.7541,12.7579,12.7732,12.7961,12.8114,12.8114,12.8076,12.7999,12.7694,12.7159,12.6013,12.5057,12.3911,12.265,12.1924,12.1275,12.1007,12.0778,12.0778,12.0778,12.0778,12.0778,12.0778,12.0778,12.0778,12.0778,11.923,11.923,11.923,11.923,11.923,11.923,11.923,11.923,11.923,11.923,11.9375,12.0036,12.0254,12.0543,12.1367,12.1765,12.2163,12.2562,12.2996,12.3069,12.3504,12.3757,12.3829,12.3721,12.3504,12.2996,12.296,12.2526,12.1982,12.1729,12.1584,12.1439,12.0932,12.0471,12.0217,11.9809,11.9401,11.9308,11.9298,11.9429,11.9661,11.9763,12.0077,12.0401,12.056,12.0682,12.084,12.0912,12.0912,12.0912,12.0912,12.0912,12.0912,12.0912,12.0912,12.0912,12.0912,12.1132,12.1558,12.1959,12.2589,12.4135,12.4963,12.5404,12.5577,12.5951,12.607,12.5869,12.5669,12.5669,12.5783,12.5569,12.5645,12.5669,12.576,12.5783,12.5783,12.5783,12.576,12.576,12.5783,12.5783,12.5898,12.6051,12.6509,12.693,12.7159,12.7465,12.8076,12.8496,12.8496,12.8725,12.8993,12.926,12.9299,12.9222,12.9108,12.8764,12.8152,12.6891,12.5554,12.4675,12.3605,12.1962,12.1237,12.0969,12.0816,12.0778,12.0778,12.0778,12.0778,12.0778,12.0778,12.0778,12.0778,11.923,11.923,11.923,11.923,11.923,11.923,11.923,11.923,11.9266,11.9203,11.9348,12.0073,12.0507,12.0833,12.2019,12.2888,12.3359,12.3612,12.3685,12.3721,12.3938,12.4011,12.4011,12.4011,12.3866,12.3866,12.3721,12.325,12.2743,12.2562,12.2345,12.1765,12.1502,12.1212,12.0669,12.0244,11.9957,11.9579,11.9532,11.9686,11.9977,12.0202,12.0437,12.0755,12.0815,12.084,12.0888,12.0912,12.0912,12.0912,12.0912,12.0912,12.0912,12.0912,12.0912,12.0912,12.0912,12.1046,12.1384,12.1818,12.2163,12.277,12.4009,12.4838,12.5077,12.5566,12.5969,12.5936,12.5783,12.5783,12.5783,12.5783,12.5783,12.5783,12.5783,12.5783,12.5783,12.5783,12.5783,12.5783,12.5783,12.5836,12.5936,12.628,12.6853,12.7388,12.7847,12.8191,12.8687,12.9108,12.9375,12.9681,13.0025,13.0292,13.0483,13.0407,13.0292,12.9986,12.9375,12.8191,12.7006,12.6051,12.4766,12.2536,12.1351,12.1007,12.0893,12.0816,12.0778,12.0778,12.0778,12.0778,12.0778,12.0778,12.0778,11.923,11.923,11.923,11.923,11.923,11.923,11.923,11.9276,11.9602,11.9819,12.0181,12.1077,12.1656,12.1982,12.2852,12.3685,12.3902,12.4011,12.4011,12.4011,12.4011,12.4011,12.4011,12.4011,12.4011,12.3974,12.3974,12.3829,12.3467,12.3431,12.3141,12.2942,12.2588,12.2015,12.1342,12.1001,12.0497,12.0069,11.9876,12.0002,12.0314,12.056,12.0791,12.0864,12.0912,12.0912,12.0912,12.0912,12.0912,12.0912,12.0912,12.0912,12.0936,12.0936,12.0936,12.0984,12.0923,12.1124,12.1422,12.1962,12.2455,12.3425,12.4256,12.4773,12.5152,12.5606,12.5783,12.5783,12.5783,12.5783,12.5783,12.5783,12.5783,12.5783,12.5783,12.5783,12.5822,12.5822,12.5898,12.5936,12.5951,12.5989,12.5951,12.6395,12.7159,12.7808,12.8458,12.8955,12.9375,12.9681,13.0063,13.0216,13.0483,13.0598,13.0789,13.0789,13.0789,13.0674,13.0216,12.9069,12.7961,12.6777,12.4675,12.2345,12.158,12.1504,12.0893,12.0778,12.0778,12.0778,12.0778,12.0778,12.0778,12.0778,12.0778,11.923,11.923,11.923,11.923,11.923,11.9385,11.9457,11.9602,12.0316,12.0616,12.086,12.2055,12.2707,12.2996,12.3504,12.4011,12.4011,12.4011,12.4011,12.4011,12.4011,12.4011,12.4011,12.4011,12.4011,12.4011,12.4011,12.4011,12.3902,12.3902,12.3965,12.3847,12.3527,12.3078,12.2404,12.1831,12.1146,12.0638,12.0226,12.0314,12.056,12.0791,12.0912,12.0912,12.0912,12.0912,12.0912,12.0912,12.0912,12.0912,12.0936,12.0971,12.11,12.1147,12.1241,12.1344,12.1227,12.1522,12.1933,12.2668,12.331,12.4218,12.4706,12.5221,12.5522,12.5739,12.5783,12.5783,12.5783,12.5783,12.5783,12.5783,12.5783,12.5783,12.5798,12.5874,12.6089,12.6242,12.6433,12.6395,12.6257,12.6142,12.6142,12.6891,12.7694,12.8305,12.8955,12.9719,13.0139,13.0292,13.0559,13.0636,13.0751,13.0712,13.0789,13.0789,13.0789,13.0751,13.0216,12.9337,12.8267,12.7159,12.4981,12.3047,12.2803,12.2612,12.1733,12.0816,12.0778,12.0778,12.0778,12.0778,12.0778,12.0778,12.0778,11.923,11.923,11.923,11.923,11.9375,11.9964,12.0254,12.0389,12.1113,12.1439,12.1512,12.2381,12.2888,12.3069,12.3648,12.3974,12.4011,12.4011,12.4011,12.4011,12.4011,12.4011,12.4011,12.4011,12.4011,12.4038,12.4038,12.4011,12.4065,12.4065,12.4174,12.4254,12.4278,12.3958,12.3309,12.2755,12.2076,12.151,12.0828,12.0584,12.0779,12.0888,12.0912,12.0912,12.0912,12.0912,12.096,12.0971,12.1042,12.1018,12.0971,12.1297,12.1778,12.194,12.236,12.2569,12.2423,12.2005,12.246,12.331,12.4147,12.4773,12.5183,12.5612,12.5769,12.5783,12.5783,12.5783,12.5783,12.5898,12.5936,12.586,12.5822,12.5974,12.6165,12.6471,12.6739,12.693,12.7121,12.735,12.7312,12.6739,12.6395,12.735,12.8267,12.884,12.9451,13.0254,13.0712,13.0789,13.0789,13.0789,13.0789,13.0789,13.0789,13.0789,13.0789,13.0789,13.0177,12.949,12.8473,12.7365,12.6195,12.4666,12.4284,12.3175,12.1814,12.1087,12.0907,12.0778,12.0778,12.0778,12.0778,12.0778,12.0778,11.9855,11.9855,11.9855,12.0171,12.057,12.0932,12.1077,12.1258,12.191,12.2272,12.2417,12.3105,12.3467,12.354,12.3902,12.4011,12.4011,12.4011,12.4011,12.4011,12.4011,12.4011,12.4011,12.4011,12.4011,12.4056,12.4138,12.4246,12.4219,12.4273,12.438,12.4682,12.4767,12.4558,12.4066,12.3754,12.2953,12.2062,12.1207,12.0815,12.0888,12.0912,12.0912,12.0912,12.0936,12.096,12.1018,12.1399,12.1545,12.1681,12.1918,12.2397,12.2693,12.2815,12.2958,12.3176,12.3502,12.3521,12.3691,12.4273,12.474,12.5221,12.5583,12.5754,12.5783,12.5783,12.5783,12.5783,12.5783,12.5974,12.6395,12.6509,12.6853,12.7006,12.693,12.7274,12.7617,12.7694,12.7885,12.8152,12.8328,12.7808,12.7541,12.842,12.9146,12.9375,12.991,13.0521,13.0827,13.0789,13.0789,13.0789,13.0789,13.0789,13.0789,13.0789,13.0789,13.0674,13.0078,12.9352,12.8526,12.7456,12.6291,12.5454,12.4703,12.3441,12.1921,12.1445,12.1351,12.1084,12.0778,12.0778,12.0778,12.0778,12.0778,12.0823,12.1004,12.0823,12.1077,12.162,12.1801,12.191,12.1982,12.2743,12.3105,12.325,12.3685,12.3974,12.4011,12.3974,12.4011,12.4011,12.4011,12.4011,12.4011,12.4011,12.4065,12.4083,12.411,12.4138,12.4192,12.447,12.4566,12.4646,12.4672,12.4777,12.497,12.5126,12.5012,12.47,12.4287,12.3616,12.2135,12.1548,12.1145,12.0948,12.0912,12.0912,12.0947,12.1053,12.1181,12.132,12.1962,12.2397,12.2507,12.2798,12.3195,12.3559,12.3653,12.3857,12.4127,12.4567,12.4752,12.479,12.5024,12.5269,12.5568,12.5783,12.5783,12.5783,12.5783,12.5783,12.5783,12.5783,12.6242,12.6853,12.7044,12.735,12.7732,12.8099,12.8382,12.8573,12.8611,12.8878,12.9337,12.9451,12.926,12.9222,12.9795,13.0101,13.0063,13.0407,13.0903,13.0903,13.0865,13.0789,13.0804,13.0804,13.0804,13.0804,13.0804,13.0789,13.0551,12.9917,12.9258,12.8485,12.7539,12.6437,12.5685,12.5096,12.4122,12.2857,12.2314,12.1771,12.1237,12.0778,12.0778,12.0778,12.0778,12.083,12.1946,12.2562,12.1837,12.162,12.1729,12.2417,12.2707,12.2779,12.354,12.3829,12.3793,12.3974,12.4011,12.4011,12.4011,12.4011,12.4011,12.4011,12.4038,12.4038,12.4038,12.4165,12.43,12.4407,12.4487,12.4709,12.484,12.497,12.5151,12.5151,12.5203,12.528,12.5407,12.5471,12.5268,12.4828,12.3798,12.25,12.1876,12.1389,12.1107,12.0947,12.1018,12.1171,12.159,12.2027,12.2049,12.2795,12.3215,12.3234,12.354,12.3911,12.4375,12.4499,12.4719,12.5152,12.5362,12.5522,12.5522,12.5537,12.5695,12.5769,12.5783,12.5783,12.5783,12.5783,12.5783,12.5783,12.5783,12.6318,12.6815,12.7197,12.7694,12.8496,12.9031,12.9146,12.9337,12.949,12.9795,13.0407,13.0445,13.0101,13.0483,13.0942,13.098,13.0942,13.1056,13.1515,13.1133,13.098,13.088,13.0804,13.0804,13.0819,13.0819,13.0849,13.0924,13.0456,12.9796,12.9199,12.8562,12.7512,12.6371,12.6089,12.5525,12.4678,12.3805,12.2807,12.1897,12.1202,12.0792,12.0834,12.0848,12.09,12.0848,12.2815,12.3504,12.3214,12.3069,12.3105,12.3395,12.354,12.3576,12.3866,12.4011,12.4011,12.4011,12.4011,12.4011,12.4011,12.4011,12.4011,12.4011,12.411,12.4192,12.4273,12.4433,12.4629,12.4803,12.4787,12.5022,12.51,12.5151,12.528,12.5695,12.6004,12.604,12.5907,12.6016,12.5925,12.532,12.4099,12.2968,12.1991,12.1217,12.1165,12.1422,12.1636,12.1688,12.2381,12.2757,12.2976,12.3672,12.3966,12.4218,12.4512,12.4905,12.5152,12.5231,12.5423,12.5778,12.5822,12.5898,12.5822,12.5822,12.5783,12.5783,12.5783,12.5783,12.5783,12.5783,12.5783,12.5783,12.5822,12.628,12.7579,12.7923,12.8343,12.9337,12.9872,12.9948,13.0025,13.0101,13.0216,13.0636,13.0751,13.0636,13.1247,13.1935,13.1897,13.182,13.1973,13.2011,13.1629,13.1125,13.0964,13.0932,13.0947,13.0868,13.0844,13.0964,13.107,13.0433,12.9772,12.9149,12.8526,12.7306,12.6363,12.6183,12.5825,12.4941,12.3955,12.2918,12.202,12.1209,12.0941,12.0971,12.0957,12.0957,12.0957,12.3467,12.3974,12.4011,12.4011,12.4011,12.4011,12.4011,12.4011,12.4011,12.4011,12.4011,12.4011,12.4011,12.4011,12.4011,12.4056,12.4209,12.4441,12.4694,12.4983,12.5277,12.5438,12.5661,12.5857,12.6037,12.5931,12.6358,12.6634,12.642,12.6655,12.7045,12.7159,12.6859,12.7003,12.6906,12.6059,12.5,12.4189,12.2911,12.1828,12.186,12.1844,12.2049,12.2179,12.2778,12.3408,12.3802,12.4444,12.4888,12.5104,12.5362,12.5657,12.5769,12.5783,12.5783,12.586,12.6051,12.6165,12.6127,12.5898,12.5836,12.5783,12.5783,12.5783,12.5783,12.5783,12.5783,12.5783,12.586,12.6471,12.8038,12.8252,12.8955,12.991,13.033,13.0483,13.0521,13.0559,13.0636,13.0789,13.0789,13.0827,13.14,13.2126,13.2928,13.2776,13.2699,13.2661,13.2371,13.1767,13.1038,13.1021,13.1094,13.0988,13.0919,13.1006,13.1069,13.0776,13.0038,12.9263,12.8447,12.7272,12.6568,12.6414,12.594,12.507,12.4226,12.3304,12.2253,12.12,12.1087,12.1077,12.1091,12.1091,12.1104,12.3974,12.4011,12.4011,12.4011,12.4011,12.4011,12.4011,12.4011,12.4011,12.4011,12.4011,12.4011,12.4002,12.4038,12.4092,12.4192,12.4583,12.5176,12.5674,12.5964,12.6522,12.7199,12.7564,12.7617,12.7669,12.8307,12.8591,12.8551,12.8071,12.8428,12.8641,12.8456,12.8208,12.8133,12.8173,12.7365,12.6934,12.6634,12.4901,12.3713,12.2998,12.2573,12.2539,12.2693,12.3312,12.4074,12.4618,12.5152,12.5507,12.5598,12.568,12.5783,12.5783,12.5783,12.5836,12.5951,12.6624,12.693,12.7006,12.628,12.6089,12.6013,12.6089,12.5974,12.586,12.5783,12.5783,12.5783,12.5951,12.67,12.7617,12.8496,12.949,13.0216,13.0636,13.0789,13.0789,13.0789,13.0789,13.0789,13.0789,13.0903,13.1476,13.2202,13.3502,13.3807,13.3578,13.3364,13.3166,13.25,13.171,13.1165,13.1212,13.0682,13.0621,13.1002,13.1065,13.0849,13.0405,12.9589,12.8732,12.772,12.7155,12.6795,12.604,12.5209,12.4481,12.3701,12.2486,12.1361,12.1181,12.1169,12.1195,12.122,12.1246,12.4011,12.4011,12.4011,12.4011,12.4011,12.4011,12.4011,12.4011,12.4011,12.4011,12.4011,12.4011,12.4147,12.4192,12.4336,12.4433,12.4845,12.5539,12.6117,12.6565,12.7447,12.8159,12.873,12.9157,12.9342,12.9865,13.0244,13.0044,12.9033,12.969,12.9474,12.9173,12.9403,12.9299,12.8391,12.747,12.6866,12.6001,12.4613,12.3511,12.3373,12.3538,12.3691,12.3672,12.4392,12.4937,12.5284,12.571,12.5769,12.5783,12.5783,12.5783,12.5836,12.5836,12.6089,12.6471,12.7121,12.735,12.7694,12.7541,12.7197,12.693,12.6662,12.6433,12.5936,12.5822,12.5783,12.6013,12.6433,12.7235,12.8038,12.8878,12.9757,13.0445,13.0789,13.0789,13.0789,13.0789,13.0789,13.0789,13.0789,13.1591,13.2241,13.2776,13.3884,13.4663,13.4526,13.4374,13.419,13.347,13.2678,13.1728,13.1238,13.0537,13.0256,13.0498,13.0767,13.0691,13.0423,13.0014,12.9064,12.8154,12.7462,12.6974,12.618,12.5387,12.4402,12.3455,12.2404,12.1611,12.1398,12.1308,12.137,12.137,12.1396,12.4011,12.4011,12.4011,12.4011,12.4011,12.4011,12.4011,12.4011,12.4011,12.4011,12.4038,12.4083,12.4219,12.438,12.454,12.4725,12.5141,12.6201,12.7197,12.7684,12.8863,12.9966,13.0642,13.0815,13.1224,13.1627,13.1892,13.172,13.0999,13.0851,13.0555,13.0265,13.0481,12.988,12.8984,12.8234,12.7891,12.7108,12.6024,12.4787,12.4529,12.4409,12.4499,12.4639,12.4954,12.5408,12.5657,12.5783,12.5783,12.5783,12.5783,12.5783,12.5836,12.6165,12.6471,12.6968,12.777,12.8267,12.8993,12.9222,12.8802,12.8114,12.7732,12.7274,12.6777,12.6853,12.6815,12.6968,12.7235,12.7847,12.8649,12.9466,12.9925,13.0598,13.0789,13.0789,13.0789,13.0789,13.0789,13.0789,13.1018,13.1935,13.2967,13.3654,13.438,13.4946,13.5421,13.5299,13.5061,13.423,13.3421,13.2515,13.1396,13.0488,12.9949,12.977,13.009,13.0436,13.0256,12.9987,12.9602,12.8705,12.7948,12.7178,12.6551,12.5654,12.4243,12.3127,12.218,12.1657,12.1482,12.1506,12.16,12.1565,12.1518,12.4011,12.4011,12.4011,12.4011,12.4011,12.4011,12.4011,12.4011,12.4011,12.4011,12.4065,12.4273,12.4433,12.4513,12.4787,12.5048,12.5595,12.6966,12.8156,12.9445,13.0543,13.1875,13.2737,13.3074,13.3119,13.3526,13.3809,13.3624,13.3255,13.2406,13.1707,13.1102,13.0804,13.0315,12.9735,12.949,12.907,12.8062,12.6895,12.58,12.5354,12.4989,12.4915,12.4943,12.504,12.5346,12.5598,12.5783,12.5783,12.5783,12.5783,12.5836,12.6104,12.6624,12.693,12.7656,12.8802,12.9719,13.0292,13.0407,13.0177,12.9375,12.8878,12.8496,12.8114,12.7847,12.7732,12.7885,12.8152,12.8764,12.9428,12.9734,13.0078,13.0445,13.0751,13.0789,13.0789,13.0789,13.0789,13.0865,13.098,13.1782,13.3043,13.3884,13.4702,13.533,13.5812,13.5933,13.5591,13.4723,13.3911,13.3148,13.1923,13.05,12.9948,12.9525,12.9294,12.9602,12.9948,12.9756,12.9448,12.9063,12.8179,12.7409,12.6948,12.5909,12.437,12.3062,12.2024,12.1681,12.1541,12.1553,12.1612,12.1612,12.1538,12.4011,12.4011,12.4011,12.4011,12.4011,12.4011,12.4011,12.4011,12.4011,12.4083,12.43,12.438,12.4646,12.5048,12.5151,12.5367,12.6152,12.7218,12.846,12.99,13.1556,13.2867,13.3765,13.4266,13.4571,13.4992,13.5221,13.4992,13.4059,13.3349,13.2546,13.1767,13.1171,13.0712,13.0445,13.0407,12.926,12.8114,12.6891,12.6361,12.5934,12.5499,12.5346,12.5346,12.5346,12.5583,12.5786,12.5913,12.5913,12.5913,12.5874,12.5989,12.6777,12.7044,12.7388,12.8878,12.9834,13.0559,13.0751,13.0789,13.0674,13.0445,13.0063,12.9337,12.8764,12.8443,12.8481,12.8725,12.9031,12.9528,12.9795,13.0101,13.033,13.0559,13.0789,13.0789,13.0789,13.0789,13.0827,13.0942,13.1056,13.205,13.3272,13.4228,13.4985,13.5697,13.6124,13.6281,13.6104,13.5271,13.4623,13.3845,13.2461,13.1025,12.9871,12.9294,12.8909,12.8756,12.9217,12.9448,12.8986,12.8525,12.8102,12.7448,12.664,12.5601,12.437,12.3216,12.2216,12.1716,12.155,12.16,12.1612,12.1612,12.1612,12.4011,12.4011,12.4011,12.4065,12.4138,12.4138,12.4192,12.4309,12.4228,12.43,12.4566,12.4725,12.497,12.5327,12.5711,12.6108,12.6396,12.8386,12.981,13.0888,13.2095,13.3721,13.476,13.5106,13.5374,13.5794,13.587,13.5565,13.4801,13.3884,13.3043,13.2508,13.1706,13.0942,13.033,12.9642,12.8458,12.7465,12.6624,12.6318,12.6065,12.5798,12.5783,12.586,12.5822,12.6013,12.628,12.628,12.6395,12.67,12.6777,12.6968,12.7694,12.7923,12.8573,12.991,13.0368,13.0712,13.0789,13.0789,13.0789,13.0789,13.0789,13.0292,12.9834,12.9528,12.949,12.9566,12.9872,13.0139,13.0292,13.0445,13.0636,13.0789,13.0789,13.0789,13.0789,13.0789,13.0903,13.1018,13.1629,13.2546,13.354,13.4457,13.5245,13.5804,13.6184,13.633,13.6266,13.5776,13.5267,13.4756,13.3154,13.1564,13.0487,12.9371,12.8679,12.8563,12.9063,12.9102,12.8563,12.8332,12.8179,12.7217,12.6101,12.514,12.4293,12.3447,12.2562,12.2062,12.1612,12.1612,12.1612,12.1612,12.1612,12.4011,12.4011,12.4038,12.4165,12.4344,12.4433,12.4666,12.4975,12.4775,12.4719,12.4981,12.5261,12.5463,12.581,12.6486,12.6918,12.7526,12.9067,13.0554,13.1968,13.3137,13.4521,13.5393,13.587,13.5794,13.587,13.587,13.5794,13.5603,13.4762,13.3807,13.3349,13.2585,13.1553,13.0216,12.9566,12.842,12.6891,12.6968,12.7082,12.618,12.5874,12.5913,12.5974,12.6165,12.6433,12.7006,12.7312,12.7503,12.8038,12.8229,12.8152,12.8573,12.9146,12.9986,13.0368,13.0712,13.0751,13.0789,13.0789,13.0789,13.0789,13.0789,13.0674,13.0407,13.0254,13.0216,13.0216,13.0407,13.0483,13.0598,13.0636,13.0751,13.0789,13.0789,13.0789,13.0789,13.0865,13.1018,13.1339,13.2263,13.3158,13.3915,13.4848,13.5673,13.6077,13.6296,13.6454,13.6426,13.6139,13.5897,13.5565,13.4295,13.2718,13.1256,13.0064,12.8679,12.8486,12.8948,12.864,12.8063,12.8102,12.8332,12.7294,12.6178,12.5255,12.437,12.3639,12.287,12.1908,12.1612,12.1612,12.1612,12.1612,12.1612,12.4011,12.4038,12.4219,12.4353,12.4433,12.4682,12.5309,12.6091,12.6039,12.571,12.5422,12.5902,12.6323,12.6622,12.7395,12.7813,12.8261,12.9439,13.0582,13.1896,13.3308,13.4672,13.5651,13.5909,13.5909,13.5909,13.5909,13.5909,13.5718,13.5106,13.4533,13.4228,13.3425,13.2164,13.0636,13.0025,12.8955,12.6853,12.6968,12.7006,12.6051,12.6433,12.6815,12.693,12.7159,12.7541,12.7923,12.8038,12.8114,12.829,12.829,12.8611,12.926,13.0063,13.0521,13.0751,13.0789,13.0789,13.0789,13.0789,13.0789,13.0789,13.0789,13.0789,13.0789,13.0789,13.0789,13.0789,13.0789,13.0789,13.0789,13.0789,13.0789,13.0789,13.0789,13.0789,13.0789,13.0942,13.1094,13.1919,13.2859,13.3669,13.4388,13.5182,13.6004,13.6411,13.6468,13.658,13.6676,13.6538,13.65,13.6142,13.5642,13.4218,13.2449,13.0871,12.9487,12.864,12.8871,12.8332,12.764,12.7563,12.7563,12.7178,12.6371,12.5524,12.4793,12.4178,12.3293,12.2216,12.1612,12.1612,12.1612,12.1612,12.1612,12.4011,12.4002,12.43,12.4566,12.4876,12.5361,12.6044,12.6678,12.7033,12.696,12.6656,12.7022,12.7319,12.7556,12.8253,12.862,12.8869,12.9972,13.1349,13.2484,13.3316,13.462,13.5383,13.5909,13.5909,13.5909,13.5909,13.587,13.5794,13.5565,13.5183,13.4992,13.4228,13.3043,13.1515,13.0865,12.9604,12.7235,12.7159,12.67,12.5974,12.6357,12.6853,12.7121,12.7541,12.8114,12.8802,12.8916,12.9146,12.9299,12.9528,12.9642,13.0101,13.0483,13.0712,13.0789,13.0789,13.0789,13.0789,13.0789,13.0789,13.0789,13.0789,13.0789,13.0789,13.0789,13.0789,13.0789,13.0789,13.0789,13.0789,13.0789,13.0789,13.0789,13.0789,13.0789,13.0789,13.0865,13.1308,13.2086,13.2987,13.3874,13.4646,13.5562,13.6268,13.6482,13.658,13.6648,13.6743,13.6796,13.6796,13.668,13.6065,13.4872,13.2987,13.1602,13.0371,12.9679,12.8948,12.8409,12.7909,12.7178,12.6717,12.6678,12.6524,12.6024,12.5332,12.4601,12.3716,12.2639,12.2024,12.1612,12.1612,12.1612,12.1612,12.4038,12.4092,12.4353,12.4777,12.5364,12.6173,12.674,12.72,12.7886,12.8326,12.8374,12.8411,12.8363,12.851,12.9061,12.9318,12.9765,13.05,13.1884,13.3049,13.3796,13.4751,13.5455,13.5909,13.5909,13.5909,13.5909,13.5909,13.587,13.5756,13.5679,13.5718,13.4877,13.3731,13.2317,13.1094,12.9642,12.7999,12.735,12.693,12.6471,12.6127,12.6739,12.7159,12.7579,12.8343,12.9314,12.9887,13.0216,13.0368,13.0521,13.0559,13.0598,13.0712,13.0751,13.0789,13.0789,13.0789,13.0789,13.0789,13.0789,13.0789,13.0789,13.0789,13.0789,13.0789,13.0789,13.0789,13.0789,13.0789,13.0789,13.0789,13.0789,13.0789,13.0789,13.0789,13.0789,13.088,13.1574,13.229,13.3205,13.413,13.5122,13.5999,13.6315,13.6528,13.6635,13.6703,13.6756,13.6782,13.6796,13.668,13.6334,13.4988,13.3487,13.241,13.1295,13.0064,12.9294,12.8717,12.8063,12.7255,12.6755,12.6717,12.6447,12.614,12.5601,12.4909,12.3985,12.3062,12.2562,12.2024,12.1612,12.1612,12.1612,12.411,12.4353,12.4682,12.5033,12.5452,12.6388,12.7211,12.7959,12.873,12.9428,12.9795,12.9942,12.9758,12.9134,12.9905,13.0199,13.0202,13.0917,13.1903,13.3082,13.3616,13.4625,13.5471,13.5909,13.5909,13.5909,13.5909,13.5909,13.5909,13.5909,13.5909,13.5832,13.503,13.3807,13.2279,13.1133,13.0063,12.8611,12.8076,12.7885,12.7847,12.7732,12.7847,12.8496,12.9413,13.0025,13.0521,13.0559,13.0674,13.0751,13.0789,13.0789,13.0789,13.0789,13.0789,13.0789,13.0789,13.0789,13.0789,13.0789,13.0789,13.0789,13.0789,13.0789,13.0789,13.0789,13.0789,13.0789,13.0789,13.0789,13.0789,13.0789,13.0789,13.0789,13.0789,13.0789,13.0789,13.1185,13.1763,13.2698,13.3708,13.4814,13.5973,13.6503,13.6585,13.6729,13.6729,13.6782,13.6782,13.6782,13.6796,13.668,13.6526,13.5603,13.4372,13.3372,13.2218,13.0871,12.9563,12.8833,12.8063,12.7255,12.6883,12.6755,12.6614,12.6344,12.5755,12.5255,12.4332,12.3485,12.3062,12.2562,12.1947,12.1612,12.1612]}]]